[[{"header":{"parameterUnit":"m.s-1","parameterCategory":1,"la1":30.6,"la2":29.2853,"lo1":-89.7004,"lo2":-87.6739,"dy":0.0162,"dx":0.0183,"nx":112,"ny":82,"refTime":"2023-04-18T06:00:00:Z","depth":0,"parameterNumber":2,"parameterNumberName":"U-component_of_WINDS"},"data":[0.0,0.0,0.0,0.0,0.0,0.0,0.0,0.0,0.0,0.0,0.0,0.0,0.0,0.0,0.0,0.0,0.0,0.0,0.0,0.0,0.0,0.0,0.0,0.0,0.0,0.0,0.0,0.0,0.0,0.0,0.0,0.0,0.0,0.0,0.0,0.0,0.0,0.0,0.0,0.0,0.0,0.0,0.0,0.0,0.0,0.0,0.0,0.0,0.0,0.0,0.0,0.0,0.0,0.0,0.0,0.0,0.0,0.0,0.0,0.0,0.0,0.0,0.0,0.0,0.0,0.0,0.0,0.0,0.0,0.0,0.0,0.0,0.0,0.0,0.0,0.0,0.0,0.0,0.0,0.0,0.0,0.0,0.0,0.0,0.0,0.0,0.0,0.0,0.0,0.0,0.875,0.8635,0.9446,1.0142,1.0463,1.0759,1.0142,0.8324,0.0,0.0,0.0,0.0,0.0,0.0,0.0,0.0,0.0,0.0,0.0,0.0,0.0,0.0,0.0,0.0,0.0,0.0,0.0,0.0,0.0,0.0,0.0,0.0,0.0,0.0,0.0,0.0,0.0,0.0,0.0,0.0,0.0,0.0,0.0,0.0,0.0,0.0,0.0,0.0,0.0,0.0,0.0,0.0,0.0,0.0,0.0,0.0,0.0,0.0,0.0,0.0,0.0,0.0,0.0,0.0,0.0,0.0,0.0,0.0,0.0,0.0,0.0,0.0,0.0,0.0,0.0,0.0,0.0,0.0,0.0,0.0,0.0,0.0,0.0,0.0,0.0,0.0,0.0,0.0,0.0,0.0,0.0,0.0,0.0,0.0,0.0,0.0,0.0,0.0,0.0,0.0,0.0,0.0,0.0,0.0,0.0,0.0,0.0,0.0,0.0,0.0,0.0,0.0,0.9794,1.0052,1.0042,1.0142,1.0463,1.0047,0.9312,0.8268,0.0,0.0,0.0,0.0,0.0,0.0,0.0,0.0,0.0,0.0,0.0,0.0,0.0,0.0,0.0,0.0,0.0,0.0,0.0,0.0,0.0,0.0,0.0,0.0,0.0,0.0,0.0,0.0,0.0,0.0,0.0,0.0,0.0,0.0,0.0,0.0,0.0,0.0,0.0,0.0,0.0,0.0,0.0,0.0,0.0,0.0,0.0,0.0,0.0,0.0,0.0,0.0,0.0,0.0,0.0,0.0,0.0,0.0,0.0,0.0,0.0,0.0,0.0,0.0,0.0,0.0,0.0,0.0,0.0,0.0,0.0,0.0,0.0,0.0,0.0,0.0,0.0,0.0,0.0,0.0,0.0,0.0,0.0,0.0,0.0,0.0,0.0,0.0,0.0,0.0,0.0,0.0,0.0,0.0,0.0,0.0,0.0,0.0,0.0,0.0,0.0,0.0,0.0,0.8875,0.9155,0.9738,0.956,0.9542,0.987,0.9192,0.8789,0.8885,0.9504,0.0,0.0,0.0,0.0,0.0,0.0,0.0,0.0,0.0,0.0,0.0,0.0,0.0,0.0,0.0,0.0,0.0,0.0,0.0,0.0,0.0,0.0,0.0,0.0,0.0,0.0,0.0,0.0,0.0,0.0,0.0,0.0,0.0,0.0,0.0,0.0,0.0,0.0,0.0,0.0,0.0,0.0,0.0,0.0,0.0,0.0,0.0,0.0,0.0,0.0,0.0,0.0,0.0,0.0,0.0,0.0,0.0,0.0,0.0,0.0,0.0,0.0,0.0,0.0,0.0,0.0,0.0,0.0,0.0,0.0,0.0,0.0,0.0,0.0,0.0,0.0,0.0,0.0,0.0,0.0,0.0,0.0,0.0,0.0,0.0,0.0,0.0,0.0,0.0,0.0,0.0,0.0,0.0,0.0,0.0,0.0,0.0,0.0,0.0,0.0,0.0,0.0,0.8657,0.8637,0.9241,0.9047,0.8971,0.9153,0.8411,0.8255,0.8999,0.8622,0.0,0.0,0.0,0.0,0.0,0.0,0.0,0.0,0.0,0.0,0.0,0.0,0.0,0.0,0.0,0.0,0.0,0.0,0.0,0.0,0.0,0.0,0.0,0.0,0.0,0.0,0.0,0.0,0.0,0.0,0.0,0.0,0.0,0.0,0.0,0.0,0.0,0.0,0.0,0.0,0.0,0.0,0.0,0.0,0.0,0.0,0.0,0.0,0.0,0.0,0.0,0.0,0.0,0.0,0.0,0.0,0.0,0.0,0.0,0.0,0.0,0.0,0.0,0.0,0.0,0.0,0.0,0.0,0.0,0.0,0.0,0.0,0.0,0.0,0.0,0.0,0.0,0.0,0.0,0.0,0.0,0.0,0.0,0.0,0.0,0.0,0.0,0.0,0.0,0.0,0.0,0.0,0.0,0.0,0.0,0.0,0.0,0.0,0.0,0.0,0.0,0.0,0.9565,0.9296,0.9304,0.9047,0.8783,0.8492,0.7851,0.7537,0.7722,0.7872,0.0,0.0,0.0,0.0,0.0,0.0,0.0,0.0,0.0,0.0,0.0,0.0,0.0,0.0,0.0,0.0,0.0,0.0,0.0,0.0,0.0,0.0,0.0,0.0,0.0,0.0,0.0,0.0,0.0,0.0,0.0,0.0,0.0,0.0,0.0,0.0,0.0,0.0,0.0,0.0,0.0,0.0,0.0,0.0,0.0,0.0,0.0,0.0,0.0,0.0,0.0,0.0,0.0,0.0,0.0,0.0,0.0,0.0,0.0,0.0,0.0,0.0,0.0,0.0,0.0,0.0,0.0,0.0,0.0,0.0,0.0,0.0,0.0,0.0,0.0,0.0,0.0,0.0,0.0,0.0,0.0,0.0,0.0,0.0,0.0,0.0,0.0,0.0,0.0,0.0,0.0,0.0,0.0,0.0,0.0,0.0,0.0,0.0,0.0,0.0,0.0,0.0,0.9957,0.934,0.0,0.9047,0.8766,0.8425,0.816,0.8135,0.8392,0.0,0.0,0.0,0.0,0.0,0.0,0.0,0.0,0.0,0.0,0.0,0.0,0.0,0.0,0.0,0.0,0.0,0.0,0.0,0.0,0.0,0.0,0.0,0.0,0.0,0.0,0.0,0.0,0.0,0.0,0.0,0.0,0.0,0.0,0.0,0.0,0.0,0.0,0.0,0.0,0.0,0.0,0.0,0.0,0.0,0.0,0.0,0.0,0.0,0.0,0.0,0.0,0.0,0.0,0.0,0.0,0.0,0.0,0.0,0.0,0.0,0.0,0.0,0.0,0.0,0.0,0.0,0.0,0.0,0.0,0.0,0.0,0.0,0.0,0.0,0.0,0.0,0.0,0.0,0.0,0.0,0.0,0.0,0.0,0.0,0.0,0.0,0.0,0.0,0.0,0.0,0.0,0.0,0.0,0.0,0.0,0.0,0.0,0.0,0.0,0.0,0.0,1.1292,1.0131,0.9303,0.0,0.9047,0.8789,0.8517,0.8245,0.8372,0.905,0.0,0.0,0.0,0.0,0.0,0.0,0.0,0.0,0.0,0.0,0.0,0.0,0.0,0.0,0.0,0.0,0.0,0.0,0.0,0.0,0.0,0.0,0.0,0.0,0.0,0.0,0.0,0.0,0.0,0.0,0.0,0.0,0.0,0.0,0.0,0.0,0.0,0.0,0.0,0.0,0.0,0.0,0.0,0.0,0.0,0.0,0.0,0.0,0.0,0.0,0.0,0.0,0.0,0.0,0.0,0.0,0.0,0.0,0.0,0.0,0.0,0.0,0.0,0.0,0.0,0.0,0.0,0.0,0.0,0.0,0.0,0.0,0.0,0.0,0.0,0.0,0.0,0.0,0.0,0.0,0.0,0.0,0.0,0.0,0.0,0.0,0.0,0.0,0.0,0.0,0.0,0.0,0.0,0.0,0.0,0.0,0.0,0.0,0.0,0.0,0.0,0.0,1.1292,1.0131,0.9303,0.9303,0.9047,0.8852,0.8717,0.7904,0.8016,0.0,0.0,0.0,0.0,0.0,0.0,0.0,0.0,0.0,0.0,0.0,0.0,0.0,0.0,0.0,0.0,0.0,0.0,0.0,0.0,0.0,0.0,0.0,0.0,0.0,0.0,0.0,0.0,0.0,0.0,0.0,0.0,0.0,0.0,0.0,0.0,0.0,0.0,0.0,0.0,0.0,0.0,0.0,0.0,0.0,0.0,0.0,0.0,0.0,0.0,0.0,0.0,0.0,0.0,0.0,0.0,0.0,0.0,0.0,0.0,0.0,0.0,0.0,0.0,0.0,0.0,0.0,0.0,0.0,0.0,0.0,0.0,0.0,0.0,0.0,0.0,0.0,0.0,0.0,0.0,0.0,0.0,0.0,0.0,0.0,0.0,0.0,0.0,0.0,0.0,0.0,0.0,0.0,0.0,0.0,0.0,0.0,0.0,0.0,0.0,0.0,0.0,0.0,1.1314,1.009,0.9303,0.9303,0.9047,0.8852,0.8717,0.8335,0.8414,0.9171,0.0,0.0,0.0,0.0,0.0,0.0,0.0,0.0,0.0,0.0,0.0,0.0,0.0,0.0,0.0,0.0,0.0,0.0,0.0,0.0,0.0,0.0,0.0,0.0,0.0,0.0,0.0,0.0,0.0,0.0,0.0,0.0,0.0,0.0,0.0,0.0,0.0,0.0,0.0,0.0,0.0,0.0,0.0,0.0,0.0,0.0,0.0,0.0,0.0,0.0,0.0,0.0,0.0,0.0,0.0,0.0,0.0,0.0,0.0,0.0,0.0,0.0,0.0,0.0,0.0,0.0,0.0,0.0,0.0,0.0,0.0,0.0,0.0,0.0,0.0,0.0,0.0,0.0,0.0,0.0,0.0,0.0,0.0,0.0,0.0,0.0,0.0,0.0,0.0,0.0,0.0,0.0,0.0,0.0,0.0,0.0,0.0,0.0,0.0,0.0,0.0,0.0,1.1327,1.0097,0.9303,0.9303,0.9047,0.8858,0.8783,0.8616,0.8925,0.9851,0.0,0.0,0.0,0.0,0.0,0.0,0.0,0.0,0.0,0.0,0.0,0.0,0.0,0.0,0.0,0.0,0.0,0.0,0.0,0.0,0.0,0.0,0.0,0.0,0.0,0.0,0.0,0.0,0.0,0.0,0.0,0.0,0.0,0.0,0.0,0.0,0.0,0.0,0.0,0.0,0.0,0.0,0.0,0.0,0.0,0.0,0.0,0.0,0.0,0.0,0.0,0.0,0.0,0.0,0.0,0.0,0.0,0.0,0.0,0.0,0.0,0.0,0.0,0.0,0.0,0.0,0.0,0.0,0.0,0.0,0.0,0.0,0.0,0.0,0.0,0.0,0.0,0.0,0.0,0.0,0.0,0.0,0.0,0.0,0.0,0.0,0.0,0.0,0.0,0.0,0.0,0.0,0.0,0.0,0.0,0.0,0.0,0.0,0.0,0.0,0.0,0.0,1.1194,1.0042,0.9303,0.9303,0.9047,0.8891,0.8891,0.8771,0.938,1.097,0.0,0.0,0.0,0.0,0.0,0.0,0.0,0.0,0.0,0.0,0.0,0.0,0.0,0.0,0.0,0.0,0.0,0.0,0.0,0.0,0.0,0.0,0.0,0.0,0.0,0.0,0.0,0.0,0.0,0.0,0.0,0.0,0.0,0.0,0.0,0.0,0.0,0.0,0.0,0.0,0.0,0.0,0.0,0.0,0.0,0.0,0.0,0.0,0.0,0.0,0.0,0.0,0.0,0.0,0.0,0.0,0.0,0.0,0.0,0.0,1.1007,0.0,0.0,0.0,0.0,0.0,0.0,0.0,0.0,0.0,0.0,0.0,0.0,0.0,0.0,0.0,0.0,0.0,0.0,0.0,0.0,0.0,0.0,0.0,0.0,0.0,0.0,0.0,0.0,0.0,0.0,0.0,0.0,0.0,0.0,0.0,0.0,0.0,0.0,0.0,0.0,0.0,1.0376,0.9662,0.9303,0.9303,0.9047,0.8891,0.8891,0.8771,0.9333,1.0771,1.0735,0.0,0.0,0.0,0.0,0.0,0.0,0.0,0.0,0.0,0.0,0.0,0.0,0.0,0.0,0.0,0.0,0.0,0.0,0.0,0.0,0.0,0.0,0.0,0.0,0.0,0.0,0.0,0.0,0.0,0.0,0.0,0.0,0.0,0.0,0.0,0.0,0.0,0.0,0.0,0.0,0.0,0.0,0.0,0.0,0.0,0.0,0.0,0.0,0.0,0.0,0.0,0.0,0.0,0.0,0.0,0.0,0.0,0.0,0.0,0.0,1.1296,0.0,0.0,0.0,0.0,0.0,0.0,0.0,0.0,0.0,0.0,0.0,0.0,0.0,0.0,0.0,0.0,0.0,0.0,0.0,0.0,0.0,0.0,0.0,0.0,0.0,0.0,0.0,0.0,0.0,0.0,0.0,0.0,0.0,0.0,0.0,0.0,0.0,0.0,0.0,0.0,1.1226,1.006,0.9303,0.9303,0.9047,0.8891,0.8891,0.916,0.9785,1.0874,1.1353,0.0,0.0,0.0,0.0,0.0,0.0,0.0,0.0,0.0,0.0,0.0,0.0,0.0,0.0,0.0,0.0,0.0,0.0,0.0,0.0,0.0,0.0,0.0,0.0,0.0,0.0,0.0,0.0,0.0,0.0,0.0,0.0,0.0,0.0,0.0,0.0,0.0,0.0,0.0,0.0,0.0,0.0,0.0,0.0,0.0,0.0,0.0,0.0,0.0,0.0,0.0,0.0,0.0,1.2328,1.2909,1.4009,1.3968,1.3675,1.3092,1.2231,1.1903,1.1969,0.0,0.0,0.0,0.0,0.0,0.0,0.0,0.0,0.0,0.0,0.0,0.0,0.0,0.0,0.0,0.0,0.0,0.0,0.0,0.0,0.0,0.0,0.0,0.0,0.0,1.2973,1.3479,0.0,0.0,0.0,0.0,0.0,0.0,0.0,0.0,0.0,0.0,0.0,0.0,1.2236,1.0506,0.9303,0.9303,0.9047,0.8891,0.8891,0.9574,1.0305,1.1045,1.1857,1.2686,0.0,0.0,0.0,0.0,0.0,0.0,0.0,0.0,0.0,0.0,0.0,0.0,0.0,0.0,0.0,0.0,0.0,0.0,0.0,0.0,0.0,0.0,0.0,0.0,0.0,0.0,0.0,0.0,0.0,0.0,0.0,0.0,0.7824,0.9872,0.0,0.0,0.0,0.0,0.0,0.0,0.0,0.0,0.0,0.0,0.0,0.0,0.0,1.0724,1.2556,1.238,1.306,1.4572,1.4458,1.4549,1.4831,1.4709,1.4618,1.4453,1.2827,0.0,1.2666,1.2666,0.0,0.0,0.0,0.0,0.0,0.0,0.0,0.0,0.0,0.0,0.0,0.0,0.0,0.0,0.0,0.0,0.0,0.0,0.0,0.0,0.0,0.0,1.3938,1.3396,1.3328,1.3413,0.0,1.3658,1.3765,1.3676,0.0,0.0,0.0,0.0,0.0,0.0,0.0,0.0,1.1541,1.016,0.9303,0.9303,0.9047,0.8891,0.8891,0.9574,1.0305,1.1045,1.1857,1.2923,1.431,1.3757,0.0,0.0,0.0,0.0,0.0,0.0,0.0,0.0,0.0,0.0,0.0,0.0,0.0,0.0,0.0,0.0,0.0,0.0,0.0,0.0,0.0,0.0,0.0,0.0,0.0,0.0,0.0,0.0,0.0,0.8709,0.9744,1.1434,1.1373,1.1194,0.0,0.0,0.0,0.0,0.0,0.0,0.0,0.0,0.0,0.9796,1.0256,1.1002,1.202,1.2317,1.3327,1.5074,1.5008,1.5356,1.6074,1.6007,1.5814,1.5485,1.4714,1.4116,1.3586,1.278,1.2643,1.2848,0.0,0.0,0.0,0.0,1.2411,1.3091,1.319,1.3661,0.0,0.0,0.0,0.0,0.0,0.0,0.0,0.0,0.0,0.0,0.0,0.0,0.0,1.4614,1.4649,1.4513,1.4107,1.4058,1.3973,0.0,1.4453,1.5225,1.5019,0.0,0.0,0.0,0.0,1.2806,1.2527,1.1076,1.0047,0.9978,1.0168,1.0081,0.9569,1.0605,1.1434,1.1756,1.2483,1.321,1.3853,1.3848,1.42,0.0,0.0,0.0,0.0,0.0,0.0,0.0,0.0,0.0,0.0,0.0,0.0,0.0,0.0,0.0,0.0,0.0,0.0,0.0,0.0,0.0,0.0,0.0,0.0,0.0,0.0,0.0,0.0,0.9376,1.1194,1.2358,1.1659,1.1304,0.0,0.0,0.0,0.0,0.0,0.0,1.0241,1.0767,1.0985,1.0807,1.1298,1.1696,1.1946,1.277,1.3856,1.523,1.5481,1.6084,1.7006,1.6959,1.6746,1.6336,1.6091,1.5451,1.4506,1.3375,1.2827,1.2707,1.2961,1.2852,1.2628,1.3145,1.3615,1.4154,1.4812,1.5394,1.5769,1.559,0.0,1.4671,1.3927,0.0,0.0,0.0,0.0,1.3172,1.4226,1.4629,1.4919,1.5477,1.5595,1.5443,1.4902,1.4783,1.4513,0.0,1.4538,1.5393,1.5044,0.0,0.0,0.0,0.0,1.3054,1.3447,1.1994,1.089,1.0777,1.1117,1.1033,1.0348,1.1519,1.2297,1.2297,1.299,1.3396,1.3396,1.3921,1.431,1.4494,0.0,0.0,0.0,0.0,0.0,0.0,0.0,0.0,0.0,0.0,0.0,0.0,0.0,0.0,0.0,0.0,0.0,0.0,0.0,0.0,0.0,0.0,0.0,0.0,0.0,0.0,0.0,0.0,0.0,1.1009,1.1095,0.0,0.0,0.0,0.0,1.0348,1.1236,1.1696,1.1438,1.18,1.2216,1.2659,1.3301,1.3738,1.3941,1.5188,1.5686,1.5504,1.6498,1.7095,1.7288,1.7147,1.7078,1.7013,1.5971,1.5483,1.5412,1.5003,1.4528,1.3997,1.382,1.4124,1.4648,1.4677,1.4707,1.4842,1.5529,1.5769,1.5993,1.7176,1.7518,1.7193,1.5587,1.482,0.0,0.0,1.4155,1.4411,1.4477,1.502,1.5544,1.5595,1.5595,1.5595,1.5544,1.5544,1.5122,0.0,1.3481,1.3677,1.4087,0.0,1.527,1.5001,1.4738,1.4326,1.3579,1.2357,1.1553,1.1553,1.1291,1.1093,1.1045,1.1823,1.2297,1.2297,1.299,1.3396,1.3396,1.3447,1.3768,1.4477,1.4528,0.0,0.0,0.0,0.0,0.0,0.0,0.0,0.0,0.0,0.0,0.0,0.0,0.0,0.0,0.0,0.0,0.0,0.0,0.0,0.0,0.0,0.0,0.0,0.0,0.0,0.0,0.0,0.0,1.1667,1.1815,0.0,1.2194,1.2412,1.2192,1.1389,1.2523,1.3032,1.2557,1.3127,1.3443,1.3436,1.4498,1.4642,1.3737,1.5375,1.6019,1.5634,1.6355,1.6903,1.7299,1.725,1.7049,1.6682,1.6325,1.5962,1.5632,1.5764,1.521,1.4193,1.4013,1.4288,1.4842,1.5289,1.5949,1.6772,1.743,1.7655,1.7595,1.7189,1.6771,1.6383,1.5927,1.5561,1.5399,1.5912,1.6331,1.6745,1.7219,1.7523,1.771,1.771,1.7354,1.6898,1.6407,1.6309,1.6021,1.5003,1.4554,1.4397,1.4695,1.4684,1.4623,1.464,1.4151,1.3705,1.3417,1.2866,1.246,1.2381,1.2565,1.2483,1.1923,1.2567,1.3038,1.3131,1.3293,1.3446,1.3542,1.3888,1.4462,1.5189,1.5839,1.5983,0.0,0.0,0.0,0.0,0.0,0.0,0.0,0.0,0.0,0.0,0.0,0.0,0.0,0.0,0.0,0.0,0.0,0.0,0.0,0.0,0.0,0.0,0.0,0.0,0.0,0.0,1.1276,1.2944,1.2956,1.3074,1.3651,1.3443,1.3179,1.295,1.3844,1.4323,1.4126,1.4694,1.4902,1.4564,1.5772,1.5619,1.3929,1.5696,1.6177,1.5461,1.6153,1.6712,1.7034,1.7034,1.6837,1.6522,1.6522,1.6308,1.5969,1.6245,1.58,1.4985,1.4973,1.5209,1.561,1.6442,1.7311,1.8115,1.8807,1.9031,1.8852,1.7727,1.7116,1.6773,1.6667,1.657,1.6686,1.7359,1.7818,1.8253,1.8742,1.8875,1.89,1.9044,1.8516,1.787,1.7518,1.7054,1.6563,1.6072,1.5341,1.4863,1.5048,1.4584,1.436,1.4842,1.4224,1.3702,1.3702,1.3473,1.3163,1.2798,1.3228,1.3305,1.2719,1.3428,1.3937,1.4031,1.4194,1.4348,1.4541,1.459,1.4999,1.5847,1.6728,1.724,1.7345,0.0,0.0,0.0,0.0,0.0,0.0,0.0,0.0,0.0,0.0,0.0,0.0,0.0,0.0,0.0,0.0,0.0,0.0,0.0,0.0,0.0,0.0,0.0,1.1484,1.1971,1.2963,1.4635,1.4464,1.4463,1.5077,1.4657,1.4539,1.5033,1.5215,1.5529,1.6108,1.6533,1.6509,1.6067,1.7128,1.6733,1.4765,1.6335,1.6369,1.4953,1.6007,1.6522,1.6522,1.6522,1.6522,1.6522,1.6522,1.6522,1.6522,1.6522,1.6434,1.6336,1.6739,1.6898,1.7073,1.8244,1.8717,1.8822,1.9465,1.969,1.957,1.8942,1.8732,1.8612,1.7951,1.7987,1.8238,1.8238,1.8558,1.8885,1.8885,1.8856,1.8972,1.9367,1.889,1.8451,1.8855,1.7794,1.68,1.6766,1.5752,1.4933,1.5006,1.4609,1.4596,1.5594,1.5056,0.0,1.4561,1.4221,1.3673,1.2891,1.3231,1.3498,1.3464,1.4382,1.4964,1.4929,1.561,1.6116,1.6369,1.54,1.5382,1.6474,1.7086,1.8317,2.021,0.0,0.0,0.0,0.0,0.0,0.0,0.0,0.0,0.0,0.0,0.0,0.0,0.0,0.0,0.0,0.0,0.0,0.0,0.0,0.0,0.0,0.0,1.2579,1.3195,1.323,1.3746,1.5264,1.6196,1.6515,1.6016,1.6841,1.7142,1.6561,1.706,1.7333,1.7255,1.7341,1.7349,1.7252,1.7622,1.7206,1.5886,1.6792,1.6664,1.548,1.6183,1.6522,1.6522,1.6522,1.6522,1.6522,1.6522,1.6522,1.6522,1.6522,1.6464,1.643,1.648,1.6946,1.7676,1.8006,1.8655,1.9435,1.963,1.969,1.966,1.9465,1.942,1.9375,1.9196,1.9282,1.942,1.942,1.9975,2.0544,2.0544,2.0289,2.016,2.0598,1.988,1.9211,1.9605,1.9376,1.8944,1.8386,1.7697,1.6868,1.5836,1.5691,1.586,1.6219,1.6265,0.0,1.6248,1.5893,1.5559,1.5331,1.5589,1.5581,1.5037,1.5744,1.6047,1.5643,1.567,1.5808,1.6045,1.6134,1.7026,1.8838,1.9219,1.9738,0.0,0.0,0.0,0.0,0.0,0.0,0.0,0.0,0.0,0.0,0.0,0.0,0.0,0.0,0.0,0.0,0.0,0.0,0.0,0.0,0.0,0.0,1.4395,1.4833,1.6426,1.5752,1.5666,1.7184,1.8045,1.8403,1.8024,1.8427,1.8518,1.8022,1.7991,1.8031,1.8119,1.81,1.8034,1.7802,1.835,1.792,1.639,1.7208,1.6981,1.5706,1.6258,1.6522,1.6522,1.6522,1.6522,0.0,1.6522,1.6522,1.6522,1.6522,1.6522,0.0,0.0,0.0,0.0,0.0,1.9081,1.969,1.969,1.969,1.969,1.969,1.969,1.969,1.969,1.9756,1.9805,1.9805,2.0162,2.0568,2.0568,2.049,2.0536,2.1002,2.0471,1.997,2.0422,2.0221,1.9866,1.9452,1.8944,0.0,1.7475,1.68,1.6552,1.7077,1.7008,1.6908,1.6908,1.654,1.6161,1.5791,1.6036,1.6072,1.5629,1.6478,0.0,0.0,0.0,1.6903,1.6659,1.7717,0.0,0.0,0.0,2.1096,2.1548,0.0,0.0,0.0,2.0979,2.0629,0.0,0.0,0.0,0.0,0.0,0.0,0.0,0.0,0.0,0.0,0.0,0.0,0.0,0.0,0.0,0.0,1.6413,1.7776,2.0127,1.8992,1.8372,1.9663,1.9916,2.0072,2.0235,1.9601,1.9226,1.9335,1.8518,1.8227,1.8777,0.0,0.0,0.0,0.0,1.8708,1.6782,1.7634,1.7357,1.5985,1.6439,1.668,1.668,1.668,1.668,1.668,1.6637,1.6595,1.6595,1.6595,1.668,1.6879,1.7747,1.8145,1.8302,1.9332,1.969,1.969,1.969,0.0,0.0,1.969,1.969,1.969,1.969,1.9711,1.9782,1.9782,1.9818,1.9854,1.9909,2.0139,2.0516,2.1023,2.088,2.0742,2.1214,2.0771,2.0247,2.0187,1.9836,1.9525,1.9417,1.7931,1.7085,1.806,1.7609,1.7165,1.7165,1.6841,1.6318,1.5524,0.0,0.0,1.5948,1.7061,1.7755,1.7755,1.8681,1.8877,1.8103,1.9787,2.0396,1.968,2.1253,2.2409,2.3144,2.3144,2.3511,2.4153,2.1951,2.1695,0.0,0.0,0.0,0.0,0.0,0.0,0.0,0.0,0.0,0.0,0.0,0.0,0.0,0.0,0.0,1.822,1.9179,2.0127,2.1268,2.1554,2.1365,2.0607,2.1277,2.1299,2.0017,2.0616,2.081,2.0146,1.9903,1.9699,1.9516,1.9495,1.9459,1.9337,1.9148,1.8873,1.8427,1.8193,1.7918,1.765,0.0,0.0,1.7787,1.7787,1.7787,1.7787,1.7353,1.7146,1.7146,1.7146,1.7666,1.8419,1.8185,1.838,1.8817,1.9442,1.969,1.969,1.969,1.969,1.969,1.969,1.969,1.969,1.969,1.9945,0.0,2.0177,2.0465,2.0829,2.1134,2.1055,2.1055,2.1857,2.1724,2.152,2.199,2.1972,2.1749,2.1351,2.1233,2.0917,2.0164,1.9183,1.8586,1.8799,1.8833,1.8831,1.8831,1.8631,1.841,1.8248,1.8641,1.8678,1.8083,1.8794,1.9294,1.9353,2.0158,2.0555,2.0356,2.1526,2.2132,2.1968,2.3123,2.3804,2.3969,2.3969,2.4043,2.419,2.3712,2.3657,0.0,0.0,0.0,0.0,0.0,0.0,0.0,0.0,0.0,0.0,0.0,1.785,0.0,0.0,1.9433,2.0308,2.1177,2.2186,2.3428,2.354,2.3203,2.2402,2.2551,2.2405,2.1633,2.1824,2.1682,2.0958,2.0765,2.0565,2.0379,2.0139,2.0,2.0,1.9536,1.9169,1.8893,1.8612,1.838,1.8106,1.8106,1.8106,1.8106,1.8106,1.8106,1.8106,1.7827,1.7706,1.7706,1.7706,1.8185,1.8855,1.8612,1.8817,1.9332,1.9603,1.969,1.969,1.969,1.969,1.969,1.969,1.969,1.969,1.969,1.9839,2.0035,2.0246,2.0483,2.0748,2.1181,2.1306,2.1415,2.184,2.1957,2.2003,2.2254,2.231,2.2248,2.2012,2.1738,2.1464,2.1153,2.0565,1.9921,1.9261,1.9246,1.9305,1.9305,1.9117,1.9002,1.9002,1.9091,1.9009,1.862,1.9428,2.0187,2.077,2.1187,2.1404,2.1404,2.2297,2.2792,2.2792,2.371,2.419,2.419,2.419,2.419,2.419,2.419,2.419,0.0,0.0,0.0,0.0,0.0,0.0,0.0,0.0,1.8574,1.8397,1.9056,1.9653,1.9682,2.0936,2.2021,2.2193,2.2959,2.4007,2.5342,2.4962,2.4471,2.4253,2.3739,2.3388,2.3289,2.291,2.2418,2.1809,2.151,2.1287,2.1102,2.0732,2.0485,2.0449,2.0104,1.9752,1.931,1.931,1.9074,1.8646,1.8646,1.8608,1.8545,1.8545,1.8468,1.8419,1.8302,1.8263,1.8263,1.8263,1.8574,1.9043,1.9043,1.9332,1.969,1.969,1.969,1.969,1.969,1.969,1.969,1.969,1.969,1.969,1.969,1.9747,1.9874,2.0227,2.0382,2.055,2.0991,2.1368,2.1612,2.1718,2.2032,2.231,2.231,2.231,2.231,2.236,2.2082,2.1888,2.2069,2.1837,2.1134,1.9735,1.9528,1.9473,1.9323,1.9166,1.9052,1.9052,1.9004,1.9038,1.9199,2.0155,2.1116,2.1987,2.2171,2.228,2.228,2.2887,2.3235,2.3235,2.3878,2.419,2.419,2.419,2.419,2.419,2.419,2.419,1.2632,1.3066,1.4022,1.5023,1.6483,1.7832,0.0,0.0,2.0965,2.0187,2.068,2.1289,2.1411,2.2205,2.312,2.3964,2.4824,2.546,2.5643,2.555,2.5449,2.5408,2.4878,2.4178,2.3297,2.3483,2.3392,2.2788,2.2691,2.2324,2.1497,2.1393,2.1225,2.0926,2.0862,2.0829,2.0748,2.0748,2.0748,2.0667,2.0667,2.0467,2.0058,2.0058,1.9864,1.9479,1.9006,1.8817,1.8817,1.8817,1.9132,1.9603,1.9603,1.9639,1.969,1.969,1.969,1.969,1.969,1.969,1.969,1.969,1.969,1.969,1.969,1.9945,2.0246,2.028,2.0583,2.1023,2.143,2.1552,2.1718,2.2106,2.2254,2.231,2.231,2.231,2.236,2.2625,2.2853,2.2899,2.2503,2.2643,2.2264,2.0613,2.0356,2.0115,1.9381,1.9274,1.9259,1.9259,1.9868,2.0601,2.1368,2.2209,2.274,2.2868,2.3547,2.3933,2.3933,2.4025,2.4061,2.4061,2.4153,2.419,2.419,2.419,2.419,2.419,2.419,2.419,1.4086,1.4739,1.564,0.0,1.8906,1.9697,2.0698,2.188,2.2698,2.2453,2.3076,2.3708,2.3884,2.4202,2.4575,0.0,2.5385,2.5625,2.5584,2.5623,2.5466,2.4916,2.5077,2.4993,2.4426,2.4366,2.4204,2.3798,2.3579,2.3253,2.2688,2.2444,2.22,2.1945,2.167,2.145,2.1303,2.1303,2.1195,2.0991,2.0991,2.0894,2.0731,2.0731,2.0632,2.0431,2.023,2.0112,2.0112,1.9814,2.0004,2.0447,2.0174,2.0243,2.0413,1.9889,1.969,1.969,1.969,1.969,1.969,1.969,1.969,1.9747,1.9965,2.0158,2.0416,2.0894,2.1197,2.1446,2.1899,2.2003,2.2061,2.2237,2.231,2.231,2.231,2.231,2.2388,2.266,2.2822,2.2964,2.3156,2.3306,2.3083,2.2099,2.1108,2.0374,2.0042,1.9583,1.9473,1.995,2.0301,2.1035,2.2391,2.2813,2.3199,2.3676,2.4006,2.419,2.419,2.419,2.419,2.419,2.419,2.419,2.419,2.419,2.419,2.419,2.419,2.419,1.4896,1.5784,1.6708,1.9626,2.0788,2.1449,2.2538,2.3547,2.4271,2.4315,2.4815,2.5263,2.5297,2.5318,2.5337,2.5402,2.5453,2.5486,2.5498,2.5574,2.5386,2.4718,2.5193,2.5499,2.5337,2.5108,2.4994,2.4982,2.454,2.4204,2.4118,2.3603,2.3191,2.2923,2.2554,2.2348,2.2377,2.2113,2.1965,2.1933,2.1705,2.1546,2.1425,2.1227,2.107,2.0991,2.0991,2.0991,2.0959,2.0616,2.0682,2.0959,2.0616,2.0682,2.0926,2.0277,2.005,2.005,2.005,2.005,2.005,2.005,2.005,2.0104,2.0382,2.0583,2.0797,2.143,2.1688,2.1869,2.2209,2.231,2.231,2.231,2.231,2.231,2.231,2.231,2.2388,2.266,2.2772,2.3021,2.3588,2.3774,2.3717,2.3381,2.2098,2.1016,2.0558,1.9987,2.0023,2.1071,2.1181,2.1768,2.3217,2.3327,2.3584,2.4153,2.419,2.4228,2.4284,2.4284,2.4303,2.4357,2.4357,2.4357,2.4357,2.4357,2.4357,2.4357,2.4357,2.4339,1.4341,0.0,1.6167,1.8863,2.1086,2.2886,2.3761,2.496,2.5819,2.543,2.5373,2.5271,2.4896,2.481,2.4915,2.5178,2.5207,2.5277,2.5473,2.5488,2.5498,2.5464,2.5479,2.5522,0.0,2.5525,2.5736,2.6384,2.5642,2.5305,2.5621,2.4828,2.4168,2.3785,2.3562,2.3833,2.4586,2.3625,2.3536,2.4297,2.3495,2.2919,2.2522,2.1802,2.1303,2.0991,2.0991,2.0991,2.0991,2.0991,2.1007,2.0991,2.0991,2.1007,2.0991,2.0959,2.0959,2.0959,2.0959,2.0959,2.0959,2.0959,2.0959,2.0959,2.0959,2.1244,2.1552,2.1582,2.1928,2.2282,2.231,2.231,2.231,2.231,2.231,2.231,2.231,2.231,2.2388,2.266,2.2972,2.3282,2.3649,2.3976,2.419,2.4171,2.3456,2.2337,2.0704,2.0484,2.109,2.274,2.2905,2.3272,2.408,2.4153,2.4171,2.419,2.419,2.4284,2.4478,2.4495,2.4575,2.4775,2.479,2.479,2.479,2.479,2.479,2.479,2.479,2.467,1.4395,1.5945,1.7512,2.0113,2.166,2.2953,2.4398,2.4983,2.5189,2.5189,2.4275,2.3345,2.2955,2.2047,2.1777,2.3072,2.3313,2.3736,2.4878,2.5194,2.5082,2.4516,2.5073,0.0,0.0,0.0,0.0,2.664,2.644,2.6495,2.7005,2.6792,2.6511,2.6204,2.6123,2.609,2.6097,2.5761,2.5623,2.5655,2.4711,2.3825,2.2986,2.2728,2.2574,2.246,2.2218,2.2124,2.2096,2.1595,2.1568,2.1827,2.1507,2.1584,2.1857,2.1857,2.1857,2.1781,2.1197,2.0991,2.0991,2.0991,2.0991,2.1055,2.1306,2.1491,2.1658,2.1974,2.218,2.231,2.231,2.231,2.2349,2.2527,2.2563,2.2643,2.2857,2.2908,2.3007,2.33,2.3437,2.3649,2.3976,2.4132,2.4025,2.3492,2.318,2.2611,2.1492,2.1363,2.1785,2.2887,2.2997,2.3327,2.4135,2.419,2.4266,2.4393,2.441,2.4495,2.4685,2.47,2.4731,2.4804,2.4804,2.4804,2.4804,2.4804,2.4804,2.4804,2.4804,2.476,1.4437,1.6425,1.8398,2.0623,2.1842,2.2786,2.3915,2.4231,2.4132,2.3591,2.2663,2.1685,2.0802,1.969,1.9499,2.1255,2.1358,2.1878,2.3783,2.4301,2.4376,2.4081,2.4801,2.5233,0.0,0.0,0.0,2.7237,2.7293,2.7602,2.8317,2.8096,2.785,2.7661,2.7577,2.7573,2.7597,2.7207,2.6889,2.6656,2.6004,2.5082,2.3947,2.3947,2.3669,2.3189,2.2972,2.2873,2.2848,2.2361,2.2341,2.2581,2.2269,2.2368,2.2624,2.2624,2.2624,2.2527,2.1845,2.1622,2.1622,2.1736,2.1795,2.1824,2.2096,2.2169,2.2241,2.2554,2.2624,2.2624,2.2624,2.2814,2.3014,2.2892,2.3107,2.328,2.3236,2.3189,2.33,2.3631,2.3692,2.3816,2.4151,2.419,2.4025,2.3511,2.3492,2.3233,2.2335,2.2226,2.2538,2.3345,2.3437,2.3676,2.4266,2.4303,2.4393,2.4591,2.4607,2.47,2.485,2.4864,2.491,2.4981,2.4994,2.4994,2.4994,2.4994,2.4994,2.4994,2.4994,2.4936,1.4559,1.6688,1.8698,2.042,2.1622,2.2393,2.2429,2.2762,2.2619,2.0852,2.0609,2.0211,0.0,0.0,1.8121,1.9844,1.9549,1.9961,2.239,2.3,2.3465,0.0,0.0,0.0,0.0,0.0,0.0,2.8155,0.0,2.8725,2.9647,2.8906,2.8431,2.8364,2.8139,2.8403,2.9224,2.8167,2.7576,2.7453,2.7396,2.6662,2.5335,2.5335,2.4574,2.3259,2.3259,2.3236,2.3212,2.3212,2.3189,2.3189,2.3189,2.3189,2.3189,2.3189,2.3189,2.3165,2.2873,2.2746,2.2772,2.3093,2.3189,2.3189,2.3189,2.3189,2.3189,2.3189,2.3189,2.3206,2.3242,2.3832,2.4204,2.3513,2.3927,2.4264,2.3466,2.3307,2.3399,2.3725,2.3804,2.3925,2.4206,2.4263,2.4245,2.4208,2.4375,2.4166,2.3198,2.3088,2.3382,2.4154,2.4228,2.4303,2.4495,2.4512,2.4591,2.4804,2.4818,2.4864,2.501,2.5022,2.5099,2.5303,2.5303,2.5303,2.5303,2.5303,2.5303,2.5303,2.5303,2.5203,1.6389,1.7792,1.8981,2.0919,2.1314,2.1261,2.1313,2.0848,2.014,1.9298,1.7802,1.6591,0.0,0.0,0.0,1.8627,1.9305,0.0,2.2744,2.3286,0.0,2.4026,0.0,2.5565,2.6062,2.7393,0.0,0.0,2.9547,3.0697,3.2182,3.2141,3.2031,3.1987,3.1281,3.1312,3.2123,3.1165,3.026,2.9443,2.8744,2.7513,2.5818,2.5818,2.5218,2.4155,2.3909,2.3726,2.3544,2.3282,2.3189,2.3189,2.3189,2.3189,2.3189,2.3189,2.3189,2.3212,2.3392,2.3277,2.3093,2.3165,2.3189,2.3189,2.3189,2.3189,2.3189,2.3189,2.3189,2.333,2.3939,2.424,2.4562,2.5213,2.5535,2.551,2.4972,2.485,2.4871,2.4951,2.5445,2.5704,2.5181,2.509,2.4887,2.4281,2.4375,2.4403,2.4148,2.4244,2.4429,2.462,2.4639,2.467,2.4716,2.4731,2.4785,2.4937,2.4949,2.503,2.5214,2.5224,2.5253,2.5303,2.5303,2.5303,2.5303,2.5303,2.5303,2.5303,2.5303,2.5274,1.7058,1.8126,1.9074,2.0593,2.058,2.0156,2.0074,1.9378,1.8331,1.7045,1.5822,0.0,1.5084,1.4247,0.0,0.0,0.0,0.0,2.1416,2.2594,2.3221,0.0,2.4699,0.0,2.6189,2.7539,2.8941,0.0,3.0865,3.1612,3.2584,3.3072,3.3292,3.3253,3.2771,3.2749,3.3197,3.2327,3.1568,3.0941,3.003,2.8798,2.7323,2.7331,2.6735,2.5705,0.0,2.4817,2.4672,2.4134,2.3911,2.3911,2.3911,2.3911,2.3911,2.3911,2.3911,2.393,2.4118,2.4062,2.3871,2.3699,2.3649,2.3649,2.3649,2.3699,2.384,2.4187,2.4363,2.4626,2.5452,2.5928,2.6243,2.6408,2.672,2.6775,2.608,2.5915,2.5915,2.5915,2.6282,2.6337,2.555,2.5403,2.5167,2.4432,2.4512,2.4636,2.4708,2.4771,2.4804,2.4804,2.4804,2.4814,2.4877,2.4891,2.4956,2.5111,2.5122,2.5173,2.5303,2.5303,2.5303,2.5303,2.5303,2.5303,2.5303,2.5303,2.5303,2.5303,2.5303,2.5495,1.7256,1.8158,1.9088,1.9936,1.9722,1.915,1.8738,1.8004,1.6858,1.4848,0.0,1.4422,1.4658,1.3349,1.3345,1.6729,0.0,1.6559,1.9723,2.1464,2.2548,2.2834,2.4491,2.5841,2.6472,2.7382,2.9001,3.1562,3.167,3.1833,3.2318,3.2955,3.3351,3.3371,3.3487,3.3471,3.3369,3.2674,3.2306,3.2232,3.1242,3.0224,2.922,2.9102,2.8364,2.7138,0.0,0.0,2.594,2.5144,2.495,2.5135,2.5012,2.4955,2.4955,2.4955,2.4898,2.4804,2.4804,2.4804,2.4746,2.4393,2.4284,2.4284,2.4284,2.441,2.4676,2.5381,2.5775,2.6201,2.7062,2.7878,2.8282,2.7473,2.7811,2.8034,2.7032,2.678,2.6759,2.6783,2.6854,2.6631,2.5713,2.5588,2.5355,2.4608,2.47,2.4883,2.4986,2.4917,2.4874,2.4874,2.4874,2.4923,2.5022,2.5034,2.5111,2.5303,2.5303,2.5303,2.5303,2.5303,2.5303,2.5303,2.5303,2.5303,2.5303,2.5303,2.5303,2.5303,2.5418,2.589,1.8165,1.8701,1.9211,1.9756,1.9321,1.8348,1.6932,1.6021,0.0,0.0,1.3496,1.3388,1.4836,1.4519,1.4843,1.7294,1.7263,1.7887,2.061,2.0982,2.1636,0.0,2.4599,0.0,0.0,0.0,0.0,0.0,0.0,3.18,3.4488,3.4192,3.4045,3.4269,3.4918,3.4951,3.4275,3.4142,3.4062,3.4038,3.2435,3.1229,3.0379,2.965,2.8315,2.6542,2.6389,0.0,2.6013,2.5152,2.5646,2.6863,2.609,2.5786,2.5786,2.5786,2.537,2.4804,2.4804,2.4804,2.479,2.4716,2.47,2.47,2.47,2.4716,2.4783,2.493,2.5454,2.6182,2.7013,2.7862,2.8617,2.9096,2.9304,2.9138,2.8071,2.7701,2.7653,2.7806,2.8233,2.8113,2.6649,2.6519,2.6135,2.4718,2.4766,2.4974,2.4998,2.513,2.5222,2.5222,2.5222,2.5233,2.5253,2.5253,2.5264,2.5303,2.5303,2.5303,2.5303,2.5303,2.5303,2.5303,2.5303,2.5303,2.5303,2.5303,2.5303,2.5322,2.6043,2.6467,1.7521,1.8081,1.8721,1.9639,1.9121,1.8047,1.7061,0.0,0.0,0.0,1.3818,1.3782,1.4986,1.4557,0.0,1.6433,1.644,1.709,1.9647,2.0327,0.0,2.3005,2.4056,0.0,0.0,0.0,0.0,0.0,0.0,3.0246,3.2861,3.3468,3.3843,3.4125,3.499,3.5111,3.4399,3.4464,3.4276,3.3812,3.2515,3.1462,3.0635,3.0214,2.9499,2.8562,2.8135,0.0,2.7752,2.6879,2.7016,2.7716,2.7275,2.7084,2.7097,2.7083,2.6847,2.6522,2.6522,2.6522,2.6446,2.5982,2.538,2.4804,2.4804,2.4855,2.5094,2.5999,2.6618,2.7275,2.854,2.9202,2.9499,2.9285,2.912,2.9019,2.895,2.8858,2.8819,2.8895,2.9175,2.8835,2.7214,2.6989,2.6529,2.4997,2.4898,2.5034,2.5152,2.5234,2.5303,2.5303,2.5303,2.5303,2.5303,2.5303,2.5303,2.5303,2.5303,2.5303,2.5303,2.5303,2.5303,2.5303,2.5303,2.5514,2.5986,2.5986,2.6217,2.6659,2.7082,2.7505,1.6497,1.7226,1.8095,1.9114,1.8667,1.7712,1.6938,1.629,0.0,1.4616,1.4298,1.4479,1.5376,1.4601,1.4243,0.0,1.5305,1.5802,1.8141,1.9267,2.0502,0.0,2.3361,0.0,0.0,0.0,0.0,0.0,0.0,0.0,3.0696,3.2391,3.3356,3.3456,3.4343,3.4591,3.4102,3.429,3.4041,3.334,3.2737,3.1907,3.0877,3.0889,3.0663,3.0264,2.9622,0.0,0.0,2.8428,2.8272,2.8611,2.8401,2.8326,2.8321,2.8326,2.8222,2.8081,2.8081,2.8092,2.7997,2.7303,2.6231,2.5194,2.501,2.5152,2.5662,2.7038,2.7677,2.8294,2.9794,3.0217,3.0067,2.9327,2.8831,2.8752,2.9658,2.9765,2.9713,2.9765,2.958,2.8942,2.7468,2.7236,2.6744,2.5234,2.5206,2.5321,2.5293,2.5457,2.5514,2.5322,2.5303,2.5303,2.5303,2.5303,2.5303,2.5322,2.5322,2.5409,2.5601,2.562,2.5591,2.5601,2.5774,2.6101,2.6601,2.6794,2.7236,2.789,2.8082,2.8486,1.5918,1.6706,1.7327,1.7599,1.749,1.6862,1.4875,0.0,1.5076,1.4371,1.4221,1.4692,1.6336,1.5471,1.4788,1.5647,0.0,1.4955,1.6822,1.7427,1.8787,2.1794,0.0,0.0,0.0,0.0,0.0,0.0,0.0,0.0,3.0088,3.1942,3.276,3.2353,3.3128,3.3526,3.3469,3.3865,3.3993,3.3846,3.4121,3.3392,3.1785,3.1773,3.0882,2.9328,2.9257,0.0,0.0,2.8281,2.8842,3.0199,2.9416,2.9057,2.9022,2.9079,2.8639,2.8005,2.8005,2.8041,2.8082,2.8004,2.7365,2.6467,2.5686,2.5995,2.6679,2.6833,2.7458,2.8305,2.925,2.9448,2.9579,3.019,2.9586,2.9135,3.0119,3.0007,2.9746,2.9939,2.9204,2.8244,2.7355,2.7342,2.6917,2.5246,2.5833,2.6158,2.5399,2.5986,2.6178,2.538,2.5303,2.5303,2.5303,2.5303,2.5322,2.539,2.539,2.5765,2.6631,2.6601,2.6563,2.6574,2.7285,2.7313,2.6601,2.739,2.7813,2.7909,2.864,2.9025,1.4971,1.6336,1.7377,1.7706,1.7043,1.6085,1.5211,0.0,1.4552,1.471,1.4731,1.4922,1.5492,1.5232,1.4811,1.4303,0.0,0.0,1.6543,1.6721,1.802,2.1788,0.0,0.0,0.0,0.0,0.0,0.0,0.0,0.0,2.8347,3.0233,3.1052,3.0535,3.1992,3.2415,3.1615,3.2463,3.2673,3.2159,3.2324,3.1857,3.0867,3.0877,3.0568,3.0036,3.0036,0.0,0.0,2.9616,2.9862,3.0361,3.0128,3.0029,3.0002,3.0037,2.9842,2.9555,2.9549,2.9608,2.9586,2.9095,2.8746,2.8307,2.7343,2.7304,2.7575,2.7575,2.8216,2.8953,2.9261,2.9342,2.9559,3.0419,2.9881,2.944,3.0275,3.0299,3.018,3.0228,2.9901,2.9344,2.8498,2.8013,2.734,2.6132,2.5868,2.589,2.6063,2.5928,2.6101,2.6794,2.6851,2.6659,2.614,2.6563,2.6871,2.6909,2.6939,2.7141,2.7517,2.7539,2.7547,2.7545,2.7855,2.8105,2.8287,2.8634,2.9047,2.9525,2.9813,2.9948,1.3808,1.5315,1.6536,1.7103,1.6266,1.5289,0.0,0.0,1.3981,1.4602,1.4845,1.487,1.4732,1.4735,1.4401,0.0,0.0,1.3789,1.5395,1.5845,1.7166,0.0,0.0,0.0,0.0,0.0,0.0,0.0,0.0,0.0,2.6872,2.8548,2.9334,2.8963,3.055,3.0976,3.0033,3.0937,3.116,3.0694,3.1035,3.08,3.0051,3.0308,3.0412,3.0335,0.0,0.0,0.0,3.0285,3.0279,3.0087,3.0451,3.0549,3.054,3.0565,3.0564,3.0579,3.0565,3.0618,3.0586,3.0014,2.9862,2.9783,2.9081,2.8727,2.8493,2.8239,2.8964,2.976,2.9472,2.9409,2.9666,3.0506,3.0045,2.9641,3.0366,3.0524,3.0506,3.0448,3.0225,2.984,2.9198,2.8621,2.7967,2.7101,2.6467,2.6294,2.6909,2.6447,2.6544,2.7775,2.8332,2.8198,2.7112,2.7574,2.7939,2.7988,2.8018,2.8184,2.8466,2.851,2.8515,2.8504,2.8736,2.9021,2.9399,2.9901,3.0289,3.0617,3.081,3.0788,1.2245,1.3455,1.4291,1.5196,1.4922,1.4268,0.0,0.0,1.3416,1.3822,1.4214,1.4501,1.4487,1.4065,1.3599,1.3268,1.2686,0.0,1.2784,1.4539,0.0,0.0,0.0,0.0,0.0,0.0,0.0,0.0,0.0,0.0,2.6013,2.7157,2.7858,2.7904,2.8716,2.9136,2.9118,2.9395,2.9689,3.0031,3.1157,3.0995,2.9732,3.0599,3.0524,0.0,0.0,0.0,0.0,2.9769,2.9817,2.9576,3.0247,3.0467,3.041,3.0487,3.0506,3.0506,3.0506,3.0537,3.0601,3.0593,3.0632,3.0684,3.0684,3.0156,2.9394,2.8535,2.9551,3.0684,2.9824,2.9609,2.9785,3.0527,3.0078,2.9702,3.0438,3.0597,3.0583,3.0506,2.9809,2.9183,2.9102,2.9083,2.8813,2.8005,2.7871,2.7871,2.789,2.7871,2.7871,2.789,2.939,2.9737,2.8123,2.7988,2.8067,2.8193,2.8193,2.8618,2.9531,2.9512,2.9492,2.9492,3.0201,3.0183,2.9406,3.1065,3.1423,3.0619,3.1481,3.1421,1.116,1.2129,1.2821,1.3132,1.2836,1.2488,1.2732,1.2512,1.2518,1.3677,1.4,1.4181,1.4438,1.4349,1.394,1.3011,1.2689,0.0,0.0,0.0,0.0,0.0,0.0,0.0,0.0,0.0,0.0,0.0,0.0,0.0,2.5977,2.6671,2.7063,2.71,2.8094,2.8359,2.7866,2.8227,2.8478,2.856,2.8935,2.8966,2.8682,2.8452,0.0,0.0,0.0,0.0,0.0,2.7926,2.7874,2.7512,2.8077,2.8299,2.8265,2.8318,2.8665,2.9155,2.9281,2.9384,2.9555,3.0288,2.9793,2.8916,2.8922,2.9658,3.043,3.0156,3.0059,3.0098,3.041,3.0488,3.0547,3.0781,3.0644,3.0507,3.0636,3.0677,3.0652,3.0586,3.0346,3.0148,3.0121,2.9667,2.9194,2.8837,2.833,2.8148,2.8659,2.8236,2.8332,2.9486,2.9583,2.9382,2.8863,2.9382,2.9757,2.9834,2.9893,3.0046,3.0338,3.042,3.0469,3.0469,3.0698,3.0966,3.1301,3.1844,3.2215,3.245,3.2723,3.2682,0.0,1.1297,1.1659,1.2044,1.1675,0.0,0.0,1.1734,1.1616,1.3308,1.3467,1.3487,1.3927,1.3845,1.3552,1.3075,1.2661,1.2816,0.0,0.0,0.0,0.0,0.0,0.0,0.0,0.0,0.0,0.0,0.0,0.0,2.5373,2.6068,2.6453,2.6453,2.7283,2.7532,2.71,2.7334,2.753,2.7678,2.7678,2.7685,2.7663,2.7205,0.0,0.0,0.0,0.0,0.0,2.6577,2.652,2.6147,2.684,2.7118,2.7118,2.7255,2.7611,2.808,2.8198,2.8523,2.8924,2.9289,2.8799,2.8135,2.847,2.9177,2.9988,3.0644,3.043,3.0135,3.0677,3.0813,3.0813,3.0818,3.082,3.082,3.0781,3.0781,3.074,3.0668,3.0631,3.0634,3.0607,3.0173,2.9815,2.9738,2.903,2.8925,3.0017,2.9451,2.9481,3.0825,3.0518,3.0094,2.9786,3.0256,3.0617,3.0708,3.0755,3.0773,3.0773,3.0855,3.1055,3.1387,3.1387,3.1816,3.2656,3.2656,3.3066,3.3828,3.3496,3.3315,0.0,1.0822,1.0675,1.154,1.1206,0.0,0.0,0.0,0.0,1.2831,1.2834,1.2645,1.32,1.2872,1.2749,1.3394,1.2729,0.0,0.0,0.0,0.0,0.0,0.0,0.0,0.0,0.0,0.0,0.0,0.0,0.0,2.4389,2.5373,2.5924,2.5924,2.6317,2.6539,2.6623,2.6623,2.6788,2.7106,2.7155,2.7004,2.6664,2.6639,2.6216,0.0,0.0,0.0,0.0,2.5517,2.5536,2.5305,2.6202,2.6543,2.6579,2.69,2.7059,2.7132,2.7148,2.7778,2.845,2.7649,2.7611,2.8025,2.8882,2.8702,2.8538,3.0222,3.0682,3.0708,3.0772,3.0729,3.0723,3.0777,3.0741,3.0723,3.0859,3.0898,3.0859,3.0742,3.0703,3.0698,3.0624,3.0623,3.0623,3.0603,3.0014,3.0147,3.1711,3.129,3.1146,3.1827,3.19,3.1588,3.0864,3.0794,3.0815,3.0898,3.1016,3.1016,3.0898,3.1016,3.1426,3.2187,3.2324,3.2754,3.3496,3.3555,3.4004,3.4766,3.3965,3.3574,1.0387,0.0,0.9271,0.9509,0.9961,1.0561,0.0,0.0,0.0,0.0,0.0,1.3448,1.4073,1.4105,1.3924,1.3702,1.3436,1.3499,0.0,0.0,0.0,0.0,0.0,0.0,0.0,0.0,0.0,0.0,0.0,2.4389,2.4389,2.5028,2.5373,2.5373,2.5005,2.512,2.5862,2.5862,2.5697,2.5397,2.5812,2.5742,2.5262,2.5105,2.4781,0.0,0.0,0.0,2.3258,2.336,2.3368,2.337,2.3861,2.406,2.406,2.4125,2.4732,2.5486,2.5707,2.606,2.6305,2.5668,2.5906,2.6498,2.674,2.7867,2.9312,3.0346,3.062,3.0774,3.1441,3.112,3.0802,3.1458,3.1144,3.0703,3.0742,3.082,3.0898,3.0859,3.0859,3.0859,3.0835,3.0834,3.0795,3.0697,3.1077,3.1512,3.1857,3.2317,3.2434,3.1953,3.1961,3.1908,3.1715,3.1696,3.1463,3.0937,3.2109,3.2246,3.0957,3.2129,3.2617,3.2207,3.3457,3.4219,3.4394,3.5059,3.5488,3.5684,3.5488,3.5391,0.9432,0.9403,0.9311,0.9665,1.0285,1.087,0.0,0.0,0.0,0.0,0.0,1.2869,1.3459,1.3833,1.3946,1.3659,1.412,0.0,0.0,0.0,0.0,0.0,0.0,0.0,0.0,0.0,0.0,0.0,0.0,2.4032,2.4032,2.4552,2.4816,2.4816,2.4722,2.4758,2.4959,2.4646,2.4363,2.4072,2.4363,2.4164,2.3551,2.365,2.3362,0.0,0.0,0.0,2.2483,2.2235,2.2279,2.2554,2.2848,2.2972,2.2996,2.3141,2.359,2.4149,2.4292,2.4588,2.4967,2.5264,2.5408,2.5521,2.588,2.6859,2.8122,2.9486,3.02,3.0662,3.1137,3.0906,3.066,3.1153,3.0923,3.0637,3.0682,3.0762,3.082,3.0898,3.0898,3.0898,3.0898,3.123,3.1465,3.1406,3.2109,3.2771,3.3138,3.3601,3.3718,3.3249,3.3214,3.308,3.2682,3.3012,3.2903,3.2109,3.2891,3.2988,3.207,3.293,3.3379,3.3359,3.4629,3.5293,3.5293,3.5762,3.5996,3.5996,3.5996,3.5996,0.8782,0.9499,1.0349,1.0735,1.1201,1.1601,1.1918,0.0,0.0,0.0,0.0,0.0,0.0,0.0,0.0,0.0,0.0,0.0,0.0,0.0,0.0,0.0,0.0,0.0,0.0,0.0,0.0,0.0,0.0,2.3595,2.3595,2.4032,2.4266,2.4266,2.4642,2.4496,2.3835,2.3391,2.3093,2.2911,2.2996,2.2675,2.1981,2.2411,2.2225,2.1491,0.0,0.0,2.2163,2.1764,2.1899,2.2321,2.2563,2.2634,2.266,2.2965,2.3087,2.3117,2.3165,2.3494,2.4059,2.52,2.5145,2.4764,2.544,2.5788,2.6307,2.8013,2.9321,3.0234,3.0412,3.0432,3.047,3.0629,3.0602,3.052,3.0648,3.0681,3.0723,3.0859,3.0898,3.0898,3.0898,3.1621,3.2207,3.2207,3.3008,3.3867,3.4609,3.4824,3.4844,3.4707,3.4697,3.44,3.3655,3.4269,3.4434,3.3848,3.3809,3.3809,3.3809,3.3672,3.4004,3.4883,3.5625,3.6074,3.6191,3.6055,3.6074,3.6191,3.6055,3.5996,1.0303,1.1612,1.2456,1.0938,1.1581,1.272,1.3259,0.0,0.0,0.0,0.0,0.0,0.0,0.0,0.0,0.0,0.0,0.0,0.0,0.0,0.0,0.0,0.0,0.0,0.0,0.0,0.0,0.0,0.0,2.3595,2.3595,2.3681,2.3709,2.3709,2.3322,2.2773,2.2106,2.2771,2.2623,2.1584,2.2038,2.1991,2.1428,2.1947,2.1811,2.1086,0.0,2.1323,2.1688,2.1628,2.1899,2.231,2.2349,2.236,2.2377,2.2415,2.2581,2.2822,2.3093,2.3259,2.3351,2.3571,2.375,2.3901,2.4028,2.4838,2.5808,2.6118,2.745,2.9023,2.9923,3.0109,3.0314,3.1296,3.1006,3.051,3.0519,3.0628,3.0703,3.0723,3.082,3.0898,3.0898,3.1621,3.2207,3.2207,3.3516,3.4551,3.4687,3.5332,3.5527,3.4785,3.4703,3.4658,3.4502,3.4628,3.4961,3.5566,3.5605,3.5605,3.5605,3.4883,3.4902,3.5781,3.5937,3.6367,3.7109,3.6367,3.6387,3.707,3.6348,3.5996,0.9976,1.0942,1.1744,1.1599,1.2706,1.3712,1.331,0.0,0.0,0.0,0.0,0.0,0.0,0.0,0.0,0.0,0.0,0.0,0.0,0.0,0.0,0.0,0.0,0.0,0.0,0.0,0.0,0.0,0.0,0.0,2.3116,2.3415,2.3445,2.3116,2.3146,2.2532,2.1171,2.1934,2.1679,2.0421,2.0705,2.0654,2.0457,2.1171,2.1327,2.0991,0.0,2.1568,2.1974,2.1688,2.1899,2.231,2.231,2.231,2.231,2.231,2.2388,2.2527,2.284,2.2923,2.2972,2.3141,2.3282,2.3414,2.3414,2.3976,2.4631,2.4631,2.6188,2.7967,2.8453,2.8886,2.9353,2.9991,3.019,3.0279,3.0463,3.0548,3.0614,3.0681,3.0742,3.0801,3.0898,3.1621,3.2344,3.2773,3.3906,3.4863,3.5332,3.5742,3.5859,3.5449,3.5391,3.5391,3.5391,3.5391,3.5566,3.5976,3.6445,3.6699,3.6699,3.6777,3.6777,3.6699,3.7168,3.7363,3.7305,3.7363,3.7617,3.7988,3.7598,3.7402,0.9642,1.0366,1.113,1.1977,0.0,1.4349,1.3682,0.0,0.0,0.0,0.0,0.0,0.0,0.0,0.0,0.0,0.0,0.0,0.0,0.0,0.0,0.0,0.0,0.0,0.0,0.0,0.0,0.0,0.0,0.0,2.2739,2.2981,2.2936,2.2458,2.2906,2.2368,2.0737,2.1216,2.0857,1.969,1.969,1.969,1.9711,2.0413,2.0698,2.0731,2.1244,2.1675,2.1974,2.184,2.1974,2.231,2.231,2.231,2.231,2.231,2.231,2.2321,2.2537,2.2599,2.2652,2.2908,2.3038,2.3093,2.3165,2.3437,2.3714,2.3795,2.5153,2.6634,2.6852,2.7511,2.824,2.8627,2.9236,2.9846,3.0286,3.0432,3.054,3.063,3.0669,3.0719,3.084,3.1582,3.2441,3.3262,3.4141,3.5019,3.5898,3.5996,3.5996,3.5996,3.5996,3.5996,3.5996,3.5996,3.6094,3.6289,3.6934,3.7305,3.7305,3.8144,3.8184,3.7324,3.8164,3.8379,3.791,3.8379,3.8691,3.8906,3.8691,3.8594,1.0254,1.146,1.2327,1.149,1.2677,0.0,1.5442,1.552,0.0,0.0,0.0,0.0,0.0,0.0,0.0,0.0,0.0,0.0,0.0,0.0,0.0,0.0,0.0,0.0,0.0,0.0,0.0,0.0,0.0,0.0,2.2724,2.2143,2.1814,2.1769,2.1814,2.147,2.0722,2.0767,2.0423,1.969,1.969,1.969,1.969,1.9747,1.9782,1.9854,2.0665,2.1055,2.1166,2.1915,2.2282,2.231,2.231,2.231,2.231,2.231,2.231,2.231,2.2321,2.2321,2.2321,2.2349,2.2527,2.2797,2.3117,2.3437,2.3756,2.4074,2.4282,2.4635,2.5574,2.641,2.7268,2.828,2.8711,2.9088,2.9875,3.0279,3.0498,3.0505,3.056,3.0642,3.0702,3.1445,3.2324,3.3262,3.4141,3.5019,3.5898,3.5996,3.5996,3.5996,3.5996,3.5996,3.5996,3.5996,3.6348,3.7168,3.7266,3.7305,3.7305,3.8144,3.8184,3.7324,3.8164,3.8965,3.9707,3.8965,3.9023,3.9785,3.8984,3.8594,1.0078,1.1562,1.2935,1.2841,0.0,0.0,0.0,0.0,0.0,0.0,0.0,0.0,0.0,0.0,0.0,0.0,0.0,0.0,0.0,0.0,0.0,0.0,0.0,0.0,0.0,0.0,0.0,0.0,0.0,0.0,0.0,2.1605,2.1515,2.1096,2.1485,2.1171,2.0094,2.0498,2.0363,1.969,1.969,1.969,1.9726,1.9965,2.0227,2.0532,2.1118,2.1538,2.1827,2.2152,2.231,2.231,2.231,2.231,2.231,2.231,2.231,2.231,2.231,2.231,2.231,2.231,2.2666,2.3061,2.2735,2.318,2.3788,2.362,2.4075,2.4777,2.5372,2.5744,2.6338,2.7885,2.8449,2.8867,2.9794,3.0228,3.0448,3.0487,3.0518,3.0558,3.0622,3.1362,3.2249,3.3145,3.4027,3.4911,3.582,3.5937,3.5957,3.5996,3.6484,3.6582,3.6055,3.6992,3.7539,3.7305,3.7305,3.7793,3.8867,3.9238,3.9258,3.8926,3.9766,4.0117,3.9902,4.0117,4.0391,4.0703,4.0371,4.0215,0.9874,1.1407,1.287,0.0,0.0,0.0,0.0,0.0,0.0,0.0,0.0,0.0,0.0,0.0,0.0,0.0,0.0,0.0,0.0,0.0,0.0,0.0,0.0,0.0,0.0,0.0,0.0,0.0,0.0,0.0,0.0,2.0932,2.0857,2.0408,2.0827,2.0617,1.969,2.0154,2.0154,1.969,1.969,1.969,1.9726,2.0,2.0296,2.0599,2.1007,2.1477,2.1915,2.2032,2.218,2.231,2.231,2.231,2.2344,2.2564,2.2649,2.2649,2.2649,2.2649,2.2615,2.2395,2.2801,2.3287,2.262,2.3275,2.4153,2.3668,2.4361,2.5362,2.5834,2.5871,2.6086,2.732,2.7998,2.8659,2.9687,3.0109,3.0299,3.0436,3.0698,3.0814,3.0602,3.1506,3.2452,3.3111,3.3934,3.4816,3.5714,3.5832,3.5989,3.6347,3.6934,3.7168,3.6855,3.791,3.8359,3.7754,3.7715,3.8125,3.9043,3.9609,3.9766,3.9492,4.0625,4.0918,4.0312,4.0918,4.1191,4.1191,4.1191,4.1191,0.9814,1.1043,1.2174,0.0,0.0,0.0,0.0,0.0,0.0,0.0,0.0,0.0,0.0,0.0,0.0,0.0,0.0,0.0,0.0,0.0,0.0,0.0,0.0,0.0,0.0,0.0,0.0,0.0,0.0,0.0,0.0,2.0049,1.969,1.969,1.969,1.969,1.969,1.9711,1.9726,1.9726,1.9726,1.9726,1.969,1.9711,1.9726,1.9711,2.0158,2.0583,2.1039,2.143,2.1869,2.2282,2.231,2.231,2.2395,2.3122,2.3393,2.3376,2.3393,2.3393,2.3274,2.2547,2.2801,2.3299,2.285,2.3759,2.4906,2.4435,2.5116,2.6189,2.697,2.69,2.6631,2.6631,2.7392,2.839,2.9472,2.9861,3.0075,3.0336,3.1102,3.1448,3.066,3.1903,3.3064,3.319,3.3953,3.4807,3.5603,3.5699,3.6094,3.7089,3.7266,3.7676,3.8535,3.8613,3.8613,3.8594,3.8613,3.8223,3.7363,3.8984,3.9492,3.8633,4.0312,4.1191,4.1191,4.1191,4.1191,4.1191,4.1191,4.1191,1.0841,1.2794,0.0,0.0,0.0,0.0,0.0,0.0,0.0,0.0,0.0,0.0,0.0,0.0,0.0,0.0,0.0,0.0,0.0,0.0,0.0,0.0,0.0,0.0,0.0,0.0,0.0,0.0,0.0,0.0,0.0,1.9794,1.969,1.969,1.969,1.969,1.969,1.9965,2.0124,2.0124,2.0465,2.0277,1.9726,2.0,2.0296,2.0632,2.1039,2.129,2.143,2.1552,2.1688,2.1823,2.218,2.231,2.2395,2.3122,2.3071,2.2699,2.3224,2.3054,2.2598,2.2378,2.2801,2.3287,2.2637,2.3465,2.4547,2.4143,2.5048,2.6151,2.6325,2.7115,2.7949,2.8215,2.8186,2.8371,2.9288,2.9765,3.0013,3.0089,3.0957,3.1621,3.1391,3.2718,3.3853,3.3897,3.4647,3.5301,3.5603,3.6203,3.6754,3.7166,3.8262,3.8887,3.8613,3.9726,3.9902,3.8672,3.918,3.9394,3.9141,3.9629,4.0078,4.043,4.0937,4.1191,4.1191,4.1191,4.1191,4.1191,4.1191,4.1191,1.1109,1.3306,0.0,0.0,0.0,0.0,0.0,0.0,0.0,0.0,0.0,0.0,0.0,0.0,0.0,0.0,0.0,0.0,0.0,0.0,0.0,0.0,0.0,0.0,0.0,0.0,0.0,0.0,0.0,0.0,0.0,1.969,1.969,1.969,1.969,1.969,1.969,1.9929,2.0158,2.0314,2.0431,2.0413,2.0208,2.0465,2.0715,2.0991,2.1244,2.1275,2.1102,2.1275,2.1368,2.1415,2.184,2.2032,2.2116,2.3064,2.3291,2.319,2.3342,2.3291,2.3071,2.2496,2.2801,2.3308,2.2868,2.3765,2.4893,2.4645,2.5574,2.6655,2.6721,2.7571,2.8424,2.8507,2.8489,2.8619,2.9262,2.9589,2.9907,3.0422,3.1355,3.2083,3.2167,3.3583,3.4603,3.4237,3.4949,3.5526,3.5565,3.6089,3.6612,3.7034,3.8344,3.9141,3.9043,4.0371,4.0605,3.9199,3.9922,4.0254,3.9902,3.9902,4.0156,4.0664,4.1016,4.1191,4.1191,4.1191,4.1191,4.1191,4.1191,4.1191,1.0956,0.0,0.0,0.0,0.0,0.0,0.0,0.0,0.0,0.0,0.0,0.0,0.0,0.0,0.0,0.0,0.0,0.0,0.0,0.0,0.0,0.0,0.0,0.0,0.0,0.0,0.0,0.0,0.0,0.0,0.0,1.969,1.969,1.969,1.969,1.969,1.9639,1.9711,1.9909,2.023,1.9929,2.0243,2.0991,2.0991,2.1023,2.1103,2.0991,2.0715,2.0382,2.0797,2.0926,2.0991,2.143,2.1582,2.1741,2.2942,2.3765,2.4218,2.3596,2.3782,2.4069,2.275,2.275,2.3291,2.3291,2.4323,2.5507,2.5507,2.6339,2.7365,2.7783,2.8129,2.8265,2.7972,2.8484,2.9067,2.931,2.9392,2.9738,3.0899,3.192,3.2664,3.2839,3.4339,3.5238,3.443,3.4988,3.5493,3.5493,3.5699,3.6103,3.682,3.793,3.8904,3.9648,4.0605,4.0859,4.0078,4.0762,4.084,4.0059,4.0019,4.0019,4.0019,4.0801,4.1191,4.1191,4.1191,4.1191,4.1191,4.1191,4.1191,1.152,1.2971,0.0,0.0,0.0,0.0,0.0,0.0,0.0,0.0,0.0,0.0,0.0,0.0,0.0,0.0,0.0,0.0,0.0,0.0,0.0,0.0,0.0,0.0,0.0,0.0,0.0,0.0,0.0,0.0,1.969,1.969,1.969,1.969,1.969,1.9479,1.908,1.9793,2.0039,0.0,2.0416,2.0829,2.0991,2.0991,2.1354,2.1945,2.091,2.0583,2.0829,2.055,2.0449,2.0516,2.129,2.1582,2.1741,2.2942,2.3122,2.2835,2.3241,2.3122,2.2733,2.2412,2.2412,2.2547,2.2547,2.3562,2.4729,2.4729,2.5773,2.6987,2.7707,2.7936,2.8121,2.862,2.8865,2.9017,2.9067,2.9246,2.947,2.9756,3.1309,3.2615,3.2664,3.4251,3.5449,3.5257,3.5391,3.5493,3.5493,3.6661,3.7315,3.6939,3.8878,4.0068,3.9725,4.0527,4.1016,4.0937,4.1094,4.1113,4.0937,4.0918,4.0918,4.0918,4.1094,4.1191,4.1191,4.1191,4.1191,4.1191,4.1191,4.1191,1.1044,0.0,0.0,0.0,0.0,0.0,0.0,0.0,0.0,0.0,0.0,0.0,0.0,0.0,0.0,0.0,0.0,0.0,0.0,0.0,0.0,0.0,0.0,0.0,0.0,0.0,0.0,0.0,0.0,1.969,1.969,1.969,1.969,1.969,1.969,1.9566,1.9281,1.9788,1.9984,1.9939,2.0227,2.0465,2.0682,2.1118,2.1538,2.1928,2.1228,2.0813,2.0665,2.0416,2.0193,2.0089,2.0975,2.1306,2.1448,2.2497,2.2852,2.2835,2.2868,2.2852,2.2784,2.2412,2.231,2.2446,2.3139,2.3883,2.4659,2.5338,2.6099,2.6873,2.7678,2.7897,2.8093,2.8815,2.8994,2.8994,2.8994,2.9406,2.9931,3.0453,3.1748,3.2959,3.3523,3.4547,3.5354,3.5493,3.5493,3.5493,3.5493,3.6603,3.7219,3.6848,3.8763,3.9953,3.968,4.0489,4.1055,4.1191,4.1191,4.1191,4.1191,4.1191,4.1191,4.1191,4.1191,4.1191,4.1191,4.1191,4.1191,4.1191,4.1191,4.1191,0.0,0.0,0.0,0.0,0.0,0.0,0.0,0.0,0.0,0.0,0.0,0.0,0.0,0.0,0.0,0.0,0.0,0.0,0.0,0.0,0.0,0.0,0.0,0.0,0.0,0.0,0.0,0.0,0.0,1.9603,1.969,1.969,1.969,1.969,1.969,1.9639,1.9566,1.9639,1.9839,2.0074,1.9803,1.9909,2.0314,2.1039,2.146,2.1582,2.146,2.1007,2.0416,2.0348,2.0089,1.9874,2.0764,2.1086,2.1181,2.202,2.2699,2.3122,2.2513,2.2699,2.3122,2.2649,2.2496,2.275,2.4069,2.4608,2.4932,2.6167,2.659,2.6873,2.7678,2.7897,2.8093,2.8815,2.8994,2.8994,2.8994,2.9641,3.047,3.1355,3.2359,3.3428,3.4563,3.4981,3.5239,3.5479,3.5493,3.5565,3.5699,3.643,3.693,3.693,3.8517,3.9572,3.9572,4.0429,4.1011,4.1152,4.1172,4.1172,4.1191,4.1191,4.1191,4.1191,4.1191,4.1191,4.1191,4.1191,4.1191,4.1191,4.1191,4.1191,0.0,0.0,0.0,0.0,0.0,0.0,0.0,0.0,0.0,0.0,0.0,0.0,0.0,0.0,0.0,0.0,0.0,0.0,0.0,0.0,0.0,0.0,0.0,0.0,0.0,0.0,0.0,0.0,1.893,1.9207,1.969,1.969,1.969,1.969,1.969,1.9479,1.9006,1.9479,1.9479,1.9103,1.9515,1.9909,2.0299,2.04,2.0894,2.1552,2.0797,2.0649,2.0862,2.0483,2.028,2.0314,2.1165,2.1521,2.1598,2.2106,2.2361,2.2446,2.2344,2.2378,2.2547,2.3071,2.3241,2.341,2.4269,2.4932,2.549,2.5693,2.6201,2.6873,2.7678,2.7897,2.8093,2.8815,2.8994,2.8994,2.8994,2.9641,3.0228,3.041,3.1992,3.3715,3.4846,3.5273,3.5446,3.5493,3.5493,3.5757,3.6449,3.7296,3.7834,3.7834,3.935,4.01,3.948,4.0231,4.0831,4.1015,4.1035,4.1074,4.1191,4.1191,4.1191,4.1191,4.1191,4.1191,4.1191,4.1191,4.1191,4.1191,4.1191,4.1191,0.8632,0.0,0.0,0.0,0.0,0.0,0.0,0.0,0.0,0.0,0.0,0.0,0.0,0.0,0.0,0.0,0.0,0.0,0.0,0.0,0.0,0.0,0.0,0.0,0.0,0.0,0.0,0.0,1.8361,1.8557,1.9101,1.9136,1.9136,1.9136,1.9495,1.9603,1.9369,1.9566,1.9566,1.9369,1.9603,1.9782,1.9965,2.0177,2.0765,2.1582,2.1197,2.1007,2.0991,2.1007,2.0732,2.0382,2.1259,2.1582,2.1658,2.2135,2.231,2.231,2.231,2.231,2.2361,2.2682,2.3054,2.3528,2.4286,2.5017,2.5693,2.6099,2.6437,2.6873,2.7678,2.7897,2.8093,2.8815,2.8994,2.9104,2.9586,3.0301,3.1127,3.2045,3.2976,3.3904,3.4718,3.4981,3.5138,3.5446,3.5493,3.5795,3.6603,3.7469,3.818,3.8681,3.9777,4.0408,4.0138,4.0491,4.0788,4.0993,4.101,4.1055,4.1191,4.1191,4.1191,4.1191,4.1191,4.1191,4.1191,4.1191,4.1191,4.1191,4.1191,4.1191,0.0,0.0,0.0,0.0,0.0,0.0,0.0,0.0,0.0,0.0,0.0,0.0,0.0,0.0,0.0,0.0,0.0,0.0,0.0,0.0,0.0,0.0,0.0,0.0,0.0,0.0,0.0,0.0,1.7455,1.7641,1.8263,1.8297,1.8346,1.8448,1.8927,1.9181,1.9181,1.9181,1.9181,1.9181,1.9181,1.9271,1.9471,1.9878,2.0509,2.129,2.1399,2.1275,2.1023,2.143,2.1228,2.0699,2.1491,2.1794,2.1823,2.218,2.231,2.231,2.231,2.231,2.2344,2.253,2.2953,2.3562,2.4492,2.5152,2.5761,2.6488,2.6691,2.6873,2.7678,2.8039,2.8378,2.9126,2.9475,2.9769,3.0375,3.1146,3.2118,3.3532,3.3868,3.4037,3.4486,3.4714,3.502,3.5622,3.5753,3.618,3.7238,3.793,3.8661,3.9508,4.0142,4.0543,4.0639,4.0658,4.0735,4.0908,4.0948,4.1108,4.1465,4.1308,4.1308,4.1504,4.1308,4.1191,4.1191,4.1191,4.1191,4.1191,4.1191,4.1191,0.0,0.0,0.0,0.0,0.0,0.0,0.0,0.0,0.0,0.0,0.0,0.0,0.0,0.0,0.0,0.0,0.0,0.0,0.0,0.0,0.0,0.0,0.0,0.0,0.0,0.0,0.0,0.0,1.6104,1.6208,1.7132,1.7166,1.7349,1.7742,1.7772,1.7787,1.7787,1.7787,1.7787,1.7787,1.7787,1.8149,1.8762,1.9236,1.9758,2.0366,2.0829,2.1023,2.1023,2.143,2.1582,2.1582,2.2061,2.2254,2.2282,2.2282,2.231,2.231,2.231,2.231,2.2429,2.3122,2.3359,2.3663,2.5118,2.5575,2.5761,2.6488,2.6691,2.6873,2.7678,2.8475,2.9237,2.9972,3.0723,3.1274,3.1329,3.1971,3.2797,3.3642,3.4012,3.4176,3.4223,3.4696,3.5335,3.6133,3.6466,3.7257,3.895,3.92,3.9527,4.0335,4.0469,4.0489,4.0508,4.0508,4.0581,4.0716,4.078,4.1242,4.2207,4.1562,4.1562,4.2324,4.1582,4.1191,4.1191,4.1191,4.1191,4.1191,4.1191,4.1191,0.0,0.0,0.0,0.0,0.0,0.0,0.0,0.0,0.0,0.0,0.0,0.0,0.0,0.0,0.0,0.0,0.0,0.0,0.0,0.0,0.0,0.0,0.0,0.0,0.0,0.0,0.0,0.0,0.0,1.56,1.5999,1.655,1.6897,1.7055,1.7473,1.7697,1.7697,1.7697,1.7939,1.8343,1.8343,1.8687,1.9331,1.9506,1.9697,1.998,2.0665,2.0991,2.1023,2.143,2.1582,2.1658,2.2106,2.231,2.231,2.231,2.231,2.231,2.231,2.231,2.2344,2.2615,2.3004,2.3579,2.4577,2.522,2.5761,2.6488,2.6691,2.6873,2.7678,2.8493,2.9433,3.0666,3.1182,3.1531,3.2063,3.2797,3.3458,3.3733,3.43,3.4763,3.4989,3.5633,3.6352,3.6976,3.7141,3.7718,3.9108,3.9296,3.9604,4.0412,4.0489,4.0489,4.0489,4.0489,4.0796,4.1489,4.1065,4.1498,4.3066,4.2383,4.2109,4.2383,4.2129,4.1719,4.1191,4.1191,4.1191,4.1191,4.1191,4.1191,0.8253,0.0,0.0,0.0,0.0,0.0,0.0,0.0,0.0,0.0,0.0,0.0,0.0,0.0,0.0,0.0,0.0,0.0,0.0,0.0,0.0,0.0,0.0,0.0,0.0,0.0,0.0,0.0,0.0,0.0,1.5268,1.5864,1.6247,1.6383,1.6832,1.7071,1.7071,1.7071,1.7401,1.8044,1.8044,1.8508,1.9361,1.9521,1.9657,1.9747,2.0465,2.0764,2.0813,2.1538,2.1718,2.1658,2.2106,2.231,2.231,2.231,2.231,2.231,2.231,2.231,2.231,2.231,2.2632,2.3207,2.4188,2.4831,2.5439,2.642,2.6691,2.6873,2.7678,2.8887,3.0279,3.1814,3.221,3.2339,3.2889,3.3421,3.3807,3.3807,3.4468,3.5055,3.5277,3.6092,3.6937,3.7676,3.7871,3.8362,3.955,3.97,3.9912,4.0431,4.0489,4.0489,4.0489,4.0489,4.0912,4.1873,4.147,4.2032,4.3886,4.322,4.2949,4.3262,4.2988,4.2422,4.1601,4.1328,4.1191,4.1191,4.1191,4.1348,0.0,0.0,0.0,0.0,0.0,0.0,0.0,0.0,0.0,0.0,0.0,0.0,0.0,0.0,0.0,0.0,0.0,0.0,0.0,0.0,0.0,0.0,0.0,0.0,0.0,0.0,0.0,0.0,1.4158,1.4219,1.5,1.509,1.5329,1.5799,1.5799,1.5799,1.5799,1.5799,1.6099,1.6712,1.6726,1.7413,1.8702,1.9188,1.9523,1.9711,2.0124,2.0314,2.0416,2.1705,2.2003,2.1658,2.2106,2.231,2.231,2.231,2.231,2.231,2.231,2.231,2.231,2.231,2.231,2.2581,2.4036,2.4506,2.4828,2.6268,2.6725,2.6906,2.7742,2.9638,3.177,3.3385,3.3752,3.377,3.3788,3.3807,3.3807,3.3807,3.4486,3.5027,3.5027,3.6009,3.7125,3.8275,3.8665,3.924,4.0358,4.0489,4.0489,4.0489,4.0489,4.0489,4.0489,4.0508,4.0912,4.1777,4.1956,4.285,4.4662,4.4022,4.4062,4.498,4.418,4.3301,4.2441,4.1641,4.1269,4.123,4.1269,4.1719,0.8521,0.0,0.0,0.0,0.0,0.0,0.0,0.0,0.0,0.0,0.0,0.0,0.0,0.0,0.0,0.0,0.0,0.0,0.0,0.0,0.0,0.0,0.0,0.0,0.0,0.0,0.0,0.0,1.3413,1.3794,1.3861,1.4964,1.5668,1.5799,1.5799,1.5799,1.5799,1.5799,1.6099,1.6712,1.7189,1.7861,1.8717,1.9336,1.9652,1.9711,2.0124,2.0314,2.0348,2.1055,2.1645,2.2106,2.2254,2.231,2.231,2.231,2.231,2.231,2.231,2.231,2.231,2.231,2.231,2.2581,2.4036,2.4506,2.4828,2.6268,2.6906,2.7438,2.8762,2.9839,3.0944,3.2559,3.2944,3.3091,3.3678,3.3807,3.3807,3.3807,3.4963,3.5936,3.5936,3.718,3.8405,3.9152,3.9328,3.9658,4.0383,4.0489,4.0489,4.0489,4.0489,4.0489,4.0489,4.1085,4.1816,4.2701,4.2819,4.3673,4.5491,4.4855,4.4648,4.498,4.4766,4.4219,4.334,4.3125,4.2676,4.207,4.2715,4.3476,0.0,0.0,0.0,0.0,0.0,0.0,0.7258,0.7738,0.8235,0.0,0.0,0.0,0.0,0.0,0.0,0.0,0.0,0.0,0.0,0.0,0.0,0.0,0.0,0.0,0.0,1.2368,1.2464,1.2532,1.3381,1.4026,1.4385,1.53,1.5799,1.5799,1.5799,1.5799,1.5799,1.5799,1.6099,1.6712,1.71,1.7772,1.8717,1.9091,1.9527,1.9929,2.0035,2.0348,2.083,2.0959,2.1385,2.2032,2.2209,2.231,2.231,2.231,2.231,2.231,2.231,2.231,2.231,2.231,2.2513,2.2987,2.4137,2.4695,2.5186,2.637,2.7115,2.7824,2.9076,3.0049,3.1017,3.2302,3.2871,3.3238,3.3697,3.3807,3.3807,3.3807,3.5147,3.6303,3.6303,3.7624,3.8862,3.9333,3.951,3.9778,4.0267,4.0441,4.0489,4.0489,4.0489,4.0642,4.1008,4.1508,4.2316,4.3528,4.3643,4.4335,4.5834,4.5499,4.5355,4.5547,4.5547,4.5293,4.4785,4.4043,4.3437,4.2969,4.3848,4.4512,0.0,0.0,0.0,0.0,0.0,0.0,0.6307,0.7169,0.7817,0.7047,0.0,0.0,0.0,0.0,0.0,0.0,0.0,0.0,0.0,0.0,0.0,0.0,0.0,0.0,1.1922,1.2221,1.2595,1.3068,1.3637,1.4454,1.562,1.5694,1.5724,1.5799,1.5799,1.5799,1.5799,1.5799,1.6069,1.6607,1.6756,1.7428,1.8597,1.8747,1.9349,2.028,1.9909,2.0449,2.1582,2.1213,2.1306,2.1718,2.2135,2.231,2.231,2.231,2.231,2.231,2.231,2.231,2.231,2.231,2.2801,2.3528,2.4286,2.5017,2.5761,2.6604,2.7348,2.8085,2.8874,3.026,3.1568,3.2302,3.3146,3.3807,3.3807,3.3807,3.3825,3.3917,3.5202,3.6303,3.6303,3.7624,3.8803,3.9099,3.9414,3.9712,4.0101,4.0356,4.0489,4.0489,4.0489,4.0796,4.1585,4.1835,4.2585,4.4066,4.4335,4.4874,4.5853,4.5891,4.6033,4.6289,4.6308,4.6308,4.6308,4.4648,4.3887,4.4004,4.4785,4.5137,0.0,0.0,0.0,0.0,0.0,0.0,0.7098,0.7422,0.787,0.0,0.0,0.0,0.0,0.0,0.0,0.0,0.0,0.0,0.0,0.0,0.0,0.0,0.0,0.0,1.1332,1.167,1.2026,1.2373,1.2785,1.3615,1.4917,1.4992,1.5244,1.5784,1.5799,1.5799,1.5799,1.5799,1.5858,1.5979,1.6995,1.7637,1.7921,1.9016,1.9788,2.0314,2.0212,2.0699,2.1582,2.1538,2.1764,2.2163,2.2254,2.231,2.231,2.231,2.231,2.231,2.231,2.231,2.231,2.231,2.2801,2.3528,2.4286,2.5017,2.5904,2.726,2.7783,2.8073,2.8808,3.0186,3.1439,3.1586,3.2742,3.3807,3.3807,3.3807,3.399,3.4651,3.5605,3.6303,3.6303,3.7624,3.8873,3.9432,3.9552,3.98,4.0336,4.0473,4.0489,4.0489,4.0489,4.0566,4.0739,4.2047,4.2989,4.3316,4.4605,4.5526,4.5873,4.5891,4.6033,4.6289,4.6308,4.6308,4.6308,4.5254,4.5117,4.5801,4.5976,4.6055,0.0,0.0,0.0,0.5317,0.0,0.0,0.0,0.7387,0.79,0.8395,0.7817,0.0,0.0,0.0,0.0,0.0,0.0,0.0,0.0,0.0,0.0,0.0,0.0,0.0,1.1198,1.1248,1.1609,1.2454,1.301,1.3735,1.4737,1.5124,1.5454,1.5784,1.5799,1.5799,1.5799,1.5799,1.5799,1.5814,1.6757,1.7496,1.8065,1.885,1.9851,2.0927,2.0483,2.0943,2.1928,2.1688,2.1899,2.231,2.231,2.231,2.231,2.231,2.231,2.231,2.231,2.231,2.231,2.231,2.2801,2.3528,2.4286,2.5253,2.6349,2.7335,2.7754,2.8037,2.8558,3.0033,3.1384,3.1384,3.2632,3.3807,3.3807,3.4119,3.4523,3.4917,3.6028,3.689,3.689,3.79,3.8862,3.9282,3.9486,3.9757,4.025,4.0809,4.0969,4.0546,4.0893,4.1143,4.1143,4.2354,4.3278,4.3662,4.4893,4.5699,4.5892,4.5891,4.6033,4.6289,4.6308,4.6308,4.6308,4.5859,4.5879,4.6308,4.6308,4.6308,0.0,0.0,0.0,0.0,0.0,0.5654,0.0,0.0,0.0,0.7648,0.0,0.0,0.0,0.0,0.0,0.0,0.0,0.0,0.0,0.0,0.0,0.0,0.0,0.0,0.0,1.0684,1.1126,1.2323,1.2908,1.3557,1.4367,1.5069,1.5544,1.5784,1.5799,1.5799,1.5799,1.5799,1.5858,1.5964,1.6698,1.7578,1.8625,1.8969,2.0033,2.1552,2.0862,2.1213,2.2282,2.1899,2.1974,2.231,2.231,2.231,2.231,2.231,2.231,2.231,2.231,2.231,2.231,2.231,2.2902,2.3748,2.4475,2.5625,2.6808,2.7272,2.7648,2.801,2.8394,2.994,3.1384,3.1384,3.2632,3.3807,3.3807,3.4431,3.5045,3.521,3.6468,3.7507,3.7507,3.8175,3.8803,3.9152,3.9432,3.981,4.0368,4.1085,4.1412,4.1027,4.1335,4.1623,4.1797,4.245,4.3201,4.4028,4.4874,4.5526,4.5873,4.5947,4.608,4.6308,4.6308,4.6308,4.6308,4.6308,4.6308,4.6308,4.6308,4.6308,0.0,0.0,0.0,0.0,0.4139,0.0,0.0,0.0,0.6815,0.6752,0.0,0.0,0.0,0.0,0.0,0.0,0.0,0.0,0.0,0.0,0.0,0.0,0.0,0.0,0.0,0.9553,1.0218,1.0968,1.1099,1.1693,1.2965,1.3645,1.4573,1.5769,1.5799,1.5799,1.5799,1.5799,1.6069,1.6607,1.7685,1.8594,1.9325,2.0272,2.1038,2.1582,2.1491,2.1764,2.2282,2.2237,2.2237,2.231,2.231,2.231,2.231,2.231,2.231,2.231,2.231,2.231,2.231,2.231,2.3241,2.4492,2.5253,2.6048,2.6873,2.7619,2.7869,2.8065,2.8749,3.0167,3.1384,3.1384,3.2632,3.3807,3.3807,3.4431,3.521,3.6009,3.6872,3.7507,3.7507,3.8175,3.8873,3.9457,3.9576,4.0084,4.1428,4.105,4.12,4.2643,4.1508,4.095,4.1739,4.1893,4.2316,4.3181,4.3989,4.4874,4.5853,4.6125,4.6268,4.6308,4.6308,4.6308,4.6308,4.6308,4.6308,4.6308,4.6308,4.6308,0.0,0.0,0.0,0.0,0.0,0.0,0.4603,0.0,0.5936,0.0,0.0,0.0,0.0,0.0,0.0,0.0,0.5176,0.0,0.0,0.0,0.0,0.0,0.0,0.0,0.0,0.0,0.0,0.0,1.0166,1.0813,1.1756,1.3068,1.4235,1.5186,1.5604,1.5799,1.5799,1.5799,1.5933,1.6189,1.7685,1.8654,1.921,2.0447,2.1354,2.2003,2.1718,2.1869,2.231,2.231,2.231,2.231,2.231,2.231,2.231,2.231,2.231,2.231,2.231,2.231,2.231,2.231,2.3004,2.3985,2.4729,2.5473,2.6328,2.7555,2.7897,2.8172,2.9381,3.054,3.1513,3.199,3.2963,3.3807,3.3807,3.4835,3.5862,3.6229,3.7331,3.8193,3.8193,3.8487,3.8902,3.9505,3.9599,3.9954,4.0921,4.1162,4.1527,4.2277,4.2143,4.195,4.1816,4.2258,4.272,4.3085,4.4393,4.5375,4.5873,4.6089,4.6211,4.6308,4.6308,4.6308,4.6308,4.6308,4.6308,4.6308,4.6308,4.6308,0.4742,0.0,0.0,0.0,0.0,0.0,0.0,0.0,0.0,0.0,0.0,0.0,0.0,0.0,0.0,0.0,0.0,0.0,0.0,0.0,0.0,0.0,0.0,0.0,0.0,0.0,0.0,0.0,0.0,0.9734,1.0508,1.2315,1.3698,1.4492,1.5354,1.5799,1.5799,1.587,1.5975,1.6083,1.7846,1.8903,1.9315,2.0724,2.1691,2.2282,2.1928,2.2003,2.231,2.231,2.231,2.231,2.231,2.231,2.231,2.231,2.231,2.231,2.231,2.231,2.231,2.231,2.2801,2.3528,2.4286,2.5017,2.5936,2.7484,2.7897,2.819,2.9527,3.0632,3.1549,3.2137,3.3054,3.3807,3.3807,3.511,3.6303,3.6303,3.7606,3.8707,3.8707,3.8762,3.898,3.9529,3.9668,4.0019,4.0748,4.12,4.172,4.2412,4.2431,4.2316,4.2181,4.2297,4.2585,4.3066,4.4833,4.5851,4.5906,4.6058,4.6191,4.6308,4.6308,4.6308,4.6308,4.6308,4.6308,4.6308,4.6308,4.6308,0.0,0.0,0.0,0.4744,0.0,0.0,0.0,0.0,0.4318,0.0,0.0,0.0,0.0,0.0,0.0,0.0,0.0,0.0,0.0,0.0,0.0,0.0,0.0,0.0,0.0,0.0,0.0,0.0,0.0,0.0,0.9109,1.1065,1.2663,1.3812,1.5124,1.5799,1.5799,1.6108,1.6401,1.6682,1.8583,1.9649,2.0026,2.1566,2.2282,2.231,2.2282,2.2282,2.231,2.231,2.231,2.231,2.231,2.231,2.231,2.231,2.231,2.231,2.231,2.231,2.231,2.231,2.2801,2.3528,2.4286,2.5017,2.5936,2.7484,2.7897,2.8065,2.8852,3.021,3.1403,3.1421,3.2651,3.3807,3.3807,3.511,3.6303,3.6303,3.7606,3.8707,3.8707,3.8923,3.9186,3.9552,3.988,4.0482,4.161,4.1046,4.1489,4.3951,4.2027,4.1258,4.2912,4.1527,4.1296,4.2989,4.4872,4.5892,4.589,4.6144,4.6308,4.6308,4.6308,4.6308,4.6308,4.6308,4.6308,4.6308,4.6308,4.6308,0.0,0.0,0.6911,0.5834,0.0,0.0,0.0,0.0,0.0,0.0,0.0,0.0,0.0,0.0,0.0,0.0,0.0,0.0,0.0,0.0,0.0,0.0,0.0,0.0,0.0,0.0,0.0,0.0,0.0,0.0,0.0,0.9607,1.1329,1.3081,1.4267,1.5181,1.5799,1.6136,1.6354,1.646,1.8513,1.9569,1.9738,2.1507,2.231,2.231,2.231,2.231,2.231,2.231,2.231,2.231,2.231,2.231,2.231,2.231,2.231,2.231,2.231,2.231,2.231,2.231,2.2479,2.296,2.4442,2.508,2.5675,2.7673,2.8237,2.8576,3.0186,3.098,3.1659,3.2742,3.3403,3.3807,3.3807,3.511,3.6303,3.6303,3.7606,3.8707,3.8707,3.9127,3.9462,3.9576,3.9709,4.0058,4.0825,4.0681,4.1258,4.3297,4.222,4.2047,4.3739,4.3355,4.3297,4.3987,4.5161,4.5892,4.6026,4.6118,4.6205,4.6308,4.6308,4.6308,4.6308,4.6308,4.6308,4.6308,4.6308,4.6308,0.7598,0.7862,0.0,0.6743,0.6534,0.0,0.5239,0.0,0.0,0.0,0.0,0.0,0.0,0.0,0.0,0.0,0.0,0.0,0.0,0.4099,0.0,0.0,0.0,0.0,0.0,0.0,0.0,0.0,0.0,0.0,0.0,0.0,1.0977,1.273,1.427,1.5375,1.5983,1.6301,1.6421,1.6328,1.8343,1.9365,1.9541,2.1177,2.2057,2.231,2.231,2.231,2.231,2.231,2.231,2.231,2.231,2.2377,2.2426,2.2349,2.231,2.2293,2.2398,2.2388,2.231,2.2398,2.2575,2.3005,2.4614,2.5281,2.5893,2.786,2.8619,2.9148,3.0613,3.1403,3.2082,3.3128,3.3587,3.3807,3.3807,3.4871,3.5844,3.5844,3.7165,3.8267,3.8267,3.8896,3.9462,3.9576,3.9778,4.0063,4.0438,4.0489,4.1046,4.2489,4.2143,4.2354,4.3758,4.4143,4.4372,4.4487,4.5345,4.592,4.6102,4.6151,4.6349,4.6758,4.6465,4.6445,4.6758,4.6445,4.6308,4.6308,4.6308,4.6308]},{"header":{"parameterUnit":"m.s-1","parameterCategory":1,"la1":30.6,"la2":29.2853,"lo1":-89.7004,"lo2":-87.6739,"dy":0.0162,"dx":0.0183,"nx":112,"ny":82,"refTime":"2023-04-18T06:00:00:Z","depth":0,"parameterNumber":3,"parameterNumberName":"V-component_of_WINDS"},"data":[0.0,0.0,0.0,0.0,0.0,0.0,0.0,0.0,0.0,0.0,0.0,0.0,0.0,0.0,0.0,0.0,0.0,0.0,0.0,0.0,0.0,0.0,0.0,0.0,0.0,0.0,0.0,0.0,0.0,0.0,0.0,0.0,0.0,0.0,0.0,0.0,0.0,0.0,0.0,0.0,0.0,0.0,0.0,0.0,0.0,0.0,0.0,0.0,0.0,0.0,0.0,0.0,0.0,0.0,0.0,0.0,0.0,0.0,0.0,0.0,0.0,0.0,0.0,0.0,0.0,0.0,0.0,0.0,0.0,0.0,0.0,0.0,0.0,0.0,0.0,0.0,0.0,0.0,0.0,0.0,0.0,0.0,0.0,0.0,0.0,0.0,0.0,0.0,0.0,0.0,0.3142,0.3445,0.4865,0.6215,0.7225,0.7853,0.8176,0.8109,0.0,0.0,0.0,0.0,0.0,0.0,0.0,0.0,0.0,0.0,0.0,0.0,0.0,0.0,0.0,0.0,0.0,0.0,0.0,0.0,0.0,0.0,0.0,0.0,0.0,0.0,0.0,0.0,0.0,0.0,0.0,0.0,0.0,0.0,0.0,0.0,0.0,0.0,0.0,0.0,0.0,0.0,0.0,0.0,0.0,0.0,0.0,0.0,0.0,0.0,0.0,0.0,0.0,0.0,0.0,0.0,0.0,0.0,0.0,0.0,0.0,0.0,0.0,0.0,0.0,0.0,0.0,0.0,0.0,0.0,0.0,0.0,0.0,0.0,0.0,0.0,0.0,0.0,0.0,0.0,0.0,0.0,0.0,0.0,0.0,0.0,0.0,0.0,0.0,0.0,0.0,0.0,0.0,0.0,0.0,0.0,0.0,0.0,0.0,0.0,0.0,0.0,0.0,0.0,0.2901,0.4554,0.5368,0.6215,0.7225,0.7002,0.7178,0.8055,0.0,0.0,0.0,0.0,0.0,0.0,0.0,0.0,0.0,0.0,0.0,0.0,0.0,0.0,0.0,0.0,0.0,0.0,0.0,0.0,0.0,0.0,0.0,0.0,0.0,0.0,0.0,0.0,0.0,0.0,0.0,0.0,0.0,0.0,0.0,0.0,0.0,0.0,0.0,0.0,0.0,0.0,0.0,0.0,0.0,0.0,0.0,0.0,0.0,0.0,0.0,0.0,0.0,0.0,0.0,0.0,0.0,0.0,0.0,0.0,0.0,0.0,0.0,0.0,0.0,0.0,0.0,0.0,0.0,0.0,0.0,0.0,0.0,0.0,0.0,0.0,0.0,0.0,0.0,0.0,0.0,0.0,0.0,0.0,0.0,0.0,0.0,0.0,0.0,0.0,0.0,0.0,0.0,0.0,0.0,0.0,0.0,0.0,0.0,0.0,0.0,0.0,0.0,0.2566,0.34,0.4489,0.511,0.5847,0.6879,0.6587,0.6929,0.8285,0.8709,0.0,0.0,0.0,0.0,0.0,0.0,0.0,0.0,0.0,0.0,0.0,0.0,0.0,0.0,0.0,0.0,0.0,0.0,0.0,0.0,0.0,0.0,0.0,0.0,0.0,0.0,0.0,0.0,0.0,0.0,0.0,0.0,0.0,0.0,0.0,0.0,0.0,0.0,0.0,0.0,0.0,0.0,0.0,0.0,0.0,0.0,0.0,0.0,0.0,0.0,0.0,0.0,0.0,0.0,0.0,0.0,0.0,0.0,0.0,0.0,0.0,0.0,0.0,0.0,0.0,0.0,0.0,0.0,0.0,0.0,0.0,0.0,0.0,0.0,0.0,0.0,0.0,0.0,0.0,0.0,0.0,0.0,0.0,0.0,0.0,0.0,0.0,0.0,0.0,0.0,0.0,0.0,0.0,0.0,0.0,0.0,0.0,0.0,0.0,0.0,0.0,0.0,0.3388,0.3891,0.426,0.4785,0.5471,0.6439,0.6167,0.6596,0.8103,0.7763,0.0,0.0,0.0,0.0,0.0,0.0,0.0,0.0,0.0,0.0,0.0,0.0,0.0,0.0,0.0,0.0,0.0,0.0,0.0,0.0,0.0,0.0,0.0,0.0,0.0,0.0,0.0,0.0,0.0,0.0,0.0,0.0,0.0,0.0,0.0,0.0,0.0,0.0,0.0,0.0,0.0,0.0,0.0,0.0,0.0,0.0,0.0,0.0,0.0,0.0,0.0,0.0,0.0,0.0,0.0,0.0,0.0,0.0,0.0,0.0,0.0,0.0,0.0,0.0,0.0,0.0,0.0,0.0,0.0,0.0,0.0,0.0,0.0,0.0,0.0,0.0,0.0,0.0,0.0,0.0,0.0,0.0,0.0,0.0,0.0,0.0,0.0,0.0,0.0,0.0,0.0,0.0,0.0,0.0,0.0,0.0,0.0,0.0,0.0,0.0,0.0,0.0,0.3696,0.3994,0.4264,0.4785,0.533,0.5919,0.5472,0.5705,0.6953,0.6813,0.0,0.0,0.0,0.0,0.0,0.0,0.0,0.0,0.0,0.0,0.0,0.0,0.0,0.0,0.0,0.0,0.0,0.0,0.0,0.0,0.0,0.0,0.0,0.0,0.0,0.0,0.0,0.0,0.0,0.0,0.0,0.0,0.0,0.0,0.0,0.0,0.0,0.0,0.0,0.0,0.0,0.0,0.0,0.0,0.0,0.0,0.0,0.0,0.0,0.0,0.0,0.0,0.0,0.0,0.0,0.0,0.0,0.0,0.0,0.0,0.0,0.0,0.0,0.0,0.0,0.0,0.0,0.0,0.0,0.0,0.0,0.0,0.0,0.0,0.0,0.0,0.0,0.0,0.0,0.0,0.0,0.0,0.0,0.0,0.0,0.0,0.0,0.0,0.0,0.0,0.0,0.0,0.0,0.0,0.0,0.0,0.0,0.0,0.0,0.0,0.0,0.0,0.3872,0.4183,0.0,0.4785,0.5319,0.5845,0.5713,0.6047,0.7136,0.0,0.0,0.0,0.0,0.0,0.0,0.0,0.0,0.0,0.0,0.0,0.0,0.0,0.0,0.0,0.0,0.0,0.0,0.0,0.0,0.0,0.0,0.0,0.0,0.0,0.0,0.0,0.0,0.0,0.0,0.0,0.0,0.0,0.0,0.0,0.0,0.0,0.0,0.0,0.0,0.0,0.0,0.0,0.0,0.0,0.0,0.0,0.0,0.0,0.0,0.0,0.0,0.0,0.0,0.0,0.0,0.0,0.0,0.0,0.0,0.0,0.0,0.0,0.0,0.0,0.0,0.0,0.0,0.0,0.0,0.0,0.0,0.0,0.0,0.0,0.0,0.0,0.0,0.0,0.0,0.0,0.0,0.0,0.0,0.0,0.0,0.0,0.0,0.0,0.0,0.0,0.0,0.0,0.0,0.0,0.0,0.0,0.0,0.0,0.0,0.0,0.0,0.3345,0.3965,0.4313,0.0,0.4785,0.5281,0.5745,0.5693,0.6055,0.7039,0.0,0.0,0.0,0.0,0.0,0.0,0.0,0.0,0.0,0.0,0.0,0.0,0.0,0.0,0.0,0.0,0.0,0.0,0.0,0.0,0.0,0.0,0.0,0.0,0.0,0.0,0.0,0.0,0.0,0.0,0.0,0.0,0.0,0.0,0.0,0.0,0.0,0.0,0.0,0.0,0.0,0.0,0.0,0.0,0.0,0.0,0.0,0.0,0.0,0.0,0.0,0.0,0.0,0.0,0.0,0.0,0.0,0.0,0.0,0.0,0.0,0.0,0.0,0.0,0.0,0.0,0.0,0.0,0.0,0.0,0.0,0.0,0.0,0.0,0.0,0.0,0.0,0.0,0.0,0.0,0.0,0.0,0.0,0.0,0.0,0.0,0.0,0.0,0.0,0.0,0.0,0.0,0.0,0.0,0.0,0.0,0.0,0.0,0.0,0.0,0.0,0.0,0.3345,0.3965,0.4313,0.4313,0.4785,0.5214,0.5473,0.5256,0.5509,0.0,0.0,0.0,0.0,0.0,0.0,0.0,0.0,0.0,0.0,0.0,0.0,0.0,0.0,0.0,0.0,0.0,0.0,0.0,0.0,0.0,0.0,0.0,0.0,0.0,0.0,0.0,0.0,0.0,0.0,0.0,0.0,0.0,0.0,0.0,0.0,0.0,0.0,0.0,0.0,0.0,0.0,0.0,0.0,0.0,0.0,0.0,0.0,0.0,0.0,0.0,0.0,0.0,0.0,0.0,0.0,0.0,0.0,0.0,0.0,0.0,0.0,0.0,0.0,0.0,0.0,0.0,0.0,0.0,0.0,0.0,0.0,0.0,0.0,0.0,0.0,0.0,0.0,0.0,0.0,0.0,0.0,0.0,0.0,0.0,0.0,0.0,0.0,0.0,0.0,0.0,0.0,0.0,0.0,0.0,0.0,0.0,0.0,0.0,0.0,0.0,0.0,0.0,0.2979,0.3798,0.4313,0.4313,0.4785,0.5214,0.5473,0.5596,0.603,0.688,0.0,0.0,0.0,0.0,0.0,0.0,0.0,0.0,0.0,0.0,0.0,0.0,0.0,0.0,0.0,0.0,0.0,0.0,0.0,0.0,0.0,0.0,0.0,0.0,0.0,0.0,0.0,0.0,0.0,0.0,0.0,0.0,0.0,0.0,0.0,0.0,0.0,0.0,0.0,0.0,0.0,0.0,0.0,0.0,0.0,0.0,0.0,0.0,0.0,0.0,0.0,0.0,0.0,0.0,0.0,0.0,0.0,0.0,0.0,0.0,0.0,0.0,0.0,0.0,0.0,0.0,0.0,0.0,0.0,0.0,0.0,0.0,0.0,0.0,0.0,0.0,0.0,0.0,0.0,0.0,0.0,0.0,0.0,0.0,0.0,0.0,0.0,0.0,0.0,0.0,0.0,0.0,0.0,0.0,0.0,0.0,0.0,0.0,0.0,0.0,0.0,0.0,0.285,0.3725,0.4313,0.4313,0.4785,0.5166,0.533,0.5595,0.6048,0.677,0.0,0.0,0.0,0.0,0.0,0.0,0.0,0.0,0.0,0.0,0.0,0.0,0.0,0.0,0.0,0.0,0.0,0.0,0.0,0.0,0.0,0.0,0.0,0.0,0.0,0.0,0.0,0.0,0.0,0.0,0.0,0.0,0.0,0.0,0.0,0.0,0.0,0.0,0.0,0.0,0.0,0.0,0.0,0.0,0.0,0.0,0.0,0.0,0.0,0.0,0.0,0.0,0.0,0.0,0.0,0.0,0.0,0.0,0.0,0.0,0.0,0.0,0.0,0.0,0.0,0.0,0.0,0.0,0.0,0.0,0.0,0.0,0.0,0.0,0.0,0.0,0.0,0.0,0.0,0.0,0.0,0.0,0.0,0.0,0.0,0.0,0.0,0.0,0.0,0.0,0.0,0.0,0.0,0.0,0.0,0.0,0.0,0.0,0.0,0.0,0.0,0.0,0.2895,0.3705,0.4313,0.4313,0.4785,0.5108,0.5108,0.5349,0.5776,0.6429,0.0,0.0,0.0,0.0,0.0,0.0,0.0,0.0,0.0,0.0,0.0,0.0,0.0,0.0,0.0,0.0,0.0,0.0,0.0,0.0,0.0,0.0,0.0,0.0,0.0,0.0,0.0,0.0,0.0,0.0,0.0,0.0,0.0,0.0,0.0,0.0,0.0,0.0,0.0,0.0,0.0,0.0,0.0,0.0,0.0,0.0,0.0,0.0,0.0,0.0,0.0,0.0,0.0,0.0,0.0,0.0,0.0,0.0,0.0,0.0,0.9277,0.0,0.0,0.0,0.0,0.0,0.0,0.0,0.0,0.0,0.0,0.0,0.0,0.0,0.0,0.0,0.0,0.0,0.0,0.0,0.0,0.0,0.0,0.0,0.0,0.0,0.0,0.0,0.0,0.0,0.0,0.0,0.0,0.0,0.0,0.0,0.0,0.0,0.0,0.0,0.0,0.0,0.278,0.3661,0.4313,0.4313,0.4785,0.5108,0.5108,0.5349,0.5889,0.6829,0.6741,0.0,0.0,0.0,0.0,0.0,0.0,0.0,0.0,0.0,0.0,0.0,0.0,0.0,0.0,0.0,0.0,0.0,0.0,0.0,0.0,0.0,0.0,0.0,0.0,0.0,0.0,0.0,0.0,0.0,0.0,0.0,0.0,0.0,0.0,0.0,0.0,0.0,0.0,0.0,0.0,0.0,0.0,0.0,0.0,0.0,0.0,0.0,0.0,0.0,0.0,0.0,0.0,0.0,0.0,0.0,0.0,0.0,0.0,0.0,0.0,0.9479,0.0,0.0,0.0,0.0,0.0,0.0,0.0,0.0,0.0,0.0,0.0,0.0,0.0,0.0,0.0,0.0,0.0,0.0,0.0,0.0,0.0,0.0,0.0,0.0,0.0,0.0,0.0,0.0,0.0,0.0,0.0,0.0,0.0,0.0,0.0,0.0,0.0,0.0,0.0,0.0,0.2929,0.3711,0.4313,0.4313,0.4785,0.5108,0.5108,0.5422,0.5938,0.6664,0.6855,0.0,0.0,0.0,0.0,0.0,0.0,0.0,0.0,0.0,0.0,0.0,0.0,0.0,0.0,0.0,0.0,0.0,0.0,0.0,0.0,0.0,0.0,0.0,0.0,0.0,0.0,0.0,0.0,0.0,0.0,0.0,0.0,0.0,0.0,0.0,0.0,0.0,0.0,0.0,0.0,0.0,0.0,0.0,0.0,0.0,0.0,0.0,0.0,0.0,0.0,0.0,0.0,0.0,1.0436,1.0929,1.2017,1.1825,1.1475,1.0985,1.04,1.0122,1.0044,0.0,0.0,0.0,0.0,0.0,0.0,0.0,0.0,0.0,0.0,0.0,0.0,0.0,0.0,0.0,0.0,0.0,0.0,0.0,0.0,0.0,0.0,0.0,0.0,0.0,0.7452,0.751,0.0,0.0,0.0,0.0,0.0,0.0,0.0,0.0,0.0,0.0,0.0,0.0,0.3079,0.3798,0.4313,0.4313,0.4785,0.5108,0.5108,0.5527,0.598,0.6377,0.6846,0.7324,0.0,0.0,0.0,0.0,0.0,0.0,0.0,0.0,0.0,0.0,0.0,0.0,0.0,0.0,0.0,0.0,0.0,0.0,0.0,0.0,0.0,0.0,0.0,0.0,0.0,0.0,0.0,0.0,0.0,0.0,0.0,0.0,0.2262,0.3303,0.0,0.0,0.0,0.0,0.0,0.0,0.0,0.0,0.0,0.0,0.0,0.0,0.0,0.8417,0.9943,1.016,1.1353,1.347,1.2513,1.2647,1.365,1.273,1.2266,1.2128,1.1499,0.0,1.0581,1.0581,0.0,0.0,0.0,0.0,0.0,0.0,0.0,0.0,0.0,0.0,0.0,0.0,0.0,0.0,0.0,0.0,0.0,0.0,0.0,0.0,0.0,0.0,0.8007,0.7695,0.7656,0.7666,0.0,0.7262,0.7014,0.6931,0.0,0.0,0.0,0.0,0.0,0.0,0.0,0.0,0.2958,0.3723,0.4313,0.4313,0.4785,0.5108,0.5108,0.5527,0.598,0.6377,0.6846,0.7461,0.8262,0.8389,0.0,0.0,0.0,0.0,0.0,0.0,0.0,0.0,0.0,0.0,0.0,0.0,0.0,0.0,0.0,0.0,0.0,0.0,0.0,0.0,0.0,0.0,0.0,0.0,0.0,0.0,0.0,0.0,0.0,0.2436,0.2863,0.3743,0.3207,0.2973,0.0,0.0,0.0,0.0,0.0,0.0,0.0,0.0,0.0,0.7349,0.8158,0.9191,1.0495,1.0897,1.2053,1.3934,1.3454,1.3827,1.4924,1.4476,1.4427,1.4695,1.4397,1.3751,1.2837,1.1609,1.1235,1.1417,0.0,0.0,0.0,0.0,1.0276,1.0648,1.0681,1.1062,0.0,0.0,0.0,0.0,0.0,0.0,0.0,0.0,0.0,0.0,0.0,0.0,0.0,0.8437,0.8415,0.8379,0.8145,0.7954,0.7746,0.0,0.7167,0.662,0.5728,0.0,0.0,0.0,0.0,0.3521,0.3504,0.4004,0.4421,0.4574,0.5125,0.5502,0.5497,0.6123,0.6602,0.6787,0.7207,0.7627,0.7998,0.8239,0.8448,0.0,0.0,0.0,0.0,0.0,0.0,0.0,0.0,0.0,0.0,0.0,0.0,0.0,0.0,0.0,0.0,0.0,0.0,0.0,0.0,0.0,0.0,0.0,0.0,0.0,0.0,0.0,0.0,0.28,0.3263,0.3867,0.3481,0.3375,0.0,0.0,0.0,0.0,0.0,0.0,0.6462,0.7194,0.7908,0.8596,0.9355,1.0212,1.1188,1.1908,1.3092,1.4707,1.4755,1.5397,1.6495,1.6234,1.6314,1.6697,1.6663,1.614,1.5153,1.2973,1.1962,1.1746,1.1168,1.0784,1.0596,1.0982,1.1425,1.1876,1.2429,1.286,1.3173,1.3082,0.0,1.2202,1.0979,0.0,0.0,0.0,0.0,0.7339,0.8172,0.8489,0.8613,0.8936,0.9004,0.8916,0.8603,0.8535,0.8379,0.0,0.773,0.7425,0.6347,0.0,0.0,0.0,0.0,0.3929,0.4047,0.4395,0.4735,0.494,0.5543,0.5959,0.5944,0.665,0.71,0.71,0.7462,0.7695,0.7695,0.8037,0.8262,0.8411,0.0,0.0,0.0,0.0,0.0,0.0,0.0,0.0,0.0,0.0,0.0,0.0,0.0,0.0,0.0,0.0,0.0,0.0,0.0,0.0,0.0,0.0,0.0,0.0,0.0,0.0,0.0,0.0,0.0,0.3471,0.3392,0.0,0.0,0.0,0.0,0.4798,0.6357,0.7523,0.8046,0.8973,0.9804,1.0528,1.1161,1.1942,1.2887,1.404,1.5414,1.692,1.7084,1.7702,1.8702,1.7679,1.7228,1.7237,1.7127,1.7045,1.6819,1.4744,1.3488,1.2826,1.1908,1.1851,1.2291,1.2316,1.2341,1.2454,1.2973,1.3173,1.3361,1.4412,1.4765,1.4362,1.2343,1.1067,0.0,0.0,0.8674,0.832,0.8401,0.8672,0.8975,0.9004,0.9004,0.9004,0.8975,0.8975,0.873,0.0,0.7705,0.731,0.6052,0.0,0.5558,0.4231,0.4226,0.4312,0.4216,0.4868,0.5357,0.5357,0.5972,0.6372,0.6377,0.6826,0.71,0.71,0.7462,0.7695,0.7695,0.7725,0.7949,0.8401,0.843,0.0,0.0,0.0,0.0,0.0,0.0,0.0,0.0,0.0,0.0,0.0,0.0,0.0,0.0,0.0,0.0,0.0,0.0,0.0,0.0,0.0,0.0,0.0,0.0,0.0,0.0,0.0,0.0,0.3456,0.364,0.0,0.4803,0.5046,0.5556,0.6444,0.7749,0.8831,0.9592,1.0164,1.0741,1.1274,1.2165,1.2897,1.3441,1.4978,1.6159,1.6987,1.7463,1.8127,1.8878,1.8498,1.8524,1.8856,1.8779,1.8525,1.8062,1.7053,1.5613,1.4008,1.301,1.253,1.2454,1.2772,1.3383,1.4074,1.4626,1.4814,1.4764,1.4488,1.4135,1.3626,1.2669,1.1673,1.0833,1.0532,1.0057,0.9668,0.9941,1.0117,1.0225,1.0225,1.002,0.9756,0.9473,0.9369,0.9203,0.8662,0.8109,0.7494,0.6658,0.6195,0.5723,0.4934,0.4735,0.4652,0.4587,0.5068,0.5483,0.5707,0.6402,0.6848,0.6849,0.7256,0.7377,0.7129,0.7482,0.7569,0.7314,0.7858,0.835,0.877,0.869,0.8588,0.0,0.0,0.0,0.0,0.0,0.0,0.0,0.0,0.0,0.0,0.0,0.0,0.0,0.0,0.0,0.0,0.0,0.0,0.0,0.0,0.0,0.0,0.0,0.0,0.0,0.0,0.326,0.3681,0.4304,0.5019,0.583,0.634,0.7081,0.8171,0.9338,1.0358,1.1136,1.1741,1.2229,1.266,1.3411,1.4002,1.4487,1.5902,1.6825,1.7171,1.8098,1.8724,1.9169,1.9169,1.9369,1.969,1.969,1.9435,1.9031,1.8771,1.7548,1.5722,1.4523,1.3815,1.357,1.3919,1.4525,1.5268,1.5781,1.5969,1.5819,1.4941,1.4362,1.395,1.3557,1.283,1.2123,1.2155,1.1793,1.1406,1.1655,1.1737,1.1696,1.1499,1.1126,1.0684,1.0165,0.9797,0.9515,0.9233,0.846,0.7614,0.7057,0.6379,0.5802,0.5476,0.5177,0.4953,0.4953,0.5443,0.5826,0.5968,0.6777,0.7299,0.7306,0.752,0.7528,0.7265,0.7627,0.7669,0.721,0.7839,0.8272,0.847,0.834,0.8316,0.8366,0.0,0.0,0.0,0.0,0.0,0.0,0.0,0.0,0.0,0.0,0.0,0.0,0.0,0.0,0.0,0.0,0.0,0.0,0.0,0.0,0.0,0.0,0.0,0.2128,0.2929,0.3686,0.4162,0.5372,0.6364,0.695,0.8083,0.9129,0.995,1.1156,1.2133,1.2756,1.3628,1.4351,1.4787,1.4889,1.5333,1.6114,1.6916,1.7477,1.7742,1.9076,1.969,1.969,1.969,1.969,1.969,1.969,1.969,1.969,1.969,1.9072,1.7985,1.6377,1.5758,1.5713,1.572,1.5706,1.5793,1.6333,1.6522,1.6421,1.5894,1.5718,1.5618,1.513,1.4565,1.4122,1.4122,1.3732,1.3346,1.3346,1.3388,1.3223,1.2637,1.2151,1.1642,1.1051,1.0273,0.9651,0.9631,0.8687,0.7691,0.7238,0.6466,0.5897,0.5753,0.5517,0.0,0.5336,0.6036,0.6449,0.6183,0.7109,0.7754,0.7734,0.7647,0.7543,0.7525,0.7954,0.7991,0.746,0.772,0.7711,0.7464,0.7385,0.7634,0.8268,0.0,0.0,0.0,0.0,0.0,0.0,0.0,0.0,0.0,0.0,0.0,0.0,0.0,0.0,0.0,0.0,0.0,0.0,0.0,0.0,0.0,0.0,0.2331,0.2327,0.3207,0.4137,0.4849,0.6258,0.7701,0.9015,0.9969,1.1079,1.2423,1.3091,1.3726,1.4287,1.4551,1.4752,1.4866,1.5659,1.6115,1.6236,1.7695,1.8426,1.8448,1.9286,1.969,1.969,1.969,1.969,1.969,1.969,1.969,1.969,1.969,1.9534,1.9153,1.7906,1.6946,1.6269,1.6284,1.6288,1.6308,1.6471,1.6522,1.6497,1.6333,1.6296,1.6258,1.6107,1.5133,1.4109,1.4109,1.3347,1.2528,1.2528,1.2864,1.3029,1.2438,1.2302,1.2121,1.1548,1.1243,1.0937,1.0615,0.981,0.8922,0.8156,0.7526,0.702,0.6677,0.6243,0.0,0.5954,0.6746,0.7255,0.719,0.8332,0.895,0.8682,0.8862,0.8758,0.8187,0.8552,0.8583,0.8132,0.876,0.8958,0.8635,0.8257,0.7925,0.0,0.0,0.0,0.0,0.0,0.0,0.0,0.0,0.0,0.0,0.0,0.0,0.0,0.0,0.0,0.0,0.0,0.0,0.0,0.0,0.0,0.0,0.2377,0.2816,0.2896,0.3745,0.4603,0.5254,0.7108,0.8827,1.0146,1.1347,1.2608,1.4017,1.4311,1.4666,1.5203,1.5255,1.5334,1.5543,1.6163,1.6638,1.6972,1.8054,1.8613,1.8717,1.9375,1.969,1.969,1.969,1.969,0.0,1.969,1.969,1.969,1.969,1.969,0.0,0.0,0.0,0.0,0.0,1.6514,1.6522,1.6522,1.6522,1.6522,1.6522,1.6522,1.6522,1.6522,1.5856,1.5128,1.5128,1.4582,1.4004,1.4004,1.4083,1.3982,1.338,1.2979,1.26,1.197,1.1734,1.1528,1.123,1.0501,0.0,0.9194,0.8149,0.724,0.6899,0.6486,0.6196,0.6196,0.7021,0.7536,0.7406,0.8572,0.9233,0.9023,0.8947,0.0,0.0,0.0,0.8382,0.7991,0.845,0.0,0.0,0.0,0.8045,0.7896,0.0,0.0,0.0,0.7688,0.7508,0.0,0.0,0.0,0.0,0.0,0.0,0.0,0.0,0.0,0.0,0.0,0.0,0.0,0.0,0.0,0.0,0.3079,0.3335,0.3504,0.4298,0.5009,0.5545,0.7795,0.9682,1.0702,1.2307,1.3777,1.4971,1.4995,1.5226,1.5756,0.0,0.0,0.0,0.0,1.6993,1.7839,1.8023,1.829,1.8634,1.9248,1.953,1.953,1.953,1.953,1.953,1.9566,1.9603,1.9603,1.9603,1.953,1.9332,1.8458,1.8066,1.7907,1.6879,1.6522,1.6522,1.6522,0.0,0.0,1.6522,1.6522,1.6522,1.6522,1.6466,1.638,1.638,1.6337,1.6293,1.6194,1.5876,1.532,1.4652,1.382,1.3024,1.2434,1.1992,1.1689,1.1597,1.0826,1.0164,0.9947,0.8362,0.7033,0.6797,0.6496,0.629,0.629,0.7062,0.7523,0.7239,0.0,0.0,0.8977,0.846,0.8138,0.8138,0.8074,0.7964,0.7638,0.7695,0.7575,0.726,0.7736,0.8156,0.8424,0.8424,0.8557,0.8791,0.7989,0.795,0.0,0.0,0.0,0.0,0.0,0.0,0.0,0.0,0.0,0.0,0.0,0.0,0.0,0.0,0.0,0.3295,0.3253,0.3143,0.3178,0.3849,0.4785,0.6006,0.8008,0.9875,1.1383,1.282,1.4169,1.5389,1.548,1.574,1.6303,1.6358,1.6401,1.6515,1.6941,1.7218,1.7411,1.7879,1.8154,1.8198,0.0,0.0,1.8419,1.8419,1.8419,1.8419,1.8855,1.9043,1.9043,1.9043,1.8535,1.7787,1.8027,1.7827,1.7394,1.6752,1.6522,1.6522,1.6522,1.6522,1.6522,1.6522,1.6522,1.6522,1.6522,1.6151,0.0,1.5764,1.5421,1.4926,1.4457,1.4606,1.4606,1.3525,1.3443,1.3512,1.2888,1.2686,1.2368,1.1472,1.1112,1.0486,0.8925,0.8143,0.7698,0.7643,0.7182,0.6854,0.6854,0.7433,0.7815,0.7746,0.8643,0.911,0.8771,0.8914,0.8997,0.8871,0.9081,0.9152,0.9117,0.8971,0.883,0.8765,0.8703,0.8664,0.8724,0.8724,0.8751,0.8804,0.8631,0.8611,0.0,0.0,0.0,0.0,0.0,0.0,0.0,0.0,0.0,0.0,0.0,0.2787,0.0,0.0,0.1957,0.2224,0.2366,0.2479,0.2618,0.2838,0.3571,0.5069,0.7002,0.8882,1.0493,1.1911,1.3287,1.4539,1.4949,1.5287,1.5567,1.5876,1.6051,1.6051,1.6612,1.7034,1.7312,1.7585,1.7827,1.8106,1.8106,1.8106,1.8106,1.8106,1.8106,1.8106,1.838,1.8496,1.8496,1.8496,1.8027,1.7353,1.7585,1.7394,1.6879,1.6595,1.6522,1.6522,1.6522,1.6522,1.6522,1.6522,1.6522,1.6522,1.6522,1.6281,1.6008,1.5676,1.5365,1.5005,1.4422,1.4236,1.4107,1.3515,1.3324,1.3286,1.2978,1.2881,1.2716,1.2139,1.1619,1.0877,0.9584,0.8835,0.8201,0.7539,0.7196,0.6979,0.6979,0.753,0.7919,0.7919,0.855,0.8915,0.8732,0.8752,0.8725,0.8497,0.8614,0.8702,0.8702,0.8783,0.8806,0.8806,0.8806,0.8804,0.8804,0.8804,0.8804,0.8804,0.8804,0.8804,0.0,0.0,0.0,0.0,0.0,0.0,0.0,0.0,0.1911,0.2259,0.2171,0.2109,0.2373,0.1832,0.1154,0.0775,0.1153,0.1626,0.2106,0.1965,0.241,0.4058,0.5699,0.7206,0.865,1.02,1.167,1.304,1.3637,1.4089,1.4503,1.4994,1.5297,1.541,1.592,1.6355,1.6786,1.6786,1.7024,1.7464,1.7464,1.7504,1.7599,1.7599,1.7679,1.7787,1.7907,1.7947,1.7947,1.7947,1.7626,1.7146,1.7146,1.6879,1.6522,1.6522,1.6522,1.6522,1.6522,1.6522,1.6522,1.6522,1.6522,1.6522,1.6522,1.6423,1.6238,1.5732,1.5499,1.5276,1.4698,1.4143,1.3768,1.3637,1.3238,1.2881,1.2881,1.2881,1.2881,1.2715,1.1927,1.1033,1.0349,0.9438,0.8432,0.7281,0.7108,0.7088,0.6985,0.7405,0.7746,0.7746,0.8165,0.8476,0.8548,0.84,0.8211,0.8003,0.807,0.8054,0.8054,0.833,0.8457,0.8457,0.8691,0.8804,0.8804,0.8804,0.8804,0.8804,0.8804,0.8804,-0.4165,-0.3379,-0.2789,-0.2145,-0.1805,-0.1443,0.0,0.0,-0.1145,-0.0573,-0.0361,0.0046,0.1216,0.1358,0.106,0.0209,0.0162,0.0667,0.2018,0.1955,0.245,0.4252,0.4667,0.5084,0.5701,0.7743,0.957,1.093,1.1129,1.1932,1.3695,1.3893,1.4182,1.4789,1.488,1.4926,1.5005,1.5005,1.5005,1.5084,1.5084,1.5353,1.5884,1.5884,1.6157,1.671,1.7188,1.7394,1.7394,1.7394,1.7076,1.6595,1.6595,1.6552,1.6522,1.6522,1.6522,1.6522,1.6522,1.6522,1.6522,1.6522,1.6522,1.6522,1.6522,1.6151,1.5676,1.5632,1.5231,1.4652,1.405,1.3862,1.3637,1.3152,1.2978,1.2881,1.2881,1.2881,1.2715,1.203,1.1332,1.0556,0.9668,0.8919,0.8214,0.7553,0.7459,0.7321,0.7054,0.7063,0.7105,0.7105,0.7428,0.7754,0.7989,0.8248,0.8389,0.8323,0.8571,0.8711,0.8711,0.8744,0.8758,0.8758,0.8791,0.8804,0.8804,0.8804,0.8804,0.8804,0.8804,0.8804,-0.6345,-0.5584,-0.5082,0.0,-0.4148,-0.4547,-0.4636,-0.4901,-0.4721,-0.3306,-0.2936,-0.2754,-0.2195,-0.1321,-0.0858,0.0,-0.0554,-0.0112,-0.0335,0.028,0.1056,0.1797,0.2636,0.3624,0.4748,0.5681,0.6712,0.7847,0.8933,1.005,1.1312,1.1746,1.2242,1.2926,1.3344,1.3731,1.41,1.41,1.4297,1.4698,1.4698,1.4835,1.5062,1.5062,1.5197,1.5466,1.5664,1.5784,1.5784,1.6188,1.5983,1.5478,1.5832,1.5744,1.5522,1.625,1.6522,1.6522,1.6522,1.6522,1.6522,1.6522,1.6522,1.6423,1.6095,1.582,1.5454,1.4767,1.4365,1.4061,1.342,1.3286,1.319,1.2968,1.2881,1.2881,1.2881,1.2881,1.2666,1.1922,1.1566,1.1015,0.9829,0.9416,0.8919,0.8153,0.7735,0.7466,0.7295,0.7128,0.7088,0.7261,0.7439,0.7708,0.815,0.8303,0.8444,0.8617,0.8738,0.8804,0.8804,0.8804,0.8804,0.8804,0.8804,0.8804,0.8804,0.8804,0.8804,0.8804,0.8804,0.8804,-0.873,-0.8086,-0.7703,-0.695,-0.7057,-0.7595,-0.8259,-0.8281,-0.7653,-0.5894,-0.5558,-0.5428,-0.4974,-0.3953,-0.3111,-0.2894,-0.1947,-0.1447,-0.2119,-0.162,-0.1108,-0.0647,0.033,0.156,0.3111,0.3641,0.4126,0.4856,0.6518,0.7864,0.86,0.9357,1.0144,1.0873,1.1492,1.2134,1.2725,1.2831,1.3198,1.3772,1.3695,1.3726,1.3914,1.425,1.4549,1.4698,1.4698,1.4698,1.4744,1.5186,1.5096,1.4744,1.5186,1.5096,1.4789,1.57,1.602,1.602,1.602,1.602,1.602,1.602,1.602,1.592,1.5499,1.5231,1.4903,1.405,1.3684,1.3467,1.3017,1.2881,1.2881,1.2881,1.2881,1.2881,1.2881,1.2881,1.2666,1.1922,1.1665,1.1166,1.0012,0.9666,0.9283,0.8626,0.8098,0.7701,0.7533,0.7275,0.7288,0.7721,0.7762,0.7977,0.845,0.849,0.8584,0.8791,0.8804,0.8699,0.848,0.848,0.8427,0.8209,0.8209,0.8209,0.8209,0.8209,0.8209,0.8209,0.8209,0.8321,-1.1306,0.0,-1.0499,-1.1,-1.0802,-1.049,-1.0641,-1.0275,-0.9525,-0.8386,-0.8183,-0.7726,-0.615,-0.5842,-0.5467,-0.4553,-0.4388,-0.3834,-0.2397,-0.3469,-0.3811,-0.2284,-0.2117,-0.1505,0.0,0.1449,0.2308,0.2308,0.3775,0.5033,0.5974,0.6944,0.7911,0.8775,0.946,0.9933,1.031,1.0705,1.1038,1.1394,1.1081,1.124,1.1849,1.3165,1.41,1.4698,1.4698,1.4698,1.4698,1.4698,1.4709,1.4698,1.4698,1.4709,1.4698,1.4744,1.4744,1.4744,1.4744,1.4744,1.4744,1.4744,1.4744,1.4744,1.4744,1.4329,1.3862,1.3815,1.3372,1.2929,1.2881,1.2881,1.2881,1.2881,1.2881,1.2881,1.2881,1.2881,1.2666,1.1922,1.1266,1.061,0.9917,0.9263,0.8804,0.8798,0.8537,0.8185,0.7587,0.7506,0.7728,0.8333,0.8393,0.847,0.8764,0.8791,0.8798,0.8804,0.8804,0.848,0.7777,0.7723,0.7396,0.6696,0.6642,0.6642,0.6642,0.6642,0.6642,0.6642,0.6642,0.7074,-1.4907,-1.4804,-1.4436,-1.4214,-1.4269,-1.4204,-1.3594,-1.2661,-1.1746,-1.0887,-0.9624,-0.8267,-0.6745,-0.6011,-0.5581,-0.538,-0.5382,-0.5371,-0.5175,-0.4783,-0.431,-0.3773,-0.3747,0.0,0.0,0.0,0.0,-0.1047,0.0519,0.2143,0.3615,0.4845,0.5938,0.7021,0.7245,0.7852,0.8795,0.8933,0.9263,0.9848,1.011,1.0545,1.1149,1.158,1.1877,1.2132,1.257,1.2773,1.2822,1.3758,1.3873,1.3573,1.3967,1.3884,1.3525,1.3525,1.3525,1.361,1.4433,1.4698,1.4698,1.4698,1.4698,1.4606,1.4236,1.3956,1.3732,1.3334,1.3065,1.2881,1.2881,1.2881,1.2774,1.2295,1.2187,1.2039,1.1584,1.1484,1.1283,1.0618,1.0312,0.9917,0.9263,0.8962,0.8744,0.855,0.8437,0.823,0.7822,0.7776,0.7929,0.833,0.8427,0.849,0.8784,0.8804,0.8593,0.8103,0.8049,0.7723,0.702,0.6966,0.6858,0.6588,0.6588,0.6588,0.6588,0.6588,0.6588,0.6588,0.6588,0.675,-1.7359,-1.7691,-1.7612,-1.7536,-1.7687,-1.7563,-1.6513,-1.5437,-1.4215,-1.2544,-1.1053,-0.9542,-0.7829,-0.6828,-0.6289,-0.6498,-0.6428,-0.6532,-0.7045,-0.6115,-0.546,-0.5615,-0.5159,-0.4791,0.0,0.0,0.0,-0.3344,-0.2448,-0.0904,0.1546,0.2458,0.3481,0.4753,0.5423,0.6113,0.6945,0.7354,0.7837,0.8404,0.8764,0.9378,1.0165,1.0165,1.0415,1.0813,1.1266,1.1466,1.1516,1.2395,1.2511,1.2197,1.2599,1.2463,1.2157,1.2157,1.2157,1.2295,1.3321,1.3643,1.3643,1.3385,1.329,1.3243,1.2822,1.2735,1.2648,1.2246,1.2157,1.2157,1.2157,1.2258,1.2173,1.1601,1.1521,1.148,1.0897,1.0813,1.0618,0.9909,0.9814,0.9562,0.891,0.8804,0.8744,0.8557,0.8319,0.8113,0.8074,0.809,0.8203,0.8497,0.853,0.8501,0.8415,0.8427,0.8103,0.7343,0.7289,0.6966,0.6253,0.6199,0.6095,0.5882,0.5828,0.5828,0.5828,0.5828,0.5828,0.5828,0.5828,0.5987,-1.8888,-1.9626,-2.0139,-2.0871,-2.088,-2.043,-1.9241,-1.8351,-1.6814,-1.3541,-1.2383,-1.1318,0.0,0.0,-0.7645,-0.7817,-0.7553,-0.7513,-0.8039,-0.7584,-0.7286,0.0,0.0,0.0,0.0,0.0,0.0,-0.4522,0.0,-0.3718,-0.0323,-0.0063,0.062,0.2046,0.383,0.4817,0.4759,0.5859,0.662,0.7036,0.7021,0.7708,0.8909,0.8909,0.9556,1.0661,1.0661,1.0712,1.0762,1.0762,1.0813,1.0813,1.0813,1.0813,1.0813,1.0813,1.0813,1.0864,1.1466,1.1715,1.1665,1.1015,1.0813,1.0813,1.0813,1.0813,1.0813,1.0813,1.0813,1.0821,1.0838,1.105,1.1223,1.0902,1.1031,1.1186,1.0818,1.0744,1.0541,0.9888,0.9799,0.9606,0.893,0.8831,0.8824,0.8811,0.8156,0.7852,0.8329,0.8346,0.8395,0.8672,0.8699,0.8427,0.7723,0.767,0.7343,0.6588,0.6534,0.6199,0.5487,0.5433,0.5164,0.4519,0.4519,0.4519,0.4519,0.4519,0.4519,0.4519,0.4519,0.4842,-2.2976,-2.3398,-2.3232,-2.3031,-2.2559,-2.1825,-2.0582,-1.8526,-1.6529,-1.5145,-1.2407,-0.9969,0.0,0.0,0.0,-0.8391,-0.8646,0.0,-0.9948,-0.9467,0.0,-0.8449,0.0,-0.721,-0.6559,-0.6198,0.0,0.0,-0.3759,-0.2753,-0.2039,-0.0701,0.014,0.0558,0.2325,0.3291,0.3235,0.4866,0.5745,0.5857,0.6241,0.6796,0.7464,0.7464,0.7831,0.8495,0.8999,0.9526,1.0115,1.061,1.0813,1.0813,1.0813,1.0813,1.0813,1.0813,1.0813,1.0762,1.0415,1.0669,1.1015,1.0864,1.0813,1.0813,1.0813,1.0813,1.0813,1.0813,1.0813,1.0879,1.1099,1.1239,1.1193,1.0832,1.0773,1.0632,0.9774,0.9601,0.9547,0.9391,0.9577,0.961,0.9165,0.907,0.9058,0.8838,0.8156,0.7753,0.7846,0.7412,0.7063,0.7176,0.7182,0.7074,0.6912,0.6858,0.6583,0.5814,0.576,0.5492,0.4787,0.4732,0.468,0.4519,0.4519,0.4519,0.4519,0.4519,0.4519,0.4519,0.4519,0.457,-2.5529,-2.5886,-2.566,-2.5093,-2.4418,-2.3393,-2.1339,-1.9042,-1.6797,-1.4687,-1.1977,0.0,-0.9656,-0.856,0.0,0.0,0.0,0.0,-1.0971,-1.0837,-1.046,0.0,-0.9667,0.0,-0.8195,-0.7767,-0.7283,0.0,-0.4889,-0.3602,-0.2922,-0.1878,-0.1381,-0.1379,-0.0357,0.0572,0.1304,0.2473,0.3806,0.5386,0.5701,0.599,0.6245,0.6122,0.6604,0.7432,0.0,0.8124,0.8555,0.8844,0.894,0.894,0.894,0.894,0.894,0.894,0.894,0.8888,0.8541,0.8639,0.9044,0.9695,0.9917,0.9917,0.9917,0.9695,0.9451,0.9528,0.9291,0.9146,0.939,0.9566,0.9616,0.9677,0.9791,0.9811,0.9492,0.9432,0.9432,0.9432,0.9566,0.9586,0.9236,0.9183,0.8974,0.8413,0.767,0.7122,0.6794,0.6637,0.6588,0.6588,0.6588,0.6475,0.6145,0.6091,0.5819,0.5109,0.5054,0.4893,0.4519,0.4519,0.4519,0.4519,0.4519,0.4519,0.4519,0.4519,0.4519,0.4519,0.4519,0.4553,-2.7217,-2.7564,-2.7644,-2.6942,-2.6053,-2.4621,-2.165,-1.9477,-1.7006,-1.3311,0.0,-1.0287,-1.0359,-0.8919,-0.8461,-1.0709,0.0,-1.0247,-1.1502,-1.1837,-1.1926,-1.1886,-1.1486,-1.0902,-0.9897,-0.9562,-0.9214,-0.8901,-0.7384,-0.5613,-0.3611,-0.3536,-0.3505,-0.3507,-0.352,-0.2634,-0.0801,-0.0285,0.1552,0.4602,0.4878,0.5058,0.5021,0.5131,0.5771,0.6766,0.0,0.0,0.6951,0.6678,0.6569,0.6559,0.6643,0.6628,0.6628,0.6628,0.6613,0.6588,0.6588,0.6588,0.6804,0.8103,0.848,0.848,0.848,0.8049,0.7603,0.7699,0.733,0.6959,0.7062,0.734,0.7644,0.8203,0.8503,0.8839,0.944,0.9681,0.974,0.9616,0.9708,0.9693,0.9359,0.9187,0.8792,0.7818,0.6966,0.6204,0.5597,0.5982,0.6317,0.6317,0.6317,0.6041,0.5433,0.5378,0.5109,0.4519,0.4519,0.4519,0.4519,0.4519,0.4519,0.4519,0.4519,0.4519,0.4519,0.4519,0.4519,0.4519,0.4539,0.4565,-2.893,-2.9354,-2.9583,-2.8345,-2.6351,-2.4129,-2.1966,-1.8758,0.0,0.0,-1.0831,-0.9244,-0.9681,-0.8941,-0.8743,-1.0238,-1.0631,-1.1069,-1.1959,-1.2483,-1.2681,0.0,-1.2467,0.0,0.0,0.0,0.0,0.0,0.0,-0.7929,-0.5849,-0.5722,-0.5774,-0.5735,-0.5765,-0.4757,-0.2622,-0.1118,-0.0,0.0594,0.2339,0.3145,0.3193,0.4696,0.5312,0.5219,0.5189,0.0,0.7275,0.6798,0.6454,0.6325,0.6687,0.6849,0.6849,0.6849,0.6739,0.6588,0.6588,0.6588,0.6642,0.6912,0.6966,0.6966,0.6966,0.6912,0.6815,0.6797,0.688,0.6954,0.7175,0.74,0.7601,0.8001,0.8127,0.8286,0.8851,0.9538,0.9793,0.9102,0.979,1.0302,0.9699,0.9131,0.8492,0.7794,0.6578,0.5651,0.5542,0.5113,0.4846,0.4846,0.4846,0.4791,0.468,0.468,0.4625,0.4519,0.4519,0.4519,0.4519,0.4519,0.4519,0.4519,0.4519,0.4519,0.4519,0.4519,0.4519,0.4522,0.4592,0.4667,-3.0501,-3.0695,-3.0699,-3.0097,-2.7692,-2.4839,-2.2335,0.0,0.0,0.0,-1.124,-1.0105,-1.064,-0.9819,0.0,-1.0519,-1.0473,-1.0576,-1.14,-1.2396,0.0,-1.3551,-1.4383,0.0,0.0,0.0,0.0,0.0,0.0,-1.012,-0.7436,-0.7496,-0.7425,-0.6943,-0.6485,-0.5797,-0.4758,-0.3927,-0.2848,-0.155,-0.0568,0.0412,0.1338,0.2179,0.297,0.376,0.4519,0.0,0.6026,0.48,0.4703,0.5325,0.5735,0.588,0.5821,0.5695,0.5584,0.5517,0.5517,0.5517,0.5501,0.5523,0.5976,0.6588,0.6588,0.6312,0.6082,0.6242,0.6084,0.5922,0.6262,0.634,0.654,0.7031,0.7531,0.7911,0.8301,0.8685,0.888,0.8491,0.885,0.9092,0.8515,0.8187,0.7607,0.6698,0.5977,0.5378,0.5003,0.4677,0.4519,0.4519,0.4519,0.4519,0.4519,0.4519,0.4519,0.4519,0.4519,0.4519,0.4519,0.4519,0.4519,0.4519,0.4519,0.4556,0.4582,0.4582,0.4623,0.4701,0.4775,0.485,-3.1355,-3.1562,-3.1501,-3.1191,-2.8608,-2.5413,-2.2477,-1.8989,0.0,-1.3102,-1.1734,-1.1161,-1.1692,-1.0706,-1.0066,0.0,-1.0421,-1.0164,-1.0954,-1.2215,-1.3506,0.0,-1.5906,0.0,0.0,0.0,0.0,0.0,0.0,0.0,-0.8874,-0.8983,-0.8626,-0.7724,-0.7143,-0.6802,-0.6861,-0.651,-0.5315,-0.3431,-0.3369,-0.2581,-0.1146,-0.0741,0.0268,0.1718,0.2918,0.0,0.0,0.2237,0.2225,0.3197,0.3928,0.4044,0.3791,0.3604,0.3653,0.3822,0.3822,0.3886,0.3997,0.402,0.498,0.6165,0.6178,0.5749,0.5338,0.5624,0.5317,0.4989,0.5254,0.5328,0.5505,0.6033,0.6656,0.7235,0.7395,0.7767,0.7962,0.7767,0.7857,0.7823,0.736,0.7171,0.673,0.5652,0.5415,0.5152,0.4574,0.4546,0.4556,0.4522,0.4519,0.4519,0.4519,0.4519,0.4519,0.4522,0.4522,0.448,0.4514,0.4518,0.457,0.4514,0.4545,0.4602,0.4691,0.4724,0.4802,0.4918,0.4952,0.5023,-3.0578,-3.1752,-3.2417,-3.0637,-2.7855,-2.4765,-2.2054,0.0,-1.5142,-1.3169,-1.1827,-1.1172,-1.1706,-1.1036,-1.0548,-1.0854,0.0,-1.1016,-1.1454,-1.2431,-1.365,-1.5048,0.0,0.0,0.0,0.0,0.0,0.0,0.0,0.0,-1.0581,-1.0148,-0.9471,-0.8367,-0.8491,-0.8592,-0.8578,-0.7044,-0.607,-0.5664,-0.5557,-0.5289,-0.4821,-0.3199,-0.2159,-0.1665,-0.1533,0.0,0.0,-0.0062,-0.0566,-0.0989,0.1027,0.1205,0.0253,0.0381,0.0875,0.1529,0.1529,0.1899,0.2395,0.2388,0.3421,0.4667,0.4703,0.4642,0.4584,0.4611,0.478,0.4927,0.496,0.5192,0.5349,0.5256,0.5417,0.5597,0.565,0.6859,0.7762,0.6981,0.7281,0.7634,0.733,0.6754,0.6091,0.5597,0.508,0.473,0.4536,0.4582,0.4616,0.4532,0.4519,0.4519,0.4519,0.4519,0.4522,0.4477,0.4477,0.4485,0.4516,0.4691,0.4684,0.4507,0.475,0.4816,0.4691,0.483,0.4904,0.4921,0.505,0.5118,-2.8912,-3.0245,-3.1189,-3.0823,-2.7948,-2.4533,-2.2132,0.0,-1.5673,-1.3837,-1.309,-1.2632,-1.2213,-1.1688,-1.1111,-1.0584,0.0,0.0,-1.1584,-1.2373,-1.3765,-1.6196,0.0,0.0,0.0,0.0,0.0,0.0,0.0,0.0,-1.2919,-1.26,-1.192,-1.0663,-1.0627,-1.0143,-0.914,-0.8094,-0.7468,-0.7351,-0.724,-0.6626,-0.5582,-0.4684,-0.4228,-0.4088,-0.4088,0.0,0.0,-0.3833,-0.36,-0.3862,-0.2967,-0.2297,-0.1835,-0.2892,-0.3071,-0.2586,-0.1549,0.0323,0.2199,0.2226,0.2641,0.31,0.3115,0.3111,0.3142,0.3142,0.3215,0.3299,0.3528,0.3668,0.3499,0.2327,0.3603,0.5125,0.5338,0.5958,0.6346,0.6013,0.6151,0.6237,0.5992,0.5636,0.5314,0.508,0.4794,0.4565,0.4596,0.4572,0.4602,0.4724,0.4735,0.4701,0.4609,0.4684,0.4738,0.4745,0.4689,0.4664,0.4667,0.3748,0.3688,0.4733,0.4661,0.4703,0.4797,0.4856,0.4991,0.5206,0.5257,0.5281,-2.6809,-2.8355,-2.9377,-2.9773,-2.7071,-2.3769,0.0,0.0,-1.5873,-1.4538,-1.4149,-1.3866,-1.3149,-1.2641,-1.1977,0.0,0.0,-1.0391,-1.134,-1.2268,-1.3716,0.0,0.0,0.0,0.0,0.0,0.0,0.0,0.0,0.0,-1.4972,-1.4782,-1.3992,-1.2444,-1.2343,-1.1736,-1.0562,-0.9829,-0.9304,-0.9019,-0.8753,-0.7822,-0.6388,-0.6304,-0.6187,-0.6172,0.0,0.0,0.0,-0.6506,-0.5954,-0.6121,-0.5575,-0.4634,-0.3682,-0.4909,-0.5389,-0.5186,-0.3956,-0.2007,0.0067,0.0589,0.1108,0.1561,0.1524,0.1568,0.1556,0.1542,0.1518,0.1625,0.1867,0.1928,0.1555,0.0333,0.1772,0.3639,0.4403,0.504,0.5379,0.5369,0.5397,0.5329,0.5148,0.5047,0.4931,0.4779,0.4667,0.4636,0.4745,0.4663,0.468,0.4897,0.4996,0.4972,0.472,0.48,0.4864,0.4809,0.4751,0.4338,0.3432,0.2181,0.2119,0.3437,0.3783,0.4014,0.4132,0.4202,0.4392,0.4576,0.4605,0.4876,-2.4427,-2.6266,-2.7307,-2.6859,-2.4711,-2.2289,0.0,0.0,-1.5433,-1.515,-1.4783,-1.4501,-1.4487,-1.3943,-1.319,-1.2319,-1.1625,0.0,-1.0774,-1.2146,0.0,0.0,0.0,0.0,0.0,0.0,0.0,0.0,0.0,0.0,-1.6492,-1.6237,-1.5126,-1.3086,-1.3238,-1.3355,-1.3347,-1.2326,-1.1546,-1.0856,-0.9974,-0.9034,-0.7967,-0.8127,-0.8107,0.0,0.0,0.0,0.0,-0.7353,-0.7158,-0.7718,-0.6017,-0.5372,-0.5362,-0.5376,-0.5379,-0.5379,-0.5379,-0.5316,-0.5052,-0.3215,-0.1404,0.0,0.0,0.0,0.0,0.0,0.0,0.0,0.0,0.0,0.0,0.0,0.0,0.0518,0.2329,0.4164,0.5393,0.5379,0.539,0.5343,0.5131,0.5128,0.5081,0.4938,0.4914,0.4914,0.4918,0.4914,0.4914,0.4918,0.5182,0.5243,0.4832,0.4809,0.4697,0.4528,0.4528,0.3134,0.0193,0.0064,0.0,0.0064,0.1781,0.2574,0.225,0.2581,0.2749,0.2746,0.2754,0.3719,-2.0343,-2.1994,-2.313,-2.2977,-2.1362,-1.9602,-1.8787,-1.6909,-1.5321,-1.5123,-1.5013,-1.4814,-1.4564,-1.4349,-1.3819,-1.273,-1.2361,0.0,0.0,0.0,0.0,0.0,0.0,0.0,0.0,0.0,0.0,0.0,0.0,0.0,-1.6549,-1.5946,-1.5311,-1.4638,-1.4469,-1.4294,-1.397,-1.3087,-1.2531,-1.2344,-1.2059,-1.141,-1.051,-1.0285,0.0,0.0,0.0,0.0,0.0,-0.7614,-0.773,-0.8741,-0.7196,-0.6533,-0.6591,-0.6538,-0.6684,-0.6731,-0.6157,-0.5645,-0.5145,-0.4662,-0.3988,-0.3103,-0.1896,-0.0777,0.0,0.0,0.0,0.0,0.0,0.0,0.0,0.0,0.0,0.0133,0.0735,0.1272,0.2076,0.3282,0.4535,0.5384,0.5311,0.5298,0.5279,0.528,0.5123,0.5027,0.5053,0.4979,0.4996,0.5199,0.5216,0.5115,0.5024,0.5115,0.4646,0.3333,0.4401,0.4692,0.3725,0.1328,0.0,0.0,0.0536,0.0811,0.0683,0.0834,0.0844,0.085,0.0857,0.1856,0.0,-1.8435,-1.9403,-1.9946,-1.8775,0.0,0.0,-1.5857,-1.4669,-1.5242,-1.5155,-1.4979,-1.5,-1.4783,-1.4281,-1.3247,-1.2997,-1.2816,0.0,0.0,0.0,0.0,0.0,0.0,0.0,0.0,0.0,0.0,0.0,0.0,-1.7357,-1.6368,-1.5816,-1.5816,-1.5358,-1.4948,-1.4638,-1.4154,-1.3726,-1.3425,-1.3425,-1.291,-1.1957,-1.1688,0.0,0.0,0.0,0.0,0.0,-0.9022,-0.9067,-1.0037,-0.8206,-0.7457,-0.7457,-0.7176,-0.7205,-0.7262,-0.6705,-0.6063,-0.5557,-0.5627,-0.5273,-0.4645,-0.3559,-0.2168,-0.0851,-0.0201,0.0,-0.0329,-0.1675,-0.202,-0.1682,-0.0336,0.0,0.0,0.0,0.0,0.0335,0.1473,0.2613,0.3558,0.4233,0.4375,0.4389,0.4378,0.4858,0.5231,0.5225,0.5061,0.5,0.5366,0.5312,0.5239,0.5185,0.5335,0.4303,0.1811,0.2758,0.337,0.337,0.1212,0.0,0.0,0.0,0.0,0.0,0.0,0.0,0.0,0.0,0.0582,0.0,-1.5383,-1.6052,-1.7353,-1.6613,0.0,0.0,0.0,0.0,-1.5291,-1.516,-1.4937,-1.5593,-1.5205,-1.4537,-1.381,-1.3473,0.0,0.0,0.0,0.0,0.0,0.0,0.0,0.0,0.0,0.0,0.0,0.0,0.0,-1.8715,-1.7357,-1.6595,-1.6595,-1.5891,-1.5477,-1.5371,-1.5371,-1.5002,-1.4337,-1.4287,-1.3685,-1.2647,-1.2564,-1.2225,0.0,0.0,0.0,0.0,-1.1161,-1.0971,-1.1399,-0.915,-0.8305,-0.819,-0.7587,-0.7377,-0.7333,-0.7274,-0.6862,-0.6307,-0.613,-0.5555,-0.4942,-0.5028,-0.4034,-0.2559,-0.0857,-0.0268,-0.0938,-0.4325,-0.5349,-0.4523,-0.1209,-0.0201,0.0,0.0,0.0,0.0,0.0,0.0,0.0536,0.2209,0.2477,0.2477,0.2476,0.3951,0.5045,0.5164,0.4956,0.4863,0.5183,0.5338,0.5428,0.5373,0.543,0.3852,0.0202,0.0,0.0,0.0,0.0,0.0,0.0,0.0,0.0,0.0,0.0,0.0,0.0,0.0,0.0,-1.0162,0.0,-1.2137,-1.2448,-1.2466,-1.253,0.0,0.0,0.0,0.0,0.0,-1.411,-1.4701,-1.467,-1.4356,-1.3643,-1.3495,-1.3265,0.0,0.0,0.0,0.0,0.0,0.0,0.0,0.0,0.0,0.0,0.0,-1.8715,-1.8715,-1.7852,-1.7357,-1.7357,-1.6787,-1.6004,-1.4932,-1.4932,-1.5137,-1.5487,-1.4902,-1.4788,-1.5029,-1.4131,-1.3176,0.0,0.0,0.0,-1.2043,-1.1583,-1.1524,-1.1652,-1.0561,-1.0151,-1.0151,-0.9993,-0.9742,-0.9466,-0.8789,-0.8217,-0.7605,-0.6758,-0.6459,-0.6423,-0.642,-0.567,-0.4708,-0.4265,-0.3151,-0.2287,-0.3374,-0.4512,-0.5155,-0.4351,-0.2041,0.0,0.0,0.0,0.0,0.0,0.0,0.0135,0.0538,0.0605,0.0605,0.0603,0.1017,0.1789,0.3138,0.3254,0.3266,0.3358,0.4563,0.5411,0.5378,0.5375,0.3863,0.0202,0.0,0.0,0.0,0.0,0.0,0.0,0.0,0.0,0.0,0.0,0.0,0.0,0.0,0.0,-0.7469,-0.8616,-0.9769,-1.0641,-1.0838,-1.1061,0.0,0.0,0.0,0.0,0.0,-1.3039,-1.3637,-1.3954,-1.4007,-1.3659,-1.3998,0.0,0.0,0.0,0.0,0.0,0.0,0.0,0.0,0.0,0.0,0.0,0.0,-1.9202,-1.9202,-1.8501,-1.8112,-1.8112,-1.7472,-1.6699,-1.5748,-1.5475,-1.5521,-1.5933,-1.5521,-1.5469,-1.5588,-1.4635,-1.383,0.0,0.0,0.0,-1.2335,-1.258,-1.2541,-1.2246,-1.1516,-1.1266,-1.1216,-1.0914,-1.0688,-1.0438,-1.0,-0.9193,-0.8233,-0.7125,-0.6749,-0.6779,-0.6874,-0.651,-0.5977,-0.5531,-0.4716,-0.3969,-0.4099,-0.4757,-0.5406,-0.5423,-0.3934,-0.2008,-0.0335,0.0,0.0,0.0,0.0,0.0,0.0,0.0,0.0,0.0,0.0,0.0357,0.1302,0.1467,0.1472,0.1452,0.3858,0.5387,0.5396,0.3907,0.2084,0.014,0.0,0.0,0.0,0.0,0.0,0.0,0.0,0.0,0.0,0.0,0.0,0.0,0.0,0.0,-0.598,-0.7029,-0.8418,-0.9967,-1.0354,-1.0584,-1.136,0.0,0.0,0.0,0.0,0.0,0.0,0.0,0.0,0.0,0.0,0.0,0.0,0.0,0.0,0.0,0.0,0.0,0.0,0.0,0.0,0.0,0.0,-1.9798,-1.9798,-1.9202,-1.8874,-1.8874,-1.8151,-1.7554,-1.7001,-1.6378,-1.602,-1.6042,-1.5953,-1.5731,-1.5463,-1.4833,-1.4296,-1.3956,0.0,0.0,-1.3055,-1.36,-1.342,-1.2822,-1.2187,-1.1972,-1.1922,-1.1325,-1.1074,-1.0965,-1.0864,-1.0033,-0.8876,-0.7825,-0.7329,-0.7101,-0.7295,-0.7212,-0.6865,-0.6018,-0.5766,-0.5672,-0.5568,-0.5572,-0.5579,-0.547,-0.5396,-0.4561,-0.1472,-0.0402,0.0,0.0,0.0,0.0,0.0,0.0,0.0,0.0,0.0,0.0,0.0,0.0,0.0,0.0,0.2731,0.4605,0.458,0.1796,0.0,0.0,0.0,0.0,0.0,0.0,0.0,0.0,0.0,0.0,0.0,0.0,0.0,0.0,0.0,0.0,-0.6691,-0.7291,-0.7783,-0.7838,-0.9254,-1.0485,-0.9991,0.0,0.0,0.0,0.0,0.0,0.0,0.0,0.0,0.0,0.0,0.0,0.0,0.0,0.0,0.0,0.0,0.0,0.0,0.0,0.0,0.0,0.0,-1.9798,-1.9798,-1.9695,-1.9631,-1.9631,-1.9055,-1.8524,-1.7981,-1.6773,-1.6211,-1.6338,-1.572,-1.5686,-1.6221,-1.5511,-1.492,-1.456,0.0,-1.4247,-1.3684,-1.3779,-1.342,-1.2881,-1.2774,-1.2715,-1.2725,-1.2618,-1.2197,-1.1566,-1.1015,-1.0661,-1.0458,-1.0249,-0.9777,-0.9295,-0.9344,-0.8613,-0.7706,-0.7551,-0.7355,-0.7035,-0.6429,-0.64,-0.6374,-0.573,-0.5467,-0.5243,-0.4697,-0.2142,0.0,0.0,0.0,0.0,0.0,0.0,0.0,0.0,0.0,0.0,0.0,0.0,0.0,0.0,0.053,0.0832,0.0828,0.0302,0.0,0.0,0.0,0.0,0.0,0.0,0.0,0.0,0.0,0.0,0.0,0.0,0.0,0.0,0.0,0.0,-0.6478,-0.7106,-0.77,-0.8122,-0.9359,-1.0427,-1.0213,0.0,0.0,0.0,0.0,0.0,0.0,0.0,0.0,0.0,0.0,0.0,0.0,0.0,0.0,0.0,0.0,0.0,0.0,0.0,0.0,0.0,0.0,0.0,-1.9397,-1.9648,-1.9673,-1.9397,-1.9422,-1.8907,-1.7765,-1.7447,-1.7014,-1.6463,-1.6104,-1.6137,-1.6418,-1.5453,-1.4864,-1.4698,0.0,-1.3873,-1.3334,-1.3684,-1.342,-1.2881,-1.2881,-1.2881,-1.2881,-1.2881,-1.2666,-1.2295,-1.1575,-1.1366,-1.1266,-1.0914,-1.061,-1.0364,-1.0364,-0.9687,-0.8904,-0.8904,-0.8132,-0.7233,-0.6897,-0.6935,-0.6912,-0.6102,-0.6005,-0.5954,-0.5509,-0.409,-0.2342,-0.0402,0.0,0.0,0.0,0.0,0.0,0.0,0.0,0.0,0.0,0.0,0.0,0.0,0.0,0.0,0.0,0.0,0.0,0.0,0.0,0.0,0.0,0.0,0.0,0.0,0.0,0.0,0.0,0.0,0.0,0.0,0.0,0.0,-0.6382,-0.7124,-0.7939,-0.8702,0.0,-1.101,-1.1129,0.0,0.0,0.0,0.0,0.0,0.0,0.0,0.0,0.0,0.0,0.0,0.0,0.0,0.0,0.0,0.0,0.0,0.0,0.0,0.0,0.0,0.0,0.0,-1.8995,-1.9284,-1.9246,-1.8844,-1.9221,-1.8769,-1.74,-1.7802,-1.7501,-1.6522,-1.6522,-1.6522,-1.6466,-1.5522,-1.5107,-1.5062,-1.4329,-1.3742,-1.3334,-1.3515,-1.3334,-1.2881,-1.2881,-1.2881,-1.2881,-1.2881,-1.2881,-1.2822,-1.2236,-1.208,-1.1981,-1.1484,-1.1174,-1.1015,-1.0864,-1.0312,-0.9762,-0.9614,-0.8538,-0.7449,-0.7321,-0.75,-0.7501,-0.6675,-0.6549,-0.6412,-0.5818,-0.5572,-0.4564,-0.1806,-0.0937,-0.0469,-0.0067,0.0,0.0,0.0,0.0,0.0,0.0,0.0,0.0,0.0,0.0,0.0,0.0,0.0,0.0,0.0,0.0,0.0,0.0,0.0,0.0,0.0,0.0,0.0,0.0,0.0,0.0,0.0,0.0,0.0,-0.708,-0.7877,-0.8512,-0.8541,-1.078,0.0,-1.2617,-1.3731,0.0,0.0,0.0,0.0,0.0,0.0,0.0,0.0,0.0,0.0,0.0,0.0,0.0,0.0,0.0,0.0,0.0,0.0,0.0,0.0,0.0,0.0,-1.8983,-1.8581,-1.8304,-1.8267,-1.8304,-1.8016,-1.7388,-1.7426,-1.7137,-1.6522,-1.6522,-1.6522,-1.6522,-1.6423,-1.638,-1.6293,-1.5152,-1.4606,-1.4479,-1.343,-1.2929,-1.2881,-1.2881,-1.2881,-1.2881,-1.2881,-1.2881,-1.2881,-1.2822,-1.2822,-1.2822,-1.2774,-1.2295,-1.1616,-1.0965,-1.0312,-0.9658,-0.9061,-0.8778,-0.8543,-0.8002,-0.8074,-0.8207,-0.7578,-0.6827,-0.6316,-0.6555,-0.5954,-0.5309,-0.5036,-0.3685,-0.1941,-0.0268,0.0,0.0,0.0,0.0,0.0,0.0,0.0,0.0,0.0,0.0,0.0,0.0,0.0,0.0,0.0,0.0,0.0,0.0,0.0,0.0,0.0,0.0,0.0,0.0,0.0,0.0,0.0,0.0,0.0,-0.7526,-0.8673,-0.9836,-1.0306,0.0,0.0,0.0,0.0,0.0,0.0,0.0,0.0,0.0,0.0,0.0,0.0,0.0,0.0,0.0,0.0,0.0,0.0,0.0,0.0,0.0,0.0,0.0,0.0,0.0,0.0,0.0,-1.8129,-1.8053,-1.7702,-1.8028,-1.7765,-1.6861,-1.72,-1.7087,-1.6522,-1.6522,-1.6522,-1.6479,-1.6095,-1.5732,-1.5332,-1.4514,-1.392,-1.3573,-1.3113,-1.2881,-1.2881,-1.2881,-1.2881,-1.2881,-1.2881,-1.2881,-1.2881,-1.2881,-1.2881,-1.2881,-1.2881,-1.2889,-1.2783,-1.228,-1.1811,-1.1283,-1.0332,-0.9911,-0.9573,-0.886,-0.8802,-0.8813,-0.8393,-0.7623,-0.693,-0.6742,-0.6013,-0.5369,-0.5376,-0.4834,-0.4159,-0.3489,-0.2537,-0.1902,-0.1955,-0.1932,-0.1448,-0.0156,0.0,0.0,0.0,0.0,0.0,0.0,0.0,0.0,0.0,0.0,0.0,0.0,0.0,0.0,0.0,0.0,0.0,0.0,0.0,0.0,0.0,0.0,0.0,-0.7854,-0.9033,-1.0237,0.0,0.0,0.0,0.0,0.0,0.0,0.0,0.0,0.0,0.0,0.0,0.0,0.0,0.0,0.0,0.0,0.0,0.0,0.0,0.0,0.0,0.0,0.0,0.0,0.0,0.0,0.0,0.0,-1.7564,-1.7501,-1.7124,-1.7476,-1.73,-1.6522,-1.6911,-1.6911,-1.6522,-1.6522,-1.6522,-1.6479,-1.6051,-1.5644,-1.5242,-1.4641,-1.4014,-1.343,-1.3238,-1.3065,-1.2881,-1.2881,-1.2881,-1.29,-1.3027,-1.3076,-1.3076,-1.3076,-1.3076,-1.3057,-1.293,-1.3164,-1.3377,-1.2733,-1.2637,-1.2439,-1.1353,-1.0783,-1.0376,-0.9981,-0.9608,-0.9302,-0.9141,-0.8493,-0.7746,-0.7196,-0.64,-0.5752,-0.5435,-0.5413,-0.5433,-0.5396,-0.4568,-0.3985,-0.4065,-0.4091,-0.3583,-0.2184,-0.1408,-0.0707,-0.0079,0.0,0.0,0.0,0.0,0.0,0.0,0.0,0.0,0.0,0.0,0.0,0.0,0.0,0.0,0.0,0.0,0.0,0.0,0.0,0.0,-0.8054,-0.8863,-0.9511,0.0,0.0,0.0,0.0,0.0,0.0,0.0,0.0,0.0,0.0,0.0,0.0,0.0,0.0,0.0,0.0,0.0,0.0,0.0,0.0,0.0,0.0,0.0,0.0,0.0,0.0,0.0,0.0,-1.6823,-1.6522,-1.6522,-1.6522,-1.6522,-1.6522,-1.6466,-1.6479,-1.6479,-1.6479,-1.6479,-1.6522,-1.6466,-1.6479,-1.6466,-1.582,-1.5231,-1.4663,-1.405,-1.3467,-1.2929,-1.2881,-1.2881,-1.293,-1.335,-1.3506,-1.3496,-1.3506,-1.3506,-1.3437,-1.3018,-1.3164,-1.3316,-1.2149,-1.2434,-1.2896,-1.1786,-1.1248,-1.0982,-1.124,-1.0528,-0.9693,-0.9693,-0.9232,-0.868,-0.8104,-0.7307,-0.6461,-0.5554,-0.5484,-0.5545,-0.5406,-0.5554,-0.583,-0.6226,-0.6293,-0.6294,-0.6278,-0.4462,-0.2366,-0.0243,0.0,0.0,0.0,0.0,0.0,0.0,0.0,0.0,0.0,0.0,0.0,0.0,0.0,0.0,0.0,0.0,0.0,0.0,0.0,0.0,-0.8394,-1.0177,0.0,0.0,0.0,0.0,0.0,0.0,0.0,0.0,0.0,0.0,0.0,0.0,0.0,0.0,0.0,0.0,0.0,0.0,0.0,0.0,0.0,0.0,0.0,0.0,0.0,0.0,0.0,0.0,0.0,-1.6609,-1.6522,-1.6522,-1.6522,-1.6522,-1.6522,-1.6095,-1.5864,-1.5864,-1.5421,-1.57,-1.6479,-1.6051,-1.5644,-1.5197,-1.4595,-1.4226,-1.405,-1.3862,-1.3684,-1.3505,-1.3065,-1.2881,-1.293,-1.335,-1.332,-1.3105,-1.3408,-1.3311,-1.3047,-1.292,-1.3164,-1.3377,-1.2742,-1.3141,-1.3607,-1.2501,-1.2488,-1.2544,-1.131,-1.1093,-1.1009,-1.0479,-0.9568,-0.8809,-0.8884,-0.7767,-0.6654,-0.6396,-0.5947,-0.5576,-0.5535,-0.5769,-0.5969,-0.6053,-0.6187,-0.6304,-0.6278,-0.5896,-0.4188,-0.0405,0.0,0.0,0.0,0.0,0.0,0.0,0.0,0.0,0.0,0.0,0.0,0.0,0.0,0.0,0.0,0.0,0.0,0.0,0.0,0.0,-0.8718,-1.0631,0.0,0.0,0.0,0.0,0.0,0.0,0.0,0.0,0.0,0.0,0.0,0.0,0.0,0.0,0.0,0.0,0.0,0.0,0.0,0.0,0.0,0.0,0.0,0.0,0.0,0.0,0.0,0.0,0.0,-1.6522,-1.6522,-1.6522,-1.6522,-1.6522,-1.6522,-1.6139,-1.582,-1.5588,-1.5466,-1.5522,-1.5788,-1.5421,-1.505,-1.4698,-1.4329,-1.4283,-1.4503,-1.4283,-1.4143,-1.4107,-1.3515,-1.3238,-1.3288,-1.345,-1.3447,-1.3389,-1.3477,-1.3447,-1.332,-1.2988,-1.3164,-1.3457,-1.3203,-1.3721,-1.4227,-1.3591,-1.3598,-1.3508,-1.2107,-1.1774,-1.1556,-1.0588,-0.9949,-0.9506,-0.9296,-0.8484,-0.7526,-0.6884,-0.6451,-0.6091,-0.5744,-0.5922,-0.6101,-0.6037,-0.6162,-0.6264,-0.6271,-0.6445,-0.5553,-0.2915,-0.1088,0.0,0.0,0.0,0.0,0.0,0.0,0.0,0.0,0.0,0.0,0.0,0.0,0.0,0.0,0.0,0.0,0.0,0.0,0.0,-0.9032,0.0,0.0,0.0,0.0,0.0,0.0,0.0,0.0,0.0,0.0,0.0,0.0,0.0,0.0,0.0,0.0,0.0,0.0,0.0,0.0,0.0,0.0,0.0,0.0,0.0,0.0,0.0,0.0,0.0,0.0,-1.6522,-1.6522,-1.6522,-1.6522,-1.6522,-1.6552,-1.6466,-1.6194,-1.5664,-1.6139,-1.5744,-1.4698,-1.4698,-1.4652,-1.4571,-1.4698,-1.505,-1.5499,-1.4971,-1.4789,-1.4698,-1.405,-1.3815,-1.3784,-1.3581,-1.3721,-1.3912,-1.3623,-1.373,-1.3896,-1.3135,-1.3135,-1.3447,-1.3447,-1.4043,-1.4727,-1.4727,-1.4525,-1.4094,-1.3252,-1.2451,-1.1636,-1.0458,-1.0367,-1.0364,-0.9594,-0.9338,-0.8879,-0.7418,-0.7077,-0.6869,-0.6086,-0.6132,-0.6213,-0.6071,-0.6169,-0.6338,-0.6338,-0.6295,-0.6366,-0.6575,-0.2985,-0.0424,-0.0,0.0,0.0,0.0,0.0,0.0,0.0,0.0,0.0,0.0,0.0,0.0,0.0,0.0,0.0,0.0,0.0,0.0,-0.9454,-1.1127,0.0,0.0,0.0,0.0,0.0,0.0,0.0,0.0,0.0,0.0,0.0,0.0,0.0,0.0,0.0,0.0,0.0,0.0,0.0,0.0,0.0,0.0,0.0,0.0,0.0,0.0,0.0,0.0,-1.6522,-1.6522,-1.6522,-1.6522,-1.6522,-1.671,-1.7105,-1.6244,-1.594,0.0,-1.5454,-1.4926,-1.4698,-1.4698,-1.4201,-1.3382,-1.4778,-1.5231,-1.4926,-1.5276,-1.541,-1.532,-1.4226,-1.3815,-1.3784,-1.3581,-1.335,-1.3184,-1.3418,-1.335,-1.3125,-1.2939,-1.2939,-1.3018,-1.3018,-1.3603,-1.4277,-1.4277,-1.4656,-1.4805,-1.3364,-1.2879,-1.2373,-1.0843,-1.0577,-1.0561,-1.0364,-0.9786,-0.9221,-0.8885,-0.7879,-0.7007,-0.6869,-0.6503,-0.6251,-0.6217,-0.624,-0.6338,-0.6338,-0.6464,-0.658,-0.6347,-0.5724,-0.3858,-0.0347,0.0,0.0,0.0,0.0,0.0,0.0,0.0,0.0,0.0,0.0,0.0,0.0,0.0,0.0,0.0,0.0,0.0,-0.9474,0.0,0.0,0.0,0.0,0.0,0.0,0.0,0.0,0.0,0.0,0.0,0.0,0.0,0.0,0.0,0.0,0.0,0.0,0.0,0.0,0.0,0.0,0.0,0.0,0.0,0.0,0.0,0.0,-1.6522,-1.6522,-1.6522,-1.6522,-1.6522,-1.6522,-1.6637,-1.6909,-1.6312,-1.6039,-1.6003,-1.5732,-1.5421,-1.5096,-1.4514,-1.392,-1.3372,-1.4318,-1.4915,-1.5152,-1.5454,-1.5776,-1.5908,-1.4687,-1.4236,-1.4129,-1.3451,-1.3193,-1.3184,-1.3203,-1.3193,-1.3154,-1.2939,-1.2881,-1.2959,-1.3359,-1.3789,-1.4165,-1.4629,-1.5068,-1.505,-1.3425,-1.3009,-1.2581,-1.0989,-1.0624,-1.0624,-1.0624,-1.0341,-1.0015,-0.9675,-0.9104,-0.86,-0.8203,-0.7501,-0.6872,-0.6338,-0.6338,-0.6338,-0.6338,-0.6454,-0.6563,-0.6414,-0.6574,-0.5793,-0.3384,-0.1237,0.0,0.0,0.0,0.0,0.0,0.0,0.0,0.0,0.0,0.0,0.0,0.0,0.0,0.0,0.0,0.0,0.0,0.0,0.0,0.0,0.0,0.0,0.0,0.0,0.0,0.0,0.0,0.0,0.0,0.0,0.0,0.0,0.0,0.0,0.0,0.0,0.0,0.0,0.0,0.0,0.0,0.0,0.0,0.0,0.0,-1.6595,-1.6522,-1.6522,-1.6522,-1.6522,-1.6522,-1.6552,-1.6637,-1.6552,-1.6281,-1.5896,-1.6324,-1.6194,-1.5588,-1.4595,-1.4003,-1.3815,-1.4003,-1.4641,-1.5454,-1.5543,-1.5908,-1.6238,-1.5017,-1.456,-1.4422,-1.3296,-1.3105,-1.335,-1.2998,-1.3105,-1.335,-1.3076,-1.2988,-1.3135,-1.3896,-1.4136,-1.4394,-1.5107,-1.5352,-1.505,-1.3425,-1.3009,-1.2581,-1.0989,-1.0624,-1.0624,-1.0624,-1.0788,-1.079,-1.0188,-1.0125,-0.9902,-0.918,-0.8237,-0.7249,-0.6416,-0.6338,-0.6271,-0.6295,-0.6424,-0.6512,-0.6512,-0.6619,-0.6711,-0.6711,-0.3093,-0.0626,-0.0,0.0,0.0,0.0,0.0,0.0,0.0,0.0,0.0,0.0,0.0,0.0,0.0,0.0,0.0,0.0,0.0,0.0,0.0,0.0,0.0,0.0,0.0,0.0,0.0,0.0,0.0,0.0,0.0,0.0,0.0,0.0,0.0,0.0,0.0,0.0,0.0,0.0,0.0,0.0,0.0,0.0,0.0,-1.7271,-1.6993,-1.6522,-1.6522,-1.6522,-1.6522,-1.6522,-1.671,-1.7188,-1.671,-1.671,-1.705,-1.6667,-1.6194,-1.5576,-1.5443,-1.4767,-1.3862,-1.4903,-1.5141,-1.488,-1.5365,-1.5632,-1.5588,-1.4411,-1.3909,-1.3826,-1.3152,-1.291,-1.2959,-1.29,-1.292,-1.3018,-1.332,-1.3418,-1.3516,-1.3941,-1.4394,-1.4717,-1.4834,-1.5127,-1.505,-1.3425,-1.3009,-1.2581,-1.0989,-1.0624,-1.0624,-1.0624,-1.0788,-1.1002,-1.0843,-0.9857,-0.8798,-0.8125,-0.7176,-0.649,-0.6338,-0.6338,-0.6305,-0.6427,-0.6576,-0.6671,-0.6671,-0.685,-0.6981,-0.6784,-0.5207,-0.2945,-0.0179,0.0,0.0,0.0,0.0,0.0,0.0,0.0,0.0,0.0,0.0,0.0,0.0,0.0,0.0,-0.8155,0.0,0.0,0.0,0.0,0.0,0.0,0.0,0.0,0.0,0.0,0.0,0.0,0.0,0.0,0.0,0.0,0.0,0.0,0.0,0.0,0.0,0.0,0.0,0.0,0.0,0.0,0.0,-1.7197,-1.6636,-1.6099,-1.6057,-1.6057,-1.6057,-1.6358,-1.6595,-1.6837,-1.6637,-1.6637,-1.6837,-1.6595,-1.638,-1.6095,-1.5764,-1.4949,-1.3815,-1.4365,-1.4641,-1.4698,-1.4641,-1.4994,-1.5499,-1.4272,-1.3815,-1.3732,-1.3104,-1.2881,-1.2881,-1.2881,-1.2881,-1.291,-1.3096,-1.3311,-1.3584,-1.3951,-1.4443,-1.4834,-1.5068,-1.5264,-1.505,-1.3425,-1.3009,-1.2581,-1.0989,-1.0624,-1.0665,-1.0768,-1.1029,-1.1329,-1.1663,-1.1194,-1.0285,-0.8898,-0.8237,-0.7629,-0.649,-0.6338,-0.6312,-0.6454,-0.6607,-0.6732,-0.682,-0.7014,-0.7034,-0.6987,-0.6413,-0.546,-0.4037,-0.1432,0.0,0.0,0.0,0.0,0.0,0.0,0.0,0.0,0.0,0.0,0.0,0.0,0.0,0.0,0.0,0.0,0.0,0.0,0.0,0.0,0.0,0.0,0.0,0.0,0.0,0.0,0.0,0.0,0.0,0.0,0.0,0.0,0.0,0.0,0.0,0.0,0.0,0.0,0.0,0.0,0.0,-1.7153,-1.6307,-1.5667,-1.5627,-1.56,-1.548,-1.5881,-1.6095,-1.6095,-1.6095,-1.6095,-1.6095,-1.6095,-1.617,-1.6266,-1.5671,-1.4969,-1.4226,-1.4097,-1.4283,-1.4652,-1.405,-1.4318,-1.5039,-1.3956,-1.3552,-1.3505,-1.3065,-1.2881,-1.2881,-1.2881,-1.2881,-1.29,-1.3008,-1.3252,-1.3603,-1.4141,-1.4521,-1.4873,-1.5293,-1.541,-1.505,-1.3425,-1.3075,-1.2709,-1.1107,-1.0728,-1.0835,-1.1056,-1.1336,-1.169,-1.2204,-1.2077,-1.1471,-0.997,-0.9221,-0.8408,-0.6924,-0.6546,-0.638,-0.6566,-0.6688,-0.6817,-0.6966,-0.7078,-0.7058,-0.7074,-0.7078,-0.7091,-0.7121,-0.3223,-0.0628,-0.0,0.0,0.0,0.0,0.0,0.0,0.0,0.0,0.0,0.0,0.0,0.0,0.0,0.0,0.0,0.0,0.0,0.0,0.0,0.0,0.0,0.0,0.0,0.0,0.0,0.0,0.0,0.0,0.0,0.0,0.0,0.0,0.0,0.0,0.0,0.0,0.0,0.0,0.0,0.0,-1.727,-1.6494,-1.5562,-1.5524,-1.5349,-1.4953,-1.4979,-1.4991,-1.4991,-1.4991,-1.4991,-1.4991,-1.4991,-1.5229,-1.5743,-1.5097,-1.5093,-1.5487,-1.4926,-1.4652,-1.4652,-1.405,-1.3815,-1.3815,-1.319,-1.2978,-1.2929,-1.2929,-1.2881,-1.2881,-1.2881,-1.2881,-1.2949,-1.335,-1.3486,-1.3662,-1.4502,-1.4766,-1.4873,-1.5293,-1.541,-1.505,-1.3425,-1.3202,-1.2941,-1.1355,-1.1182,-1.1383,-1.1403,-1.1637,-1.1937,-1.2245,-1.1545,-1.0858,-1.0708,-0.9135,-0.7915,-0.7928,-0.7088,-0.6569,-0.6868,-0.6912,-0.697,-0.7112,-0.7136,-0.7139,-0.7143,-0.7143,-0.7064,-0.7088,-0.4736,-0.2342,-0.0092,0.0,0.0,0.0,0.0,0.0,0.0,0.0,0.0,0.0,0.0,0.0,0.0,0.0,0.0,0.0,0.0,0.0,0.0,0.0,0.0,0.0,0.0,0.0,0.0,0.0,0.0,0.0,0.0,0.0,0.0,0.0,0.0,0.0,0.0,0.0,0.0,0.0,0.0,0.0,0.0,-1.5805,-1.5316,-1.4836,-1.456,-1.4374,-1.4727,-1.4916,-1.4916,-1.4916,-1.5053,-1.5392,-1.5392,-1.568,-1.622,-1.6008,-1.6022,-1.6107,-1.5152,-1.4698,-1.4652,-1.405,-1.3815,-1.3732,-1.3152,-1.2881,-1.2881,-1.2881,-1.2881,-1.2881,-1.2881,-1.2881,-1.29,-1.3057,-1.3281,-1.3613,-1.4189,-1.4561,-1.4873,-1.5293,-1.541,-1.505,-1.3425,-1.3211,-1.3028,-1.1618,-1.1349,-1.1476,-1.167,-1.1937,-1.2178,-1.2278,-1.2146,-1.1885,-1.12,-1.064,-0.9825,-0.8452,-0.7979,-0.7503,-0.6984,-0.6929,-0.6983,-0.7126,-0.7139,-0.7139,-0.7139,-0.7139,-0.7193,-0.7316,-0.6412,-0.4087,-0.0188,0.0,0.0,0.0,0.0,0.0,0.0,0.0,0.0,0.0,0.0,0.0,-0.6052,0.0,0.0,0.0,0.0,0.0,0.0,0.0,0.0,0.0,0.0,0.0,0.0,0.0,0.0,0.0,0.0,0.0,0.0,0.0,0.0,0.0,0.0,0.0,0.0,0.0,0.0,0.0,0.0,0.0,-1.4808,-1.4284,-1.3938,-1.3808,-1.4124,-1.4325,-1.4325,-1.4325,-1.4601,-1.5141,-1.5141,-1.553,-1.6245,-1.6021,-1.6132,-1.6423,-1.5421,-1.5017,-1.4915,-1.392,-1.3637,-1.3732,-1.3152,-1.2881,-1.2881,-1.2881,-1.2881,-1.2881,-1.2881,-1.2881,-1.2881,-1.2881,-1.3066,-1.3398,-1.3965,-1.4336,-1.4687,-1.5254,-1.541,-1.505,-1.3425,-1.2861,-1.2542,-1.1895,-1.1724,-1.177,-1.1971,-1.2164,-1.2305,-1.2305,-1.2545,-1.2586,-1.1889,-1.1727,-1.1117,-0.9306,-0.8743,-0.8154,-0.7063,-0.7,-0.7037,-0.7129,-0.7139,-0.7139,-0.7139,-0.7139,-0.7214,-0.7383,-0.7312,-0.544,-0.1341,-0.0471,0.0,0.0,0.0,0.0,0.0,0.0,0.0,0.0,0.0,0.0,0.0,0.0,0.0,0.0,0.0,0.0,0.0,0.0,0.0,0.0,0.0,0.0,0.0,0.0,0.0,0.0,0.0,0.0,0.0,0.0,0.0,0.0,0.0,0.0,0.0,0.0,0.0,0.0,-1.5451,-1.4724,-1.3927,-1.3888,-1.3682,-1.3198,-1.3198,-1.3198,-1.3198,-1.3198,-1.3509,-1.4085,-1.4097,-1.4676,-1.5693,-1.5127,-1.5459,-1.6466,-1.5864,-1.5588,-1.5454,-1.3695,-1.3286,-1.3732,-1.3152,-1.2881,-1.2881,-1.2881,-1.2881,-1.2881,-1.2881,-1.2881,-1.2881,-1.2881,-1.2881,-1.3037,-1.3877,-1.4077,-1.4262,-1.5166,-1.5352,-1.4991,-1.3381,-1.2201,-1.1563,-1.2151,-1.2285,-1.2291,-1.2298,-1.2305,-1.2305,-1.2305,-1.2552,-1.2835,-1.2835,-1.2223,-1.1439,-1.0345,-0.9372,-0.8341,-0.7207,-0.7139,-0.7139,-0.7139,-0.7139,-0.7139,-0.7139,-0.7143,-0.7214,-0.7366,-0.7587,-0.65,-0.3809,-0.1345,0.0,0.0,0.0,0.0,0.0,0.0,0.0,0.0,0.0,0.0,-0.5455,0.0,0.0,0.0,0.0,0.0,0.0,0.0,0.0,0.0,0.0,0.0,0.0,0.0,0.0,0.0,0.0,0.0,0.0,0.0,0.0,0.0,0.0,0.0,0.0,0.0,0.0,0.0,-1.4384,-1.3855,-1.3621,-1.3474,-1.3323,-1.3198,-1.3198,-1.3198,-1.3198,-1.3198,-1.3509,-1.4085,-1.4488,-1.5054,-1.5706,-1.5939,-1.62,-1.6466,-1.5864,-1.5588,-1.5543,-1.4606,-1.3789,-1.3152,-1.2978,-1.2881,-1.2881,-1.2881,-1.2881,-1.2881,-1.2881,-1.2881,-1.2881,-1.2881,-1.2881,-1.3037,-1.3877,-1.4077,-1.4262,-1.5166,-1.4991,-1.4207,-1.2806,-1.1754,-1.1263,-1.185,-1.1991,-1.2044,-1.2258,-1.2305,-1.2305,-1.2305,-1.2726,-1.308,-1.308,-1.3257,-1.2757,-1.0766,-1.0262,-0.9338,-0.7394,-0.7139,-0.7139,-0.7139,-0.7139,-0.7139,-0.7139,-0.7244,-0.7373,-0.7529,-0.7646,-0.7406,-0.6799,-0.2449,0.0,0.0,0.0,0.0,0.0,0.0,0.0,0.0,0.0,0.0,0.0,0.0,0.0,0.0,0.0,0.0,-0.7132,-0.784,-0.8528,0.0,0.0,0.0,0.0,0.0,0.0,0.0,0.0,0.0,0.0,0.0,0.0,0.0,0.0,0.0,0.0,-1.4041,-1.3903,-1.3736,-1.3439,-1.331,-1.3355,-1.3242,-1.3198,-1.3198,-1.3198,-1.3198,-1.3198,-1.3198,-1.3509,-1.4085,-1.4412,-1.4979,-1.5706,-1.6019,-1.6168,-1.6139,-1.6008,-1.5543,-1.4858,-1.4744,-1.4154,-1.3238,-1.3017,-1.2881,-1.2881,-1.2881,-1.2881,-1.2881,-1.2881,-1.2881,-1.2881,-1.2881,-1.2998,-1.3271,-1.3936,-1.4258,-1.4541,-1.5225,-1.4569,-1.3571,-1.287,-1.1912,-1.1289,-1.1757,-1.1964,-1.2098,-1.2265,-1.2305,-1.2305,-1.2305,-1.2792,-1.3213,-1.3213,-1.3694,-1.3476,-1.1558,-1.0864,-0.9918,-0.8101,-0.7404,-0.7139,-0.7139,-0.7139,-0.7166,-0.7231,-0.7319,-0.7461,-0.7675,-0.7695,-0.7818,-0.7979,-0.3881,-0.1188,-0.0,0.0,0.0,0.0,0.0,0.0,0.0,0.0,0.0,0.0,0.0,0.0,0.0,0.0,0.0,-0.6037,-0.7359,-0.8493,-0.8107,0.0,0.0,0.0,0.0,0.0,0.0,0.0,0.0,0.0,0.0,0.0,0.0,0.0,0.0,-1.3182,-1.2878,-1.254,-1.2133,-1.2496,-1.2844,-1.3107,-1.311,-1.3135,-1.3198,-1.3198,-1.3198,-1.3198,-1.3198,-1.3483,-1.3997,-1.4123,-1.4689,-1.5605,-1.5731,-1.5738,-1.5632,-1.6194,-1.541,-1.3815,-1.4376,-1.4236,-1.3637,-1.3104,-1.2881,-1.2881,-1.2881,-1.2881,-1.2881,-1.2881,-1.2881,-1.2881,-1.2881,-1.3164,-1.3584,-1.3951,-1.4443,-1.4873,-1.5052,-1.4085,-1.3022,-1.3082,-1.2226,-1.149,-1.1757,-1.2064,-1.2305,-1.2305,-1.2305,-1.2311,-1.2345,-1.2812,-1.3213,-1.3213,-1.3694,-1.3646,-1.2328,-1.1209,-1.0178,-0.889,-0.7753,-0.7139,-0.7139,-0.7139,-0.7193,-0.7333,-0.7377,-0.7509,-0.777,-0.7818,-0.7913,-0.7982,-0.5432,-0.2715,-0.0101,0.0,0.0,0.0,0.0,0.0,0.0,0.0,0.0,0.0,0.0,0.0,0.0,0.0,0.0,-0.6707,-0.7075,-0.7567,0.0,0.0,0.0,0.0,0.0,0.0,0.0,0.0,0.0,0.0,0.0,0.0,0.0,0.0,0.0,-1.253,-1.2244,-1.1921,-1.1589,-1.1311,-1.1577,-1.2517,-1.258,-1.2735,-1.3185,-1.3198,-1.3198,-1.3198,-1.3198,-1.3248,-1.3408,-1.4324,-1.4865,-1.5104,-1.5957,-1.6096,-1.5588,-1.572,-1.5039,-1.3815,-1.392,-1.36,-1.3055,-1.2978,-1.2881,-1.2881,-1.2881,-1.2881,-1.2881,-1.2881,-1.2881,-1.2881,-1.2881,-1.3164,-1.3584,-1.3951,-1.4443,-1.4582,-1.374,-1.3252,-1.272,-1.1493,-1.1286,-1.1443,-1.1496,-1.1917,-1.2305,-1.2305,-1.2305,-1.2371,-1.2612,-1.2959,-1.3213,-1.3213,-1.3694,-1.3385,-1.1214,-1.0783,-0.9831,-0.7749,-0.7228,-0.7139,-0.7139,-0.7139,-0.7153,-0.7183,-0.7414,-0.758,-0.7638,-0.7865,-0.7925,-0.7985,-0.5432,-0.2715,-0.0101,0.0,0.0,0.0,0.0,0.0,0.0,0.0,0.0,0.0,0.0,0.0,-0.4481,0.0,0.0,0.0,-0.6536,-0.6958,-0.7693,-0.7954,0.0,0.0,0.0,0.0,0.0,0.0,0.0,0.0,0.0,0.0,0.0,0.0,0.0,-1.1395,-1.1346,-1.1259,-1.1067,-1.1112,-1.1525,-1.2366,-1.2634,-1.291,-1.3185,-1.3198,-1.3198,-1.3198,-1.3198,-1.3198,-1.321,-1.4061,-1.4487,-1.4499,-1.5608,-1.5579,-1.4721,-1.5365,-1.4732,-1.3372,-1.3684,-1.342,-1.2881,-1.2881,-1.2881,-1.2881,-1.2881,-1.2881,-1.2881,-1.2881,-1.2881,-1.2881,-1.2881,-1.3164,-1.3584,-1.3951,-1.458,-1.4907,-1.3853,-1.3312,-1.2704,-1.1538,-1.1304,-1.1423,-1.1423,-1.1877,-1.2305,-1.2305,-1.2418,-1.2565,-1.2795,-1.3113,-1.3427,-1.3427,-1.3794,-1.3476,-1.1729,-1.095,-1.0005,-0.8189,-0.7563,-0.7224,-0.7149,-0.721,-0.7255,-0.7255,-0.7468,-0.7631,-0.7699,-0.7916,-0.7955,-0.7989,-0.5432,-0.2715,-0.0101,0.0,0.0,0.0,0.0,0.0,0.0,0.0,0.0,0.0,0.0,0.0,0.0,0.0,-0.5046,0.0,0.0,0.0,-0.6503,0.0,0.0,0.0,0.0,0.0,0.0,0.0,0.0,0.0,0.0,0.0,0.0,0.0,0.0,0.0,-1.0778,-1.0886,-1.0712,-1.1171,-1.1733,-1.2379,-1.27,-1.2985,-1.3185,-1.3198,-1.3198,-1.3198,-1.3198,-1.3248,-1.3396,-1.3826,-1.4108,-1.4163,-1.5089,-1.4891,-1.3862,-1.4812,-1.4376,-1.2929,-1.342,-1.3334,-1.2881,-1.2881,-1.2881,-1.2881,-1.2881,-1.2881,-1.2881,-1.2881,-1.2881,-1.2881,-1.2881,-1.3223,-1.3711,-1.4131,-1.4795,-1.5167,-1.4273,-1.3485,-1.2765,-1.1834,-1.1493,-1.1423,-1.1423,-1.1877,-1.2305,-1.2305,-1.2532,-1.2842,-1.2903,-1.3273,-1.3559,-1.3559,-1.3895,-1.3646,-1.2157,-1.1214,-1.0111,-0.8765,-0.7893,-0.7302,-0.7234,-0.7288,-0.7339,-0.737,-0.7485,-0.7617,-0.7763,-0.7913,-0.7925,-0.7985,-0.4931,-0.2213,-0.0,0.0,0.0,0.0,0.0,0.0,0.0,0.0,0.0,0.0,0.0,0.0,0.0,-0.4175,0.0,0.0,0.0,-0.6003,-0.6133,0.0,0.0,0.0,0.0,0.0,0.0,0.0,0.0,0.0,0.0,0.0,0.0,0.0,0.0,0.0,-1.1284,-1.1299,-1.0825,-1.0859,-1.1341,-1.2357,-1.2019,-1.2228,-1.3173,-1.3198,-1.3198,-1.3198,-1.3198,-1.3483,-1.3997,-1.4004,-1.4268,-1.4695,-1.4796,-1.4459,-1.3815,-1.3956,-1.36,-1.2929,-1.2968,-1.2968,-1.2881,-1.2881,-1.2881,-1.2881,-1.2881,-1.2881,-1.2881,-1.2881,-1.2881,-1.2881,-1.2881,-1.3418,-1.4141,-1.458,-1.5039,-1.505,-1.3545,-1.307,-1.2642,-1.1108,-1.1055,-1.1423,-1.1423,-1.1877,-1.2305,-1.2305,-1.2532,-1.2903,-1.3106,-1.342,-1.3559,-1.3559,-1.3895,-1.3385,-1.1128,-1.0697,-0.9901,-0.7865,-0.7331,-0.7265,-0.7519,-0.7319,-0.7221,-0.736,-0.7387,-0.7461,-0.7614,-0.7756,-0.7913,-0.7982,-0.3124,-0.0303,-0.0,0.0,0.0,0.0,0.0,0.0,0.0,0.0,0.0,0.0,0.0,0.0,0.0,0.0,0.0,-0.4705,0.0,-0.5633,0.0,0.0,0.0,0.0,0.0,0.0,0.0,-0.6364,0.0,0.0,0.0,0.0,0.0,0.0,0.0,0.0,0.0,0.0,0.0,-1.095,-1.1198,-1.1303,-1.2133,-1.2649,-1.2743,-1.3035,-1.3198,-1.3198,-1.3198,-1.3311,-1.3584,-1.3879,-1.393,-1.3766,-1.4384,-1.4201,-1.3286,-1.3637,-1.3467,-1.2881,-1.2881,-1.2881,-1.2881,-1.2881,-1.2881,-1.2881,-1.2881,-1.2881,-1.2881,-1.2881,-1.2881,-1.2881,-1.2881,-1.3281,-1.3848,-1.4277,-1.4707,-1.4744,-1.3365,-1.3009,-1.2691,-1.1205,-1.1116,-1.147,-1.1643,-1.1997,-1.2305,-1.2305,-1.2679,-1.3053,-1.3186,-1.3587,-1.3901,-1.3901,-1.4008,-1.33,-1.0956,-1.0611,-0.9777,-0.7492,-0.7258,-0.7322,-0.7455,-0.7431,-0.7397,-0.7373,-0.7451,-0.7533,-0.7597,-0.7828,-0.7288,-0.5734,-0.2012,0.0,0.0,0.0,0.0,0.0,0.0,0.0,0.0,0.0,0.0,-0.6741,0.0,0.0,0.0,0.0,0.0,0.0,0.0,0.0,0.0,0.0,0.0,0.0,0.0,0.0,0.0,0.0,0.0,0.0,0.0,0.0,0.0,0.0,0.0,0.0,0.0,0.0,0.0,0.0,-1.1051,-1.0977,-1.2102,-1.2718,-1.2653,-1.2998,-1.3198,-1.3198,-1.3082,-1.3169,-1.3436,-1.3509,-1.3422,-1.3275,-1.3913,-1.3752,-1.2929,-1.3372,-1.3286,-1.2881,-1.2881,-1.2881,-1.2881,-1.2881,-1.2881,-1.2881,-1.2881,-1.2881,-1.2881,-1.2881,-1.2881,-1.2881,-1.2881,-1.3164,-1.3584,-1.3951,-1.4443,-1.4525,-1.3331,-1.3009,-1.2699,-1.1261,-1.1149,-1.1483,-1.1697,-1.2031,-1.2305,-1.2305,-1.2779,-1.3213,-1.3213,-1.3687,-1.4088,-1.4088,-1.3822,-1.2948,-1.0869,-1.0351,-0.9423,-0.746,-0.7265,-0.7356,-0.7478,-0.7482,-0.7461,-0.7438,-0.7458,-0.7509,-0.7594,-0.7805,-0.716,-0.5129,-0.181,0.0,0.0,0.0,0.0,0.0,0.0,0.0,0.0,0.0,0.0,0.0,0.0,0.0,-0.5884,0.0,0.0,0.0,0.0,-0.4733,0.0,0.0,0.0,0.0,0.0,0.0,0.0,0.0,0.0,0.0,0.0,0.0,0.0,0.0,0.0,0.0,0.0,0.0,0.0,0.0,0.0,-1.2089,-1.166,-1.1965,-1.3222,-1.3205,-1.3198,-1.3198,-1.2756,-1.3046,-1.406,-1.2892,-1.2883,-1.3828,-1.3216,-1.2929,-1.2881,-1.2929,-1.2929,-1.2881,-1.2881,-1.2881,-1.2881,-1.2881,-1.2881,-1.2881,-1.2881,-1.2881,-1.2881,-1.2881,-1.2881,-1.2881,-1.2881,-1.3164,-1.3584,-1.3951,-1.4443,-1.4525,-1.3331,-1.3009,-1.2642,-1.1003,-1.0995,-1.143,-1.1436,-1.1884,-1.2305,-1.2305,-1.2779,-1.3213,-1.3213,-1.3687,-1.4088,-1.4088,-1.3118,-1.198,-1.0783,-0.9666,-0.8605,-0.7524,-0.7238,-0.7316,-0.775,-0.7411,-0.7275,-0.7567,-0.7322,-0.7282,-0.758,-0.7811,-0.7989,-0.7885,-0.2822,0.0,0.0,0.0,0.0,0.0,0.0,0.0,0.0,0.0,0.0,0.0,0.0,-0.7915,-0.6652,0.0,0.0,0.0,0.0,0.0,0.0,0.0,0.0,0.0,0.0,0.0,0.0,0.0,0.0,0.0,0.0,0.0,0.0,0.0,0.0,0.0,0.0,0.0,0.0,0.0,0.0,0.0,-1.2024,-1.2638,-1.2687,-1.3539,-1.3729,-1.3198,-1.272,-1.2663,-1.3034,-1.2546,-1.2467,-1.2818,-1.2859,-1.2881,-1.2881,-1.2881,-1.2881,-1.2881,-1.2881,-1.2881,-1.2881,-1.2881,-1.2881,-1.2881,-1.2881,-1.2881,-1.2881,-1.2881,-1.2881,-1.2881,-1.2881,-1.2978,-1.3123,-1.3271,-1.3405,-1.3365,-1.2466,-1.2205,-1.2056,-1.1286,-1.1276,-1.1523,-1.1917,-1.2158,-1.2305,-1.2305,-1.2779,-1.3213,-1.3213,-1.3687,-1.4088,-1.4088,-1.2431,-1.1037,-1.0697,-1.0269,-0.934,-0.7474,-0.7173,-0.7275,-0.7634,-0.7444,-0.7414,-0.7712,-0.7645,-0.7634,-0.7657,-0.7861,-0.7989,-0.8012,-0.6276,-0.3636,-0.0101,0.0,0.0,0.0,0.0,0.0,0.0,0.0,0.0,-0.8896,-0.8505,0.0,-0.6983,-0.6392,0.0,-0.5285,0.0,0.0,0.0,0.0,0.0,0.0,0.0,0.0,0.0,0.0,0.0,0.0,-0.52,0.0,0.0,0.0,0.0,0.0,0.0,0.0,0.0,0.0,0.0,0.0,0.0,-1.2245,-1.2347,-1.3249,-1.3483,-1.2943,-1.2508,-1.2318,-1.2473,-1.2026,-1.1984,-1.2329,-1.2536,-1.2734,-1.2881,-1.2881,-1.2881,-1.2881,-1.2881,-1.2881,-1.2881,-1.2881,-1.2725,-1.2559,-1.2774,-1.2881,-1.2871,-1.2608,-1.2666,-1.2881,-1.2608,-1.2772,-1.3082,-1.295,-1.3021,-1.2981,-1.2042,-1.1854,-1.1851,-1.137,-1.143,-1.1677,-1.2058,-1.2225,-1.2305,-1.2305,-1.2692,-1.3046,-1.3046,-1.3527,-1.3928,-1.3928,-1.2451,-1.1037,-1.0697,-0.9918,-0.879,-0.7312,-0.7139,-0.7238,-0.7492,-0.7431,-0.7468,-0.7716,-0.7784,-0.7724,-0.7744,-0.6979,-0.6965,-0.7922,-0.6178,-0.3546,-0.0102,0.0,0.0,0.0,0.0,0.0,0.0,0.0,0.0]}]]